GFSSGP_850_rhum_000.txt.gz
RH
35 33 29 26 39 49 49 39 29 28 26 23 23 26 27 28 34 39 36 29 24 23 39 89 98 90 80 71 76 76 81 83 61 55 89 95 89 81 75 73 76 73 69 55 40 44 54 50 65
34 33 29 30 48 50 47 34 28 26 21 20 26 28 28 36 41 37 34 28 24 24 34 62 92 85 78 70 79 80 85 71 58 57 81 93 82 86 88 87 77 78 53 38 36 42 37 27 34
38 38 33 50 61 58 46 30 29 28 21 21 24 31 32 40 41 34 29 25 24 23 28 43 88 79 77 76 79 79 69 61 58 71 94 88 84 83 78 67 82 80 52 40 37 34 35 35 35
45 41 39 52 56 49 38 30 31 30 23 24 24 28 35 38 41 38 39 26 25 24 29 31 43 57 88 86 68 72 64 53 56 50 82 88 84 81 81 80 81 85 49 40 38 38 37 37 41
48 47 61 61 58 45 40 33 30 30 28 22 25 26 34 31 36 38 33 28 30 30 36 32 40 57 86 73 66 66 51 44 46 45 76 89 86 84 84 81 77 87 71 47 46 46 46 44 44
55 52 74 71 55 44 40 32 32 30 26 23 26 30 30 34 34 38 36 31 38 42 41 39 38 52 63 77 72 69 52 46 45 58 66 81 85 86 83 82 82 89 63 49 51 52 54 57 58
68 72 73 64 58 51 42 32 29 27 23 24 25 30 28 32 30 32 39 40 47 52 50 44 40 44 58 78 76 72 56 60 53 53 56 59 70 80 78 75 75 69 48 48 59 69 76 79 82
66 70 75 72 60 58 36 32 28 23 21 21 26 31 28 28 29 31 41 48 55 59 57 54 54 48 41 54 74 73 59 80 65 57 48 39 47 64 68 70 55 44 49 64 73 76 81 82 81
70 84 89 74 66 54 37 37 31 30 28 27 26 24 24 25 27 27 38 46 53 60 63 62 61 58 46 49 62 70 67 81 80 71 45 33 39 51 51 46 43 54 67 73 83 85 87 86 82
82 96 78 63 56 48 43 41 39 33 32 32 29 27 25 25 26 26 26 33 42 47 56 62 63 62 54 55 60 65 69 71 65 64 44 30 35 43 48 50 54 70 80 89 89 85 85 83 81
80 86 68 61 54 49 49 45 41 38 46 35 32 28 28 27 27 28 30 32 35 39 46 53 59 65 63 57 60 62 72 76 74 65 47 45 42 48 62 66 79 88 89 99 91 84 81 81 81
88 78 72 63 59 61 59 55 48 41 40 33 34 36 29 31 26 26 28 28 31 36 42 52 62 67 67 64 65 64 77 90 80 70 66 70 70 74 83 84 95 90 97 91 86 85 84 81 70
82 79 70 66 62 62 62 67 68 60 55 48 41 39 35 30 30 28 28 30 33 33 33 38 52 67 72 71 78 81 92 88 85 88 87 84 84 86 88 99 98 95 90 90 85 80 56 40 35
70 70 71 62 62 63 65 63 59 52 51 48 40 34 35 34 29 29 29 29 30 31 31 31 35 58 75 79 87 90 95 93 94 90 92 97 97 96 100 99 96 88 85 83 59 32 31 32 32
74 80 73 66 59 64 56 67 65 52 51 49 46 42 36 34 31 29 28 29 28 27 30 30 29 44 71 86 96 99 98 99 97 98 96 96 96 97 96 92 89 86 54 29 30 28 25 22 20
75 78 92 62 64 60 59 74 51 42 41 46 44 44 42 37 32 29 30 29 29 31 30 28 28 36 69 92 100 100 96 96 94 91 94 93 97 98 95 92 77 29 30 29 27 24 21 20 20
84 91 86 70 56 61 69 64 53 44 41 44 41 41 40 38 33 30 30 30 30 30 29 28 30 40 72 90 100 99 96 98 94 91 92 92 94 92 86 61 29 32 34 34 28 21 21 22 21
86 86 72 67 59 67 76 74 61 49 49 52 48 47 44 39 35 32 31 31 31 29 29 27 34 52 75 90 98 96 94 98 97 95 100 91 92 75 26 31 35 40 38 30 22 22 24 23 22
85 91 93 75 59 67 72 69 59 54 52 57 52 51 45 44 39 34 34 32 32 31 30 30 36 64 71 83 95 98 92 100 100 100 100 91 74 24 34 40 45 46 41 30 23 23 24 24 24
83 86 85 75 60 62 63 62 53 51 54 56 54 51 48 43 40 37 38 34 33 37 33 35 45 69 67 80 97 96 91 94 92 98 86 61 27 35 42 49 50 49 45 36 28 26 27 26 21
90 92 86 84 63 55 61 60 48 40 39 40 42 42 42 41 40 36 36 34 35 43 35 40 55 82 74 99 99 99 93 91 95 85 68 30 36 41 51 52 52 51 50 44 34 29 28 23 14
93 77 77 79 84 94 62 76 50 44 50 42 39 40 45 38 37 39 37 35 35 36 44 46 56 81 94 86 97 93 84 86 87 68 35 35 39 50 52 52 52 53 53 47 37 30 24 13 10
72 69 77 79 89 90 82 88 67 48 48 44 50 46 40 38 34 36 34 35 35 43 44 49 57 74 88 87 94 95 91 88 82 42 34 38 44 51 52 51 52 53 53 48 37 25 14 9 13
61 72 73 75 78 93 72 84 59 48 41 53 46 39 34 36 36 36 34 35 41 47 50 58 68 90 88 95 98 95 92 87 65 35 37 38 46 51 52 50 52 54 53 45 32 16 9 10 16
72 79 97 99 97 87 64 75 53 43 40 43 47 39 31 30 38 40 37 37 42 47 56 72 85 93 98 98 100 99 98 91 51 35 37 39 46 50 50 50 53 54 50 40 23 11 10 15 19
79 75 91 88 92 84 57 74 61 45 35 31 29 32 35 37 35 39 38 39 40 50 68 81 100 98 100 100 98 96 91 63 36 38 38 41 47 50 49 51 54 53 45 30 16 11 15 20 18
97 96 67 72 61 88 78 68 52 54 55 45 42 35 32 32 36 40 43 45 48 56 76 87 100 100 100 93 82 77 56 37 39 41 40 42 47 48 49 53 54 49 38 24 14 16 22 20 20
88 73 97 96 96 93 75 64 66 50 51 45 38 28 42 35 39 41 48 53 63 70 85 98 98 98 93 75 67 49 38 41 44 42 41 46 47 49 52 55 53 43 28 18 19 24 22 23 26
92 98 96 77 87 92 86 57 54 43 48 52 46 43 41 39 43 46 51 58 67 80 92 95 97 98 82 69 50 45 43 46 46 42 45 48 49 52 56 56 48 35 23 22 26 26 26 30 31
64 70 75 86 84 84 88 58 42 65 57 52 53 46 45 47 56 65 71 72 78 84 88 90 92 84 76 58 54 50 47 47 44 46 49 50 52 57 59 53 41 28 24 27 29 31 34 34 32

GFSSGP_850_rhum_003.txt.gz
RH
35 35 32 26 36 39 43 34 32 28 26 24 20 26 27 28 32 35 37 37 27 24 37 96 95 96 91 78 69 70 72 68 50 89 88 81 75 74 81 70 65 57 56 45 36 40 55 49 72
36 34 31 29 39 42 38 32 30 27 26 22 26 28 27 31 32 40 41 32 27 25 36 80 97 96 92 71 74 75 77 66 52 57 78 77 86 88 87 83 70 62 44 36 38 39 34 25 34
38 37 33 43 48 42 39 31 28 30 25 21 26 31 28 34 36 40 26 35 22 24 45 93 98 98 90 71 78 81 71 61 55 81 93 86 82 80 60 71 78 74 43 42 41 39 42 43 43
43 42 39 44 46 44 36 27 31 31 26 24 23 26 33 33 42 36 34 39 27 20 32 86 100 97 86 98 78 87 67 57 59 63 89 86 83 86 82 86 80 79 52 45 45 45 43 43 45
47 47 53 57 49 42 38 35 32 31 32 27 23 25 29 32 34 38 41 34 26 22 32 79 100 97 91 100 99 95 57 50 52 58 85 85 82 88 86 85 78 79 57 48 47 50 51 50 49
56 52 62 61 50 44 38 32 33 32 29 26 24 27 25 29 34 34 34 31 29 26 31 48 98 84 98 100 99 92 53 47 50 56 80 88 85 88 86 84 77 76 61 49 49 61 71 73 76
65 62 64 61 53 48 40 32 34 32 30 25 23 28 23 27 39 34 34 33 36 37 33 42 78 89 98 100 99 83 54 55 52 58 64 82 86 87 88 79 75 71 54 49 68 76 77 79 81
67 60 72 64 52 49 36 34 30 30 27 23 27 28 24 27 30 31 38 42 47 43 45 50 67 93 92 100 97 94 61 88 63 52 44 49 67 79 76 73 67 55 48 63 77 79 84 86 86
71 77 77 64 60 48 40 38 34 32 31 29 28 26 27 26 27 32 32 41 49 55 56 64 69 92 95 94 98 96 67 84 82 61 42 34 44 60 64 58 46 47 63 79 83 83 83 81 78
77 86 76 62 53 49 43 42 39 38 35 36 33 29 29 28 27 26 28 30 38 48 58 65 70 72 85 91 98 92 67 69 71 66 48 30 36 48 41 40 47 67 76 79 84 88 78 74 75
82 76 68 62 52 52 54 50 46 41 44 39 36 31 31 30 30 30 29 32 31 42 52 61 68 76 74 63 84 84 68 66 67 62 49 37 39 47 48 62 70 83 84 98 88 82 81 76 65
85 80 77 64 59 61 62 59 63 50 45 42 36 40 41 37 31 31 32 32 34 34 41 50 59 69 77 70 61 70 68 76 81 67 43 57 57 64 75 88 91 90 94 96 90 85 80 59 35
83 79 74 70 69 67 65 70 66 67 59 54 50 49 45 39 34 30 31 34 35 34 33 36 43 55 71 75 69 69 69 86 85 68 66 73 79 85 92 98 97 90 89 87 84 72 45 29 29
72 75 72 65 62 61 64 60 65 55 49 48 49 47 44 38 33 33 30 29 30 31 31 32 34 40 60 77 76 76 79 90 80 77 79 86 97 97 98 96 93 92 87 78 44 27 27 26 24
74 78 69 66 61 59 57 66 68 54 53 50 46 43 39 40 34 33 30 30 29 28 29 29 30 33 43 71 84 88 90 91 89 90 95 97 94 94 94 95 92 88 59 28 28 28 26 24 22
74 75 86 61 61 59 53 62 53 49 49 51 50 44 43 37 34 32 33 30 29 29 28 31 30 30 36 70 83 84 96 92 91 92 90 89 90 94 93 89 88 42 30 31 30 26 19 17 16
82 82 88 69 57 56 65 68 51 49 53 55 50 46 44 43 35 34 36 33 31 31 30 31 31 30 31 64 77 86 95 91 89 90 94 89 89 90 90 84 36 32 34 33 25 17 16 18 18
80 96 78 72 58 62 67 68 55 55 53 51 53 47 48 48 43 39 37 35 34 32 31 31 31 32 34 58 87 99 95 92 97 97 98 90 89 85 74 28 33 40 42 36 29 23 22 21 19
81 86 81 66 60 68 64 61 53 50 54 52 50 49 47 42 41 40 38 38 36 34 31 31 30 31 35 56 83 95 87 97 100 100 100 96 88 74 22 35 46 49 48 47 42 34 26 20 16
78 82 78 58 63 63 63 63 50 46 46 46 45 49 50 43 40 38 35 35 37 35 33 34 35 34 40 52 66 81 86 99 100 100 100 96 70 25 35 48 51 51 52 54 51 45 31 20 14
71 76 65 66 64 60 62 56 38 30 32 38 43 42 42 42 35 34 34 36 35 35 34 39 37 43 54 52 71 84 96 100 100 100 94 61 32 34 44 50 51 52 54 56 55 49 33 17 10
84 73 75 78 84 83 60 71 39 38 36 34 38 38 39 42 37 30 32 31 38 34 37 44 47 53 57 62 77 74 83 91 92 86 73 53 35 41 50 50 51 52 55 56 55 46 28 12 10
74 69 75 80 88 92 72 84 54 46 45 40 36 34 37 38 37 32 28 28 35 35 38 45 52 58 68 93 90 80 88 89 79 77 76 33 38 46 51 51 50 52 55 56 52 40 20 10 11
64 74 71 74 78 92 66 73 55 38 35 36 37 34 34 33 34 33 36 34 35 40 46 51 50 59 97 100 85 90 86 88 82 78 41 36 41 49 51 50 50 53 56 56 50 34 17 12 16
70 98 94 95 96 81 59 75 52 37 33 33 30 34 32 30 35 31 38 40 36 40 45 51 54 63 96 98 86 98 87 89 85 72 36 36 40 47 50 50 51 54 56 54 45 29 16 17 21
82 80 91 88 83 72 64 77 56 42 34 32 29 26 27 26 22 30 37 40 37 40 46 50 57 72 97 94 100 91 92 90 82 54 36 39 42 46 49 49 52 55 56 51 39 25 20 22 22
99 97 68 95 87 93 68 58 41 37 34 36 35 28 24 20 21 22 27 43 41 44 49 53 67 83 87 99 89 94 94 92 69 37 38 38 40 45 48 49 53 55 53 45 33 25 24 24 25
81 78 96 97 95 90 64 61 58 37 25 30 40 40 38 36 26 21 30 39 50 52 58 73 79 85 94 97 100 100 98 75 42 38 38 38 40 46 48 51 54 54 49 39 30 26 26 29 34
93 98 100 98 96 87 69 45 41 34 35 44 47 43 45 42 36 26 27 46 58 66 71 83 96 95 94 100 99 88 64 40 39 42 40 39 44 47 49 54 55 50 42 34 28 28 32 36 37
64 72 72 90 88 88 83 60 31 33 56 50 48 49 45 44 45 42 40 48 70 81 87 98 99 94 97 92 77 57 40 42 46 45 41 43 47 49 53 56 52 44 37 30 28 33 36 36 34

GFSSGP_850_rhum_006.txt.gz
RH
35 34 33 31 27 25 26 22 19 21 22 20 19 20 21 22 26 28 38 40 36 40 75 86 97 97 88 77 67 64 64 51 71 90 83 80 82 82 82 66 52 48 46 39 42 49 60 72 88
37 34 34 29 29 29 22 20 20 20 21 20 22 24 23 22 33 45 44 37 34 37 88 99 98 98 96 78 71 71 69 57 47 87 76 73 78 76 80 55 52 42 39 38 41 40 31 31 36
39 36 31 28 28 29 25 21 16 22 23 20 21 26 26 26 46 47 35 27 29 48 56 90 90 97 97 80 74 78 67 54 49 70 82 78 72 64 64 78 68 54 42 43 42 45 48 49 49
48 40 34 31 29 25 24 20 21 22 22 23 20 19 27 30 46 48 34 36 30 59 62 62 81 96 94 97 98 84 66 53 47 81 85 80 85 88 83 80 72 68 47 47 46 48 47 47 46
49 38 31 35 28 22 23 23 24 22 22 21 22 19 20 29 31 37 41 35 41 82 96 74 87 95 93 98 98 97 64 52 48 82 82 79 82 88 88 88 79 75 56 50 50 53 91 61 59
41 36 35 33 27 24 26 24 24 22 21 21 21 20 20 26 33 32 36 34 38 55 96 92 92 96 91 96 98 96 55 43 45 75 84 80 76 90 86 86 83 71 60 56 55 70 77 75 79
37 36 31 29 27 26 25 26 24 22 21 21 22 20 20 30 39 36 36 33 35 58 92 90 86 96 94 98 99 96 53 45 47 63 83 83 82 88 92 90 82 72 52 47 65 78 81 84 85
48 36 34 35 31 30 24 28 26 24 21 23 24 20 19 38 40 36 40 41 44 58 89 92 93 91 95 97 97 88 58 61 47 45 56 76 82 85 82 79 76 72 47 58 72 80 86 86 83
64 43 39 35 35 28 30 29 29 28 25 26 26 26 29 27 35 46 50 55 71 68 90 92 93 95 98 95 97 94 66 90 62 45 35 40 56 68 71 64 59 46 49 66 77 81 84 78 73
49 45 35 27 31 31 30 31 28 31 28 26 28 28 32 30 33 61 67 69 77 80 60 51 94 100 100 93 93 98 84 86 86 60 40 32 36 49 55 45 41 51 69 76 74 81 77 74 72
50 48 32 44 43 40 36 38 36 33 30 28 27 28 34 36 42 50 52 54 69 78 83 56 63 91 96 96 95 99 98 99 96 64 45 26 31 43 42 54 72 84 82 80 91 87 81 75 58
56 48 45 44 50 54 49 46 45 39 31 29 34 35 40 40 37 36 46 51 63 78 77 52 56 60 72 97 98 100 97 96 96 83 48 35 36 42 60 96 81 88 80 85 86 82 74 53 28
59 45 54 54 62 56 51 48 47 44 42 46 46 46 45 42 39 36 37 46 57 64 60 60 46 53 63 87 98 100 97 97 98 86 48 68 73 89 78 85 83 90 86 86 82 64 30 27 26
54 59 55 54 52 51 51 46 45 44 43 43 42 40 42 40 38 35 37 37 47 50 43 54 43 41 51 70 80 95 98 100 99 92 62 85 97 87 93 91 90 89 90 79 38 28 28 25 22
61 60 44 43 46 47 49 49 43 38 37 38 40 36 35 35 38 38 36 36 34 40 49 40 43 41 42 65 82 97 96 91 98 98 95 93 88 92 88 91 90 89 78 31 30 28 24 17 14
58 57 58 41 45 41 43 46 30 43 40 39 39 36 33 33 33 35 35 37 38 36 32 34 33 35 37 57 84 87 97 96 99 98 87 87 88 89 89 87 87 84 30 31 30 25 18 15 15
54 49 58 46 41 43 46 45 36 36 41 41 36 37 38 38 35 33 35 37 37 37 37 32 32 34 43 85 86 87 96 94 90 88 85 85 90 90 89 89 84 31 34 38 34 30 24 18 15
42 58 48 43 39 47 47 44 35 38 40 38 36 37 39 42 43 38 35 37 34 36 33 31 32 34 41 84 96 83 90 94 90 90 87 93 90 88 89 82 30 38 45 45 44 40 34 23 14
47 51 50 42 41 50 44 42 36 34 35 36 37 36 35 36 40 43 43 44 42 37 34 32 32 33 37 57 56 75 87 88 89 96 98 100 93 86 77 28 38 48 48 48 49 46 39 26 13
54 54 50 41 39 46 42 42 35 32 32 32 32 32 32 34 35 38 42 41 44 37 36 34 33 33 39 45 56 57 73 89 94 98 100 100 93 75 33 37 48 49 49 51 53 51 42 27 13
58 59 54 53 43 42 49 46 27 22 22 24 28 29 28 28 31 34 34 36 43 43 35 36 35 35 44 54 76 76 75 88 100 100 100 98 68 46 34 47 49 49 51 54 56 54 44 24 15
62 45 51 59 61 63 45 53 29 24 23 23 25 27 28 29 30 31 33 32 36 40 36 37 36 40 47 61 67 65 58 80 99 100 98 89 55 35 43 49 48 50 52 55 57 55 43 25 15
58 52 53 54 60 62 53 84 36 30 30 27 23 22 22 24 27 32 33 33 34 34 31 38 39 48 47 56 70 85 80 89 90 99 98 74 40 42 48 49 49 50 53 56 57 54 41 25 18
52 58 58 57 62 87 52 50 41 27 24 21 21 22 20 26 30 34 42 40 39 47 35 40 48 55 55 65 88 97 83 77 85 97 86 50 42 44 50 49 49 51 54 56 57 52 41 26 21
59 71 73 82 90 63 29 41 40 25 24 22 20 17 20 24 28 32 38 42 48 51 37 45 56 52 60 85 98 95 87 85 87 81 70 62 40 45 49 49 49 52 54 56 56 50 38 26 23
66 61 64 58 43 40 32 53 34 21 22 24 23 23 21 25 26 23 32 42 56 60 41 51 62 59 68 100 100 99 96 94 84 77 71 50 39 44 48 48 49 52 54 55 53 47 36 27 24
71 91 55 75 68 89 46 42 28 24 28 24 22 20 31 34 36 34 29 40 63 71 51 61 73 75 83 100 99 100 100 91 83 79 57 38 41 44 45 47 49 52 54 54 51 43 32 27 28
66 57 87 95 82 69 43 46 35 24 22 18 19 26 32 36 41 41 36 44 66 76 70 88 87 83 90 99 98 100 94 90 84 76 48 39 41 41 44 46 50 53 53 52 47 39 31 29 34
82 91 95 77 74 67 54 32 20 25 29 36 33 32 38 45 48 50 40 58 76 86 89 88 86 82 83 100 100 99 95 87 79 56 38 39 38 40 44 47 51 52 52 49 43 36 31 32 32
45 57 62 94 88 88 62 50 20 23 21 31 32 36 41 52 60 60 51 74 87 88 90 87 83 86 98 100 100 99 100 83 60 40 38 37 38 42 45 49 52 52 50 46 41 33 29 27 29

GFSSGP_850_rhum_009.txt.gz
RH
38 44 36 31 27 24 24 19 13 17 16 15 18 17 18 20 21 32 58 66 63 79 93 76 89 95 80 74 70 68 59 60 91 84 78 81 84 78 75 67 46 41 34 31 36 51 66 78 84
47 39 34 26 31 27 22 16 17 12 17 18 17 19 19 20 24 44 56 48 62 77 93 95 92 96 86 74 70 69 58 45 85 79 60 76 71 66 59 52 42 37 36 34 36 35 28 33 40
38 38 29 27 28 27 21 17 15 15 18 18 18 20 20 22 35 39 56 46 62 76 87 90 81 92 92 75 68 73 56 43 47 72 77 72 80 76 64 67 63 46 41 40 41 43 45 44 45
44 35 28 31 28 20 18 16 15 17 16 19 19 18 22 30 37 43 59 60 60 73 80 96 95 93 95 95 76 78 56 46 64 78 75 73 66 67 80 74 73 60 45 45 46 56 74 51 50
45 30 31 29 25 18 15 17 18 17 16 18 18 18 19 31 45 54 59 60 61 72 85 89 94 93 95 95 94 92 50 44 66 80 82 82 81 85 86 84 77 75 51 47 51 74 85 72 78
34 28 32 28 23 18 15 17 18 17 16 16 17 18 18 34 41 55 64 60 59 71 85 91 95 91 94 92 96 98 57 41 63 77 79 78 79 82 84 85 82 73 62 49 65 72 79 81 80
36 31 30 25 22 18 16 19 19 18 16 16 16 18 18 26 50 59 62 62 65 72 80 92 91 93 92 90 92 97 61 40 54 73 80 78 78 86 85 88 86 79 61 47 70 77 83 82 82
39 30 32 28 23 22 16 18 21 19 17 17 20 18 17 37 57 62 62 65 68 72 77 84 98 97 89 86 90 96 65 45 43 59 70 77 82 86 87 86 85 81 49 48 68 78 78 76 71
49 44 37 31 24 21 18 19 22 21 20 18 19 20 27 39 56 60 63 68 69 75 77 75 78 86 98 87 90 94 79 68 44 40 46 62 86 85 86 70 65 55 42 60 68 70 79 72 63
45 42 33 20 18 20 20 23 22 25 23 19 20 23 28 34 41 52 56 60 66 72 75 75 77 80 95 95 89 94 84 81 59 46 36 65 78 78 88 54 47 41 56 67 68 76 76 73 70
40 43 25 23 31 32 28 24 24 24 26 22 20 21 24 30 33 40 44 46 56 64 73 82 80 87 92 98 98 95 95 97 98 95 77 67 40 42 50 51 52 80 71 81 80 80 73 71 49
41 33 30 28 30 40 36 31 28 28 26 24 22 23 25 31 30 30 36 38 41 59 69 89 89 93 93 98 98 99 94 94 97 96 92 68 79 62 81 93 98 93 83 75 77 79 70 34 26
44 39 31 35 40 40 40 39 36 35 35 32 31 32 34 33 31 31 30 34 40 51 64 79 91 86 96 93 99 98 96 89 90 95 94 81 86 84 93 90 82 78 79 80 80 61 28 28 23
39 41 39 40 41 42 43 38 37 34 34 34 34 34 35 34 34 32 31 31 36 44 58 70 85 86 80 92 99 97 95 86 91 95 92 85 89 94 80 79 83 83 84 83 52 29 26 23 16
50 52 41 37 38 39 39 43 39 34 33 31 30 31 31 30 30 31 31 31 32 36 47 58 72 89 60 76 95 99 92 88 95 97 91 90 93 94 84 87 86 85 85 56 29 28 25 19 14
51 45 50 32 33 31 36 45 26 29 31 31 29 27 27 27 28 28 30 31 32 31 35 46 61 76 91 51 84 97 94 95 97 97 96 99 93 82 86 85 83 84 72 29 33 34 30 24 16
45 47 42 37 29 33 38 39 25 30 29 27 28 30 28 29 27 26 27 29 30 33 33 36 45 66 83 55 84 97 98 97 97 98 100 88 82 83 86 83 85 83 30 38 40 38 35 27 17
42 48 38 34 25 35 38 35 27 26 27 30 31 29 28 28 29 31 29 27 30 32 35 34 42 50 72 83 94 99 100 96 99 94 87 82 86 92 85 88 84 33 40 43 44 44 39 29 17
38 39 35 28 25 34 35 32 26 23 24 26 27 28 28 28 27 30 35 32 30 32 37 38 38 50 64 84 88 98 98 100 99 93 80 84 90 91 88 84 43 39 46 46 48 47 42 31 18
44 45 41 32 29 34 36 36 28 25 24 23 24 26 26 26 26 27 30 36 37 37 40 41 45 54 70 75 58 96 99 99 99 92 88 90 97 93 84 62 32 47 47 50 51 51 45 34 21
45 47 43 41 35 35 39 40 28 21 21 21 22 23 24 25 24 24 27 29 36 37 38 40 50 64 73 47 57 100 99 99 96 91 95 99 100 90 71 31 43 47 49 52 54 54 50 36 24
52 35 38 45 51 52 38 49 26 17 18 18 18 20 21 22 23 24 24 26 29 36 40 43 56 75 63 46 65 85 56 88 91 87 95 98 97 70 49 39 47 48 50 52 55 56 53 40 26
50 47 47 48 54 56 45 55 33 18 18 14 14 20 20 21 20 20 23 26 27 30 36 46 60 82 95 51 68 99 93 98 94 94 99 97 89 66 43 45 48 49 51 53 56 57 54 44 29
46 51 53 52 64 80 46 38 31 20 14 15 14 16 17 17 18 23 25 26 29 30 35 44 66 79 92 56 93 93 91 85 87 99 99 98 80 50 44 47 48 49 51 53 56 57 56 46 32
53 66 68 78 91 64 24 30 26 17 15 14 16 17 18 17 18 21 24 29 39 35 35 52 85 88 90 78 83 99 96 80 82 82 98 96 78 49 45 48 48 49 51 54 56 57 56 46 32
62 58 58 53 40 34 26 35 25 17 15 17 17 18 19 19 18 28 31 23 34 41 41 69 93 91 88 80 92 99 96 88 88 81 94 93 66 48 45 48 48 49 51 54 56 57 55 44 33
58 77 48 69 53 65 40 29 22 18 18 17 18 20 19 18 29 33 36 32 27 41 50 73 89 93 92 92 100 97 95 91 86 91 91 70 48 48 44 47 47 48 51 54 56 56 51 41 33
54 46 83 91 79 56 34 29 28 21 19 16 16 18 18 23 29 36 42 39 31 45 62 78 84 90 99 100 98 98 98 93 93 93 70 53 55 42 44 45 46 48 52 55 55 54 49 38 34
66 75 90 62 70 74 66 40 20 21 23 26 30 27 30 33 35 45 50 43 40 56 69 78 83 90 100 97 98 99 97 98 91 71 60 61 45 42 42 43 46 50 53 55 54 51 43 36 32
44 58 58 90 69 80 68 58 25 21 21 19 24 26 27 25 36 50 57 43 53 69 76 79 83 91 88 95 100 100 99 95 74 65 59 47 40 40 40 43 47 51 54 54 52 46 38 31 25

GFSSGP_850_rhum_012.txt.gz
RH
36 46 37 34 46 39 39 29 15 16 16 14 17 17 19 18 30 61 59 60 60 49 52 74 73 66 59 54 57 56 50 87 85 65 84 89 84 76 69 55 33 29 26 30 34 46 73 81 75
36 42 34 33 46 47 34 22 21 14 18 18 17 16 18 21 34 49 61 60 78 70 51 55 60 66 71 60 60 56 47 87 73 64 81 83 76 68 37 36 34 33 30 30 31 30 24 28 33
36 44 34 42 44 42 35 20 17 16 17 17 17 17 18 29 36 52 55 62 78 84 65 66 81 84 80 67 62 54 43 57 70 60 70 72 68 57 53 58 47 39 38 36 36 37 36 36 36
46 40 33 40 38 30 26 20 16 17 15 17 18 20 22 28 38 43 45 62 74 84 90 76 86 97 96 81 71 59 40 41 68 70 69 76 60 69 68 69 64 48 44 46 50 70 59 53 56
47 40 44 40 35 27 20 16 17 18 16 16 18 20 24 36 40 47 49 59 70 79 87 90 81 93 90 88 80 55 38 48 67 65 61 60 69 79 78 68 65 57 48 48 66 78 70 76 77
43 34 45 44 35 24 19 15 17 18 17 15 16 17 25 36 46 57 59 57 66 75 85 86 84 93 94 86 77 52 39 37 58 71 73 73 76 83 85 82 69 59 44 48 62 74 83 79 78
47 46 45 36 32 24 19 15 18 19 18 17 15 18 21 40 47 55 61 58 64 77 87 81 84 90 93 86 85 67 48 35 53 67 70 73 76 82 82 86 84 77 50 48 67 73 73 73 68
42 44 47 37 34 29 19 15 18 19 20 17 18 19 23 49 56 60 60 61 64 75 82 87 84 87 92 87 87 62 48 38 53 55 67 75 79 86 86 87 86 83 50 51 64 67 70 70 60
40 54 53 42 34 29 18 20 17 20 20 19 18 19 26 48 58 60 60 66 66 73 79 89 82 87 94 88 88 80 65 44 39 55 54 68 82 84 83 74 72 62 43 54 63 62 68 66 58
47 63 53 33 26 26 26 20 20 22 22 21 21 18 26 30 45 59 62 66 68 73 75 77 82 91 94 99 91 89 73 53 40 44 45 56 85 89 73 70 58 45 48 61 64 67 67 67 64
46 56 36 29 24 25 33 32 25 24 30 23 21 18 21 26 32 42 52 55 62 68 74 74 75 80 85 88 89 92 89 66 55 54 52 76 78 76 82 56 46 57 64 61 64 64 67 61 33
47 37 36 33 30 30 36 34 32 28 25 24 24 24 22 27 29 31 38 41 47 60 69 75 76 80 83 89 95 96 98 84 82 89 81 73 52 51 60 94 92 96 79 70 75 75 67 30 25
42 38 31 30 31 33 36 38 41 38 34 30 29 28 28 30 31 30 29 30 36 50 62 71 75 85 88 86 95 96 91 93 81 94 92 71 69 57 86 96 96 79 72 76 76 68 30 24 22
38 39 39 38 35 36 40 40 40 37 34 34 34 34 32 33 34 33 31 31 31 38 54 66 73 84 95 90 93 96 88 90 86 91 91 79 76 84 95 90 76 75 78 79 73 32 26 26 20
44 56 47 42 40 41 37 46 45 38 37 35 33 32 32 32 33 34 34 32 30 32 42 60 72 79 82 92 93 97 95 90 86 91 91 84 86 89 92 78 85 84 81 78 34 30 31 26 20
54 55 66 36 36 36 40 56 35 30 33 34 33 32 29 30 31 31 31 32 31 31 34 49 65 77 74 60 98 96 96 92 86 86 92 88 88 92 90 85 86 85 82 47 31 35 32 29 21
55 64 57 44 35 34 39 47 34 30 27 29 29 28 28 27 27 27 28 28 30 31 31 39 53 68 73 60 81 95 94 88 90 86 91 91 90 90 77 84 83 82 76 32 38 37 37 31 20
54 58 48 44 34 34 41 43 34 29 27 27 28 30 29 29 28 28 28 26 27 29 31 32 43 58 73 58 70 93 93 91 90 89 91 94 92 81 86 83 83 85 34 42 41 43 40 32 20
47 50 48 35 27 34 35 34 31 27 26 24 25 26 27 28 28 27 28 29 29 27 28 32 35 39 62 73 76 84 91 88 93 94 95 95 84 83 85 83 82 68 38 43 46 45 43 35 21
48 54 52 39 30 35 40 41 34 30 29 26 25 23 23 25 26 26 27 28 31 31 28 33 35 38 44 70 68 69 88 91 94 99 100 90 84 83 86 83 77 32 43 46 49 49 47 41 26
52 54 50 47 41 39 42 46 40 26 28 28 27 25 24 24 24 25 26 26 29 32 35 35 36 39 40 67 77 90 94 97 97 99 99 91 95 91 91 82 53 35 44 47 50 51 51 47 35
56 42 43 44 55 67 45 76 42 30 22 23 22 20 21 21 21 23 24 25 26 30 33 37 40 40 47 59 76 62 65 93 99 99 100 100 100 98 91 74 37 42 45 48 51 53 54 51 41
49 48 50 51 61 71 58 72 46 29 29 21 18 17 18 19 20 21 22 23 23 25 32 33 38 43 52 65 70 71 85 97 98 100 99 99 100 96 83 55 41 44 46 48 51 53 55 55 47
46 51 52 55 64 96 66 55 40 29 25 20 15 14 17 17 19 20 18 22 24 24 23 34 37 44 65 68 77 73 89 99 97 99 98 99 92 88 65 48 45 47 47 49 51 54 57 57 50
52 63 93 96 98 88 37 49 37 25 22 19 18 18 15 15 17 18 18 27 29 27 28 25 40 44 67 75 81 100 97 96 86 100 100 96 86 79 68 48 49 47 48 49 52 55 57 58 52
66 63 89 76 82 68 43 65 37 19 17 16 16 17 17 18 18 19 29 32 35 35 29 33 36 53 73 85 85 100 99 89 94 100 100 96 87 83 62 58 48 47 48 49 52 55 58 58 53
66 82 56 78 68 89 58 34 26 22 22 21 18 16 18 19 19 21 30 36 39 36 37 38 46 58 81 84 93 100 96 91 92 97 99 92 91 76 73 49 47 47 48 50 53 56 58 58 51
57 47 84 92 97 80 50 41 40 28 27 26 25 24 25 26 29 32 34 42 41 39 35 41 53 56 85 98 100 98 95 96 95 98 98 95 89 75 50 47 47 46 48 51 54 57 58 57 46
69 74 79 74 87 94 80 52 26 31 26 26 29 29 26 29 30 28 34 48 46 40 36 39 61 76 79 96 99 98 96 94 92 99 95 92 80 53 48 46 46 45 48 52 55 58 58 54 41
52 65 65 90 81 81 82 68 33 32 28 27 26 23 26 26 28 32 47 50 46 45 45 55 65 87 92 94 98 99 95 93 90 80 85 78 58 50 47 44 43 45 49 54 56 58 56 45 33

GFSSGP_850_rhum_015.txt.gz
RH
37 36 37 38 49 54 50 41 30 19 19 18 16 18 20 22 29 58 54 60 60 46 62 40 38 32 36 37 34 29 57 68 52 77 83 87 85 72 54 34 27 25 29 32 37 76 74 72 73
38 35 38 36 56 58 54 34 30 18 19 16 16 15 18 43 45 59 59 64 60 50 59 48 50 40 41 38 34 34 58 61 65 78 86 85 74 49 31 32 32 30 30 30 27 23 26 30 26
36 42 42 54 58 59 51 27 22 20 17 17 19 18 19 43 48 51 57 62 64 56 58 54 53 44 48 44 39 34 42 51 50 69 79 78 63 43 44 40 38 38 35 35 35 34 34 35 37
39 45 40 48 53 43 36 29 19 18 17 16 19 21 30 39 41 49 57 58 72 64 54 53 52 51 61 49 37 31 30 42 53 58 72 75 60 51 52 48 40 38 40 44 59 51 54 60 58
50 48 56 54 46 36 31 25 19 19 18 17 19 22 37 47 41 41 59 64 77 77 64 67 68 84 61 52 30 23 27 44 58 62 72 64 64 68 59 50 42 38 40 49 62 61 72 69 69
49 46 64 65 52 35 29 21 20 20 18 17 18 17 26 44 34 45 59 66 77 81 86 81 76 89 75 60 28 22 24 45 59 54 58 62 80 84 79 59 44 38 39 48 58 73 74 73 67
54 61 62 49 45 37 30 21 22 22 19 19 17 18 42 50 55 52 56 66 73 81 87 91 82 84 88 78 53 26 24 31 57 63 68 72 76 80 82 80 58 43 37 47 58 64 65 66 60
47 60 58 54 47 43 27 21 18 20 22 18 18 22 56 56 59 60 57 64 68 78 84 86 79 80 88 86 78 42 29 28 38 55 67 70 73 83 84 83 77 69 40 47 57 58 61 61 56
46 69 74 59 50 39 25 30 22 20 20 19 19 20 41 52 61 62 60 61 69 76 78 84 79 80 86 86 90 77 49 30 33 48 67 74 77 82 85 85 80 68 42 50 60 59 64 65 62
53 73 65 46 40 36 29 34 32 23 22 22 20 21 41 32 50 61 63 64 68 71 79 84 88 80 87 92 92 84 64 42 31 40 51 74 81 78 80 74 69 56 48 60 65 64 67 65 55
50 69 51 47 37 33 36 36 34 33 29 23 22 21 27 26 29 46 62 65 66 74 78 82 88 86 82 85 94 88 80 60 40 35 40 61 74 67 71 65 57 48 59 67 63 62 66 58 31
59 46 44 41 36 36 36 37 41 37 33 32 27 26 28 28 30 32 56 59 63 65 72 76 78 78 81 84 88 90 88 82 59 43 41 54 64 75 79 73 73 76 82 69 68 70 68 33 24
49 45 40 39 35 37 34 39 42 40 38 32 31 29 31 30 31 35 35 39 48 63 65 72 75 72 75 81 85 90 91 83 64 55 71 59 70 60 72 89 97 88 83 68 75 75 38 25 25
40 42 44 43 44 43 43 44 40 40 36 34 35 32 32 34 34 32 31 32 33 42 60 67 75 76 78 85 87 85 94 90 87 80 88 82 50 58 78 94 97 86 70 77 78 54 27 29 23
47 56 55 51 47 48 40 51 52 40 39 40 38 36 33 33 34 34 33 31 32 33 44 61 68 72 78 83 86 86 95 91 90 86 91 87 66 65 79 91 91 71 78 79 73 30 32 27 24
56 57 78 53 45 46 45 61 45 36 39 40 38 37 34 34 32 32 32 34 32 33 36 46 58 68 73 74 81 92 96 93 84 89 88 87 78 83 86 88 81 81 84 82 40 34 32 32 25
64 81 77 62 39 43 50 54 42 37 35 36 34 34 33 32 31 30 31 31 33 33 32 37 44 50 61 72 76 80 97 91 86 86 86 84 83 87 89 90 81 85 84 73 33 36 38 32 23
70 77 57 55 39 38 43 51 43 33 31 31 30 30 32 31 29 28 28 28 29 31 30 31 38 49 52 57 66 73 95 87 89 87 86 85 87 90 90 89 83 82 83 49 38 40 38 33 22
59 55 60 49 37 38 41 44 38 30 29 29 28 26 26 26 29 30 30 28 28 27 27 28 37 48 57 59 70 77 85 89 90 88 89 86 88 92 92 81 85 84 81 34 40 42 41 36 25
57 62 62 49 38 42 47 45 38 35 33 31 30 29 27 24 24 26 28 28 28 29 28 26 27 41 56 57 55 61 67 90 89 91 92 90 90 93 93 84 82 78 64 36 42 45 44 42 33
56 59 59 56 47 45 51 54 45 36 34 31 31 29 28 25 24 23 23 25 26 27 29 30 29 34 47 60 60 64 74 77 88 90 91 93 91 96 88 86 84 72 41 41 45 46 47 46 42
66 50 53 57 62 71 54 83 62 39 34 27 30 29 27 25 24 23 22 23 24 25 26 29 32 36 38 44 53 53 59 69 80 86 90 91 98 98 91 92 82 59 37 43 46 46 48 48 48
56 52 56 57 68 73 70 77 67 42 38 29 24 18 17 21 23 21 20 21 22 23 25 29 30 35 42 45 48 50 51 64 64 69 88 91 97 98 98 93 75 43 42 45 47 47 49 51 52
48 55 56 61 74 97 76 67 58 36 30 23 20 16 15 16 18 21 20 22 22 23 23 24 28 33 35 43 46 49 51 54 68 75 92 89 97 97 97 89 70 43 44 48 47 48 50 53 55
59 70 94 92 95 90 56 70 50 30 26 23 23 20 16 16 16 17 18 18 24 28 28 27 26 26 36 34 47 49 53 53 62 72 91 91 97 98 96 78 72 45 47 49 48 48 50 54 57
71 66 88 86 96 81 55 67 46 30 24 20 18 18 18 17 16 18 22 21 29 31 30 29 29 29 28 49 52 58 62 71 76 88 97 95 98 98 91 78 56 48 48 51 49 49 52 56 58
70 83 61 82 75 94 74 52 33 26 24 25 25 22 21 18 18 19 28 35 36 36 31 30 34 34 32 40 59 61 74 73 85 100 98 99 99 96 83 67 54 50 60 50 49 50 54 57 59
62 57 86 93 100 94 70 58 48 34 29 30 36 31 28 28 30 31 30 30 34 32 28 31 35 39 37 41 59 68 70 73 91 100 99 98 99 86 75 65 53 74 51 50 50 52 55 58 60
72 84 77 78 93 98 99 70 38 37 33 33 31 26 28 26 25 24 26 26 29 25 24 26 35 42 47 52 60 76 86 80 97 97 98 97 98 78 71 58 73 52 50 49 51 54 57 60 58
61 71 75 92 81 92 94 69 35 33 34 32 33 31 29 32 39 33 28 30 26 30 34 40 38 52 51 59 68 74 87 93 97 92 95 98 92 74 68 76 52 49 47 49 52 55 59 60 48

GFSSGP_850_rhum_018.txt.gz
RH
39 36 39 37 45 56 55 48 35 31 21 18 17 18 20 30 30 46 49 56 63 57 55 53 29 30 26 27 21 18 23 26 36 65 75 79 77 70 52 28 22 23 27 29 82 81 75 74 74
41 36 40 39 58 62 57 39 33 32 20 18 16 18 22 48 47 46 53 58 61 48 47 49 36 35 30 27 19 19 22 30 87 84 88 84 72 28 22 23 24 25 25 30 55 68 62 44 26
40 36 40 54 62 63 54 34 28 20 19 18 19 19 28 44 43 36 50 50 60 50 44 45 48 39 37 28 19 18 21 31 54 77 84 79 48 26 27 28 28 28 29 30 29 30 32 35 39
38 45 46 56 64 49 42 32 28 23 18 16 19 22 36 43 44 43 44 48 59 56 45 49 54 46 44 31 22 18 21 28 33 60 81 64 33 38 37 36 36 37 39 46 43 46 52 54 55
49 50 61 59 55 45 36 30 27 26 19 17 19 22 36 40 45 41 43 44 58 52 48 53 61 57 49 38 27 19 21 31 40 60 63 72 40 45 43 40 40 44 56 73 58 66 65 68 66
55 53 74 66 56 40 36 27 25 22 20 18 19 19 39 44 42 37 50 53 64 57 56 60 68 67 62 49 31 21 22 28 38 58 60 53 67 66 53 46 41 41 52 59 70 69 66 62 56
61 65 71 60 55 47 37 26 25 24 22 19 17 23 52 54 55 46 58 68 74 75 69 72 68 66 63 53 36 27 27 29 41 50 52 67 77 80 76 60 48 42 49 59 62 58 60 60 52
50 64 65 56 50 48 32 25 22 23 24 18 18 42 59 49 57 65 66 69 79 74 73 78 85 83 68 69 51 35 34 38 45 59 65 73 78 83 86 79 66 52 44 52 56 57 58 58 54
53 76 80 62 56 45 32 34 26 23 22 20 20 25 26 48 60 61 63 71 78 75 62 66 83 78 70 73 70 59 38 39 46 61 69 72 78 89 86 81 80 70 43 53 56 58 63 63 61
58 83 71 52 45 42 34 35 33 28 25 22 22 28 46 53 59 61 60 63 72 72 74 57 70 77 77 82 78 72 49 34 43 52 61 70 72 84 85 84 76 62 45 55 57 62 67 65 57
58 74 54 50 45 43 39 37 38 34 31 27 25 39 48 58 63 56 62 60 59 65 73 70 68 77 82 81 84 78 62 46 35 46 54 62 64 70 78 76 68 55 44 52 60 60 64 64 37
61 52 46 45 41 43 39 35 42 39 31 29 33 32 44 58 62 62 60 62 62 64 66 71 72 75 86 82 82 79 79 63 42 33 42 45 50 55 62 65 58 49 50 56 60 66 69 51 28
55 51 45 42 41 44 41 41 40 42 38 31 34 37 35 33 30 45 62 63 66 64 64 68 70 73 78 84 87 82 88 84 74 46 36 37 43 49 57 68 64 62 67 66 64 71 69 34 26
47 44 44 42 44 46 47 46 42 40 34 33 33 32 34 33 33 32 38 52 62 66 65 63 68 73 76 74 78 85 87 80 80 63 47 41 43 53 63 72 81 72 75 72 73 76 50 28 28
50 54 54 50 48 49 44 50 58 40 36 36 33 29 26 32 32 33 32 33 34 34 43 67 64 64 66 73 76 82 85 89 86 82 70 72 68 62 53 69 77 83 90 74 79 72 33 31 28
56 60 71 51 46 44 47 60 45 37 40 41 38 36 35 25 28 32 32 32 32 34 35 48 66 64 68 72 76 82 84 84 89 85 81 78 86 64 59 70 82 93 82 81 80 54 33 32 30
69 79 76 67 48 47 56 60 45 37 41 39 36 35 33 31 30 28 30 32 30 31 33 34 61 60 62 64 66 70 79 81 90 84 86 90 90 79 67 72 90 92 80 84 78 35 35 35 28
73 84 69 66 44 45 49 61 50 41 39 37 34 31 29 29 32 30 30 30 30 30 31 32 34 53 58 63 58 62 79 82 89 83 86 90 90 87 85 90 89 90 83 83 67 36 39 35 25
57 63 66 56 44 43 46 46 42 34 33 32 30 27 25 26 28 30 30 30 29 30 30 29 30 32 54 62 59 62 74 80 80 85 86 88 89 87 86 91 92 91 83 82 50 39 40 36 26
68 70 72 57 44 43 50 50 41 38 35 34 32 29 26 22 22 24 26 27 29 30 29 28 28 28 34 52 56 58 56 67 70 84 87 88 88 86 88 90 91 88 83 80 40 41 42 40 33
64 63 61 60 53 46 55 41 41 39 34 32 31 29 30 29 27 22 23 25 24 27 28 28 29 32 28 35 53 62 61 66 73 79 84 91 87 86 87 89 93 86 84 70 38 42 43 43 40
66 52 53 57 61 74 57 79 64 44 38 33 27 28 28 27 27 25 22 22 22 22 22 24 27 27 34 35 42 56 61 62 64 71 81 87 86 88 86 87 94 89 82 51 40 43 44 46 46
59 51 54 57 69 71 70 80 64 50 44 36 31 23 20 19 19 20 20 20 20 21 21 21 23 26 30 37 43 49 57 59 57 57 68 68 79 85 87 87 98 92 79 46 44 45 46 47 49
54 55 66 72 76 92 70 73 61 40 35 24 22 20 16 16 16 18 21 21 21 21 22 22 24 24 27 36 42 48 58 58 60 60 65 70 74 84 85 95 98 92 73 44 45 47 48 48 50
57 67 85 82 96 82 64 78 69 40 33 28 30 23 19 18 16 17 18 18 18 24 26 25 25 25 25 29 39 47 55 56 54 54 58 61 63 84 84 87 97 85 61 46 48 49 50 50 52
68 64 81 65 96 86 62 76 51 36 30 25 23 22 21 19 18 17 17 19 26 29 27 28 27 26 25 27 28 44 47 50 58 55 51 56 56 69 92 82 92 81 54 51 50 51 51 51 54
72 86 62 82 78 94 76 60 38 31 25 31 32 28 28 27 24 20 20 31 37 38 36 32 29 29 29 29 34 38 49 54 51 54 56 62 66 85 94 86 87 63 60 52 51 52 57 54 56
60 61 86 92 91 90 75 68 49 35 29 36 34 30 28 30 29 29 31 32 31 29 28 25 29 28 26 28 33 39 44 57 59 61 61 66 89 99 94 91 74 63 55 52 54 65 67 55 57
75 86 80 79 90 98 95 72 45 34 31 38 37 36 39 42 39 37 30 29 32 28 27 25 24 21 19 23 35 44 49 61 62 71 75 83 90 98 92 92 73 60 54 64 74 64 53 56 58
65 74 76 90 79 95 92 79 40 40 37 39 39 43 56 57 46 40 32 32 36 34 30 29 30 29 30 33 38 42 55 73 68 72 85 92 90 99 96 90 68 58 77 76 64 52 54 56 59

GFSSGP_850_rhum_021.txt.gz
RH
41 37 36 40 46 60 58 47 39 33 22 20 19 20 22 25 32 43 53 51 51 52 65 62 41 40 37 28 30 31 32 56 85 81 81 75 65 66 53 30 21 22 32 99 95 82 81 77 76
43 39 38 40 57 62 53 43 36 30 22 19 19 20 34 46 48 45 53 50 56 53 45 54 38 33 29 30 27 27 29 42 62 68 84 75 66 22 20 20 21 25 35 90 78 76 66 56 31
43 39 41 55 66 63 49 39 27 25 20 21 21 22 31 42 44 41 42 45 61 56 43 35 38 36 32 28 26 31 29 60 93 89 86 74 37 21 23 23 24 25 26 32 43 36 29 33 37
41 42 43 60 64 54 42 32 32 30 21 20 21 26 40 43 44 44 45 45 58 57 40 36 36 42 36 28 24 27 29 62 95 88 77 62 24 25 26 27 29 31 35 36 38 43 50 52 54
50 52 67 64 58 51 41 34 30 30 26 20 21 26 33 41 42 46 44 46 54 56 48 43 38 46 44 31 24 27 31 33 50 70 70 36 29 30 31 34 37 44 57 65 62 64 67 69 63
55 56 75 66 57 45 38 30 27 26 25 22 22 26 36 36 37 38 44 51 64 56 54 50 49 53 50 40 26 25 33 33 35 49 48 33 36 34 33 35 38 48 56 68 73 79 70 62 56
67 74 76 56 54 45 39 29 29 26 25 23 20 29 46 38 37 37 49 61 72 63 52 57 51 56 56 43 29 24 35 40 39 45 54 52 67 52 39 37 38 45 57 85 93 66 64 58 52
54 62 66 63 55 42 33 28 25 25 25 22 20 56 58 34 42 46 60 70 77 79 66 51 50 55 54 44 33 25 34 43 46 47 51 67 76 85 72 51 44 41 63 62 60 59 61 59 54
55 77 83 57 52 43 35 35 30 28 26 23 22 26 28 43 49 56 67 80 83 79 77 72 73 74 64 54 39 29 31 43 50 52 56 68 73 84 83 76 64 57 44 55 58 60 61 63 62
62 86 73 55 49 43 39 39 38 33 30 24 23 24 29 58 56 50 55 61 77 73 71 75 81 85 80 68 64 44 33 40 50 57 64 67 70 78 84 85 82 76 50 51 57 57 63 63 61
63 75 58 53 47 46 41 41 36 38 39 28 26 49 60 65 64 57 48 41 35 45 68 62 68 81 83 75 66 64 47 35 41 54 59 67 71 82 85 88 87 78 56 52 58 58 61 62 52
63 57 51 49 44 45 43 39 41 38 35 32 35 37 62 65 69 66 59 54 54 50 50 56 63 68 78 82 78 70 70 50 36 43 56 63 67 74 78 81 79 71 56 52 59 61 65 66 41
60 54 50 47 43 47 45 44 44 41 33 31 36 36 35 45 64 68 69 64 60 57 58 65 65 62 71 79 82 81 78 75 54 37 48 57 61 63 70 75 69 62 52 59 65 65 69 64 33
52 51 47 44 44 44 48 49 44 42 35 32 33 34 33 34 34 33 34 66 67 66 60 60 62 65 69 73 75 81 82 79 80 66 42 43 50 56 69 71 72 62 69 70 65 67 72 52 30
52 57 54 53 49 52 47 54 62 42 37 37 35 34 32 29 30 32 33 36 56 69 67 69 63 64 71 75 76 82 79 84 75 73 76 52 43 49 66 74 74 77 71 75 68 74 73 37 32
62 62 72 52 50 47 46 62 46 39 40 40 36 33 29 29 28 28 27 33 33 35 38 40 58 66 66 68 69 76 82 82 87 84 72 58 59 64 69 73 74 80 80 87 76 79 67 34 34
68 83 76 64 49 50 58 65 46 40 41 42 37 33 32 33 30 29 27 26 30 32 33 34 36 50 66 66 68 69 71 81 84 88 80 77 77 83 88 65 72 84 88 93 81 82 54 36 35
78 79 76 70 47 50 53 61 51 44 45 44 42 39 35 33 31 30 30 31 31 28 32 33 33 33 44 65 67 69 71 80 85 84 78 83 81 87 90 76 75 84 94 90 84 81 41 39 33
64 70 71 60 49 47 51 50 43 36 36 37 33 32 34 31 28 29 29 30 32 31 30 28 32 32 33 54 66 69 69 68 78 83 79 83 86 93 94 86 84 90 92 91 85 78 38 40 32
68 74 80 60 50 46 54 55 43 38 35 32 31 29 28 26 23 23 26 28 28 29 30 30 30 32 32 34 47 60 63 64 66 70 71 79 85 87 89 85 90 89 89 92 83 74 40 41 34
72 76 66 64 56 49 59 52 41 35 35 31 30 30 30 30 26 21 20 19 22 25 27 26 28 29 29 30 34 59 63 66 64 68 80 76 83 88 86 84 86 85 89 90 82 68 40 43 39
72 53 55 58 62 74 58 75 62 42 41 40 32 28 24 26 25 23 22 25 23 20 24 25 24 24 26 28 36 42 51 60 63 60 64 68 74 79 85 83 85 84 88 92 83 58 41 44 43
63 52 57 60 72 69 69 78 64 45 40 33 31 26 23 17 17 16 16 18 21 22 22 22 23 24 24 26 26 38 48 56 58 61 63 66 68 66 75 82 87 89 92 96 86 55 44 45 45
56 58 67 77 74 90 66 72 60 40 33 33 30 23 20 18 18 16 16 20 20 20 20 20 21 22 22 24 27 28 45 52 55 64 62 63 65 64 67 78 84 86 89 94 87 52 47 46 47
58 67 81 73 91 78 66 80 61 44 38 32 35 25 21 20 19 18 18 17 18 18 18 21 22 22 22 24 26 29 38 48 50 55 65 62 61 64 66 68 75 88 87 94 84 50 48 49 49
64 63 77 57 82 84 67 80 47 39 33 27 30 31 30 30 32 31 29 21 19 23 22 23 24 27 29 29 30 30 29 36 47 56 59 66 62 58 58 65 82 94 92 96 77 53 51 50 50
74 84 62 82 82 92 75 60 40 32 32 34 32 28 33 35 35 38 41 38 37 42 39 35 34 31 28 28 28 28 30 33 43 49 57 62 65 61 60 64 79 95 98 93 77 61 54 52 52
62 64 84 91 65 82 68 74 53 33 32 36 37 38 37 40 48 47 41 40 41 35 37 30 27 29 29 28 25 25 24 28 35 45 57 56 59 63 60 67 89 96 95 89 79 65 60 54 59
77 87 84 79 87 89 96 65 52 38 32 38 44 39 40 48 54 59 58 53 43 36 30 34 29 28 26 26 26 26 25 27 35 38 57 65 66 67 75 87 92 94 86 77 68 66 64 69 78
66 74 77 84 78 96 94 82 45 45 39 38 41 45 52 59 64 63 58 54 51 45 50 48 46 40 34 33 32 28 26 36 46 51 53 72 81 79 85 94 96 85 71 67 69 61 77 89 84

GFSSGP_850_rhum_024.txt.gz
RH
42 40 35 36 49 62 57 46 41 36 26 22 21 23 24 24 38 46 50 58 48 36 37 55 36 34 44 50 46 82 97 92 82 88 88 86 74 60 55 36 23 24 96 84 87 87 77 78 76
43 40 37 40 56 58 49 45 39 32 24 23 20 34 34 43 49 45 54 45 51 45 36 49 32 25 28 33 37 54 96 92 88 88 80 64 55 21 18 19 23 42 100 92 80 81 75 57 30
44 41 40 55 67 60 45 41 34 31 26 22 22 23 30 41 43 42 44 45 51 52 40 46 29 27 24 25 26 29 84 75 88 79 77 63 20 18 19 20 21 27 52 71 72 57 32 32 35
45 42 43 62 65 52 41 32 32 33 24 21 23 34 43 42 44 41 45 46 50 57 46 39 30 29 27 24 22 28 34 78 94 92 75 46 20 21 22 23 24 25 27 28 30 36 46 50 51
44 49 69 67 59 51 46 38 32 32 27 23 22 26 37 43 43 43 44 49 56 55 55 45 37 34 32 27 22 29 84 97 93 84 66 27 24 24 25 28 32 36 42 48 52 58 63 62 60
58 54 72 71 59 45 41 33 29 28 27 25 22 29 34 39 41 38 44 52 63 56 52 49 41 38 36 26 22 27 37 83 92 70 52 25 30 29 30 34 42 51 67 68 70 81 67 55 51
68 77 73 56 50 43 38 29 32 29 27 25 21 30 33 33 36 40 48 54 62 65 51 50 41 39 43 36 24 22 30 40 70 79 44 33 35 34 34 36 43 50 73 80 85 76 62 57 50
56 67 72 65 54 42 33 28 26 26 27 24 22 33 36 30 32 45 58 61 71 66 60 51 43 37 37 37 30 22 25 33 51 78 63 53 63 53 42 39 39 50 87 86 68 65 59 57 54
58 79 82 55 55 41 36 36 33 32 31 26 22 23 28 34 41 47 62 71 77 74 69 57 48 42 44 42 36 24 22 33 47 62 80 67 77 91 77 64 49 46 67 61 61 60 60 60 59
65 83 74 53 46 42 42 40 37 36 37 29 23 36 31 43 48 44 47 55 73 74 75 68 60 65 68 62 50 32 24 31 40 52 56 64 77 82 86 82 71 71 50 53 56 60 64 63 60
66 76 59 54 46 46 45 46 38 38 39 32 30 40 67 63 56 55 51 47 38 60 68 69 73 76 78 73 67 57 38 28 34 44 55 65 72 76 88 90 87 86 66 50 55 61 63 64 60
67 60 54 49 49 49 47 42 43 40 36 34 33 34 49 75 70 68 58 54 50 48 59 68 73 76 81 79 75 70 62 46 30 33 46 56 67 73 87 89 90 88 72 53 56 59 60 64 60
64 57 54 50 48 48 47 47 47 42 36 34 34 33 35 38 69 73 70 67 68 60 57 56 66 69 78 82 81 80 76 70 58 36 35 44 54 66 76 84 87 83 74 57 58 64 64 68 58
57 53 51 48 47 46 49 49 46 43 38 36 35 34 32 31 34 39 48 60 64 62 53 55 63 66 73 78 82 80 71 78 76 70 43 38 47 54 64 74 78 72 66 60 70 67 67 71 52
56 57 56 55 50 50 49 59 65 43 38 37 36 36 35 33 30 30 32 34 37 62 68 58 58 62 66 74 77 79 76 78 79 77 77 58 44 50 59 70 73 70 63 71 74 68 72 73 43
67 63 75 54 56 50 48 60 46 39 40 40 37 32 31 29 29 29 26 27 29 35 60 70 66 66 64 66 66 73 73 74 78 78 82 84 81 55 50 59 77 74 73 73 82 72 76 72 39
68 88 80 62 51 50 60 68 49 44 44 48 42 37 34 33 30 29 26 26 26 26 33 37 44 53 51 66 64 61 62 67 71 80 85 88 84 72 53 57 70 76 76 77 86 78 81 70 37
84 76 76 72 49 55 59 61 46 36 40 47 39 38 37 37 33 28 30 31 31 30 28 30 36 35 35 36 57 67 66 66 68 78 85 91 90 78 73 80 83 70 73 86 91 84 84 61 38
67 72 72 64 52 53 59 56 48 39 38 37 33 30 29 31 30 31 31 29 29 29 32 30 28 34 35 34 35 53 67 64 69 71 78 82 92 88 87 88 87 74 78 84 93 86 84 58 39
69 77 78 67 51 49 57 58 47 40 40 34 32 30 29 29 28 27 25 24 24 25 28 31 32 31 33 34 33 38 47 58 58 66 64 64 78 86 84 85 90 84 83 87 87 90 84 60 40
74 77 74 70 57 52 63 55 45 35 34 32 29 29 28 28 26 26 26 24 21 21 20 24 28 29 31 34 33 36 55 63 63 68 67 62 65 88 88 71 84 82 87 84 86 91 84 60 40
76 57 57 58 63 78 60 75 57 45 47 38 29 26 27 26 23 19 18 16 18 23 25 21 22 26 26 30 33 35 36 43 48 54 58 60 59 66 86 79 77 82 86 81 82 91 86 64 42
65 54 59 63 72 66 64 76 57 43 35 28 31 28 24 22 21 20 19 19 22 22 22 23 22 24 25 24 25 25 29 33 50 55 61 63 62 60 67 77 74 80 82 84 83 87 88 75 44
59 60 67 74 74 84 64 70 50 37 34 34 33 28 33 32 30 28 25 22 19 19 21 20 20 20 22 23 24 24 25 26 33 48 52 58 64 63 64 68 69 76 85 83 85 92 94 74 46
59 66 84 66 84 74 70 76 56 46 44 36 40 33 34 33 32 32 33 33 30 28 21 26 23 22 22 23 23 24 25 28 34 38 47 54 60 66 65 65 65 68 78 87 92 92 93 82 48
65 60 77 50 74 74 71 80 46 40 34 32 35 34 33 33 34 36 40 38 35 34 38 37 37 37 36 32 30 29 27 29 39 54 53 53 54 56 66 66 64 66 72 90 96 97 92 75 63
73 84 63 85 84 88 67 56 36 34 39 37 37 36 41 46 46 49 54 50 44 41 35 36 40 37 34 32 31 32 33 33 36 37 41 51 53 60 64 68 72 67 73 94 97 93 90 77 55
62 64 81 89 63 69 60 67 54 35 35 38 44 43 44 50 56 59 62 58 57 57 48 38 35 34 29 28 28 27 28 29 30 32 38 46 52 57 60 68 69 70 86 99 96 92 83 65 65
74 86 83 77 86 82 81 52 50 42 36 40 49 43 47 57 65 65 63 60 57 52 53 44 35 38 33 31 32 31 30 30 26 25 28 38 56 74 66 66 76 85 92 98 91 90 76 69 73
66 74 75 82 76 94 94 76 46 47 43 42 43 47 57 69 69 74 73 71 65 63 63 61 58 54 50 42 35 33 32 31 29 27 27 33 64 82 92 98 97 100 98 96 90 77 77 77 72

GFSSGP_850_rhum_027.txt.gz
RH
40 40 36 34 39 45 48 38 39 36 29 24 23 25 26 27 38 37 45 53 42 40 41 76 83 92 75 66 48 78 87 90 85 80 85 79 78 70 59 53 34 37 94 95 97 96 76 75 74
42 41 37 38 45 44 37 40 38 34 28 27 22 35 35 40 47 43 53 54 48 39 40 34 35 28 34 40 45 92 98 95 86 87 85 72 59 39 21 17 20 78 84 85 67 73 74 53 27
43 42 38 50 54 46 37 35 34 32 26 24 24 25 31 47 48 46 45 42 48 40 35 34 25 28 29 30 36 92 98 94 96 90 69 58 19 17 18 20 24 44 71 62 57 51 30 30 30
44 43 43 50 55 49 33 32 34 32 26 22 23 28 44 48 48 44 47 47 46 47 41 34 23 26 25 23 27 42 93 96 84 79 66 27 20 20 20 21 21 34 48 43 32 33 41 44 44
46 44 58 61 56 47 43 39 34 32 28 24 24 24 35 48 47 44 46 49 50 51 48 35 26 28 27 22 29 31 63 96 95 89 63 22 24 25 25 26 28 29 32 37 48 55 58 60 56
52 49 62 61 54 44 41 35 34 29 27 24 23 26 35 46 46 43 49 51 60 56 52 39 36 34 28 20 22 25 67 98 97 84 58 26 27 30 34 39 43 50 63 62 74 82 62 53 49
62 61 59 58 52 45 36 31 32 29 27 25 23 24 28 41 44 41 50 56 62 66 60 49 41 36 33 25 21 24 57 90 92 86 51 30 32 32 36 44 56 73 76 84 87 68 58 50 46
54 55 66 56 47 45 33 29 27 27 27 25 23 26 27 41 41 44 52 58 64 67 62 56 45 40 37 30 21 20 28 39 84 98 59 36 38 37 36 42 54 69 89 87 79 61 57 53 52
57 66 67 57 51 40 36 34 34 32 32 27 24 24 32 35 42 48 50 56 66 68 65 61 53 45 43 42 32 24 24 31 34 72 91 58 59 52 46 42 43 61 91 74 62 58 57 60 59
63 72 65 47 43 41 41 39 37 36 37 30 28 41 32 37 51 46 46 41 49 61 66 65 59 51 49 50 42 37 28 29 32 39 75 70 76 81 76 68 53 49 49 54 56 58 58 60 60
67 66 57 53 42 42 45 46 40 39 38 33 32 43 61 60 78 65 63 62 53 56 64 68 63 57 66 70 64 52 33 27 33 37 42 54 68 78 90 85 75 76 64 47 51 55 58 59 60
68 61 54 50 50 50 51 45 44 41 35 34 35 34 36 69 83 78 72 68 68 63 64 73 73 71 74 80 77 71 59 40 32 37 44 49 58 70 76 85 85 81 75 62 50 54 57 60 63
63 61 54 50 50 50 47 47 44 42 36 34 35 34 33 37 62 74 75 79 78 64 62 67 72 75 78 79 77 79 75 67 54 38 42 49 55 64 67 78 84 84 84 68 53 51 59 62 65
59 54 53 51 50 48 52 50 48 41 34 34 36 34 34 33 33 40 62 71 70 67 62 65 69 75 78 76 75 72 68 76 75 69 54 40 49 58 66 70 81 84 83 76 58 57 63 63 67
56 63 56 54 50 49 48 53 62 41 39 36 33 34 36 36 33 31 33 36 39 43 54 65 67 64 70 72 72 72 66 68 73 74 82 72 46 51 62 68 72 76 79 69 58 66 65 67 69
66 60 73 55 57 49 42 46 48 41 44 44 40 37 36 32 30 31 30 30 29 30 33 37 60 68 62 57 62 65 65 64 68 73 79 85 79 58 54 60 68 73 70 69 71 73 69 71 72
71 83 78 60 57 54 57 66 49 46 44 42 39 36 38 36 32 26 25 28 27 27 27 29 36 60 68 60 58 61 62 62 66 67 74 81 85 87 78 64 65 71 73 75 81 79 78 76 74
85 80 77 67 53 60 63 65 50 40 39 38 35 37 39 36 34 32 30 28 27 29 30 29 28 37 51 62 66 59 61 64 62 63 63 69 76 86 90 85 64 64 78 84 86 84 87 80 76
68 72 72 66 55 55 60 59 49 43 42 40 36 33 31 32 31 31 31 30 31 32 30 30 30 30 34 36 43 45 40 46 61 59 61 62 66 78 85 85 71 65 77 82 83 87 92 83 75
67 73 75 65 52 50 56 54 44 40 43 40 38 37 34 31 28 26 26 25 24 26 25 25 28 32 32 33 36 36 37 37 40 51 54 60 61 62 68 80 82 83 88 82 85 90 89 86 71
76 76 77 69 56 53 59 54 44 36 36 30 29 28 28 29 26 21 20 22 23 23 22 22 23 28 32 32 34 37 40 46 43 42 46 52 60 61 62 67 70 87 90 81 79 83 85 88 79
82 63 63 59 64 72 59 64 48 44 33 30 31 30 26 24 26 26 24 21 22 24 24 24 24 24 26 28 30 35 36 41 39 37 39 45 58 65 64 64 66 66 82 82 80 82 82 88 86
69 56 61 63 69 62 61 60 41 37 33 31 35 41 40 38 38 37 35 33 28 20 21 22 24 25 25 28 27 28 30 31 32 36 43 52 53 61 63 62 63 64 73 82 82 78 75 86 86
58 58 65 69 68 72 61 60 37 34 35 38 36 38 38 39 37 36 35 33 31 29 25 23 23 24 24 26 27 28 27 26 27 30 31 33 44 54 65 67 64 67 66 73 79 84 78 81 89
57 70 84 65 78 69 67 72 45 40 41 38 36 39 44 46 45 46 45 41 37 33 31 31 26 28 28 26 26 26 26 27 30 31 40 46 42 45 50 62 66 67 67 69 76 90 89 87 94
66 64 78 55 58 57 71 74 39 42 39 35 37 43 47 50 54 58 57 56 53 48 41 38 33 37 38 35 34 34 31 33 34 30 34 46 55 66 61 56 60 69 70 69 71 94 96 92 95
70 80 58 84 84 78 56 50 35 36 39 38 39 41 47 52 62 61 58 60 62 56 50 49 44 36 38 36 33 32 32 35 37 40 45 56 58 58 64 62 66 67 68 71 72 89 100 94 95
61 63 77 83 68 55 49 56 39 36 36 40 42 45 50 58 65 62 63 65 66 66 57 53 51 45 39 40 35 33 31 30 28 28 29 38 49 56 65 64 65 73 79 81 87 100 100 96 92
72 81 78 73 77 65 55 40 44 42 36 40 42 43 50 68 68 69 70 70 76 77 71 67 63 58 52 56 54 44 38 36 33 29 26 25 26 31 54 74 86 86 96 99 100 99 100 94 82
65 73 67 76 75 88 82 54 41 45 45 42 42 45 63 71 70 72 73 78 78 81 79 75 70 65 63 60 56 52 48 41 36 33 30 28 24 24 38 76 96 100 100 100 100 100 98 87 79

GFSSGP_850_rhum_030.txt.gz
RH
40 38 36 35 29 25 24 21 21 26 24 20 22 20 19 21 21 26 46 58 66 80 93 86 100 98 100 98 87 86 86 90 83 82 81 77 80 81 67 55 38 74 95 96 98 88 67 64 58
44 41 36 34 30 28 20 19 22 23 23 24 23 23 28 24 47 59 64 54 58 90 93 93 82 99 94 74 86 94 88 92 81 81 81 72 62 50 31 23 37 89 95 92 90 80 56 36 25
46 42 36 33 32 30 22 20 18 23 23 22 20 24 26 38 55 64 59 51 85 92 90 86 43 54 41 42 47 98 92 92 90 86 74 55 26 17 18 24 55 73 82 75 68 48 27 28 30
51 43 39 37 36 27 21 22 22 22 22 21 21 20 38 47 61 68 45 54 87 90 89 42 27 37 39 45 75 97 93 96 96 80 59 23 17 17 18 22 38 57 63 52 36 28 36 41 44
52 40 38 40 34 27 24 22 26 23 21 19 22 20 29 51 48 48 53 63 90 90 92 58 30 33 34 29 38 96 98 97 90 70 46 18 19 20 21 22 29 36 34 31 40 46 51 51 48
45 39 42 43 34 28 27 27 25 22 20 18 20 20 29 43 51 53 58 90 94 94 95 94 40 37 36 34 34 60 97 95 93 79 42 21 22 24 26 28 32 36 44 56 79 66 54 48 46
43 42 41 35 34 31 29 27 26 20 19 16 22 18 28 59 45 46 64 93 73 96 96 94 66 40 40 30 35 38 72 99 98 90 49 25 26 28 33 41 53 76 64 86 88 62 54 47 43
46 39 40 36 38 34 26 27 24 21 17 24 23 18 23 65 47 48 54 93 61 91 86 94 92 46 45 43 49 62 94 99 98 80 58 34 32 33 37 47 56 69 79 87 82 56 53 49 50
55 43 43 41 38 29 27 24 28 29 22 26 24 28 45 38 50 57 56 56 62 67 76 92 90 82 86 94 49 55 64 91 98 95 55 39 73 44 40 48 52 76 80 76 55 52 53 55 55
39 42 34 28 30 28 26 23 26 27 27 25 28 37 34 30 53 65 68 66 68 68 63 60 67 86 86 92 75 48 57 55 88 97 83 84 96 96 91 47 48 60 74 59 53 51 52 56 56
40 36 29 36 32 30 28 29 32 25 27 23 25 36 62 45 69 92 80 80 72 72 65 60 62 82 81 85 95 94 92 86 92 95 98 96 100 96 89 94 58 56 56 51 54 53 54 56 57
51 36 33 38 44 41 34 32 31 30 22 30 36 37 39 78 87 91 83 69 61 67 68 68 68 64 58 72 72 90 87 74 80 83 95 98 98 100 99 92 97 94 79 67 54 55 54 55 59
49 47 43 43 50 47 44 38 31 34 34 36 38 34 36 38 60 81 89 85 61 62 66 66 70 72 69 68 80 80 80 70 58 80 92 94 96 96 98 100 96 91 97 84 66 54 54 56 60
47 48 43 44 44 47 45 41 43 34 35 34 35 31 32 35 36 42 63 71 80 83 80 64 68 72 75 76 77 74 73 78 75 73 67 76 78 80 96 98 77 99 97 89 76 59 55 60 62
51 50 45 47 44 39 43 43 43 35 30 31 27 28 34 33 36 36 38 44 48 56 70 92 64 65 67 67 74 75 75 72 64 68 75 67 56 80 90 91 64 98 97 90 82 65 56 63 64
47 43 57 34 39 42 40 32 31 34 35 31 29 28 30 32 32 34 37 39 37 37 38 50 48 54 67 67 60 67 70 68 66 66 73 78 81 70 78 92 68 71 85 80 80 66 63 68 67
46 39 40 45 45 34 38 29 27 33 40 35 33 32 32 36 35 31 25 29 30 34 35 34 32 34 36 51 67 64 56 61 62 67 64 69 75 80 79 87 93 84 72 76 79 68 70 73 70
52 40 44 37 42 48 49 39 40 40 38 35 32 30 29 32 34 33 34 34 28 27 27 27 27 27 30 45 49 70 65 59 64 57 56 66 66 74 74 86 84 97 71 76 80 77 78 80 76
42 43 41 43 48 46 41 41 38 36 34 33 31 28 27 29 30 34 31 31 32 31 32 30 29 29 29 49 42 47 65 58 61 54 51 61 61 64 65 75 87 91 77 70 73 83 83 81 83
48 48 48 51 44 43 41 42 34 31 31 33 32 31 30 30 30 30 25 25 25 27 29 29 30 30 30 30 46 51 46 50 58 46 48 54 56 54 63 64 70 78 85 70 69 84 85 85 86
52 51 59 47 48 43 44 35 36 32 30 27 28 28 28 30 25 28 30 25 24 24 24 25 26 25 26 29 32 58 77 72 52 42 39 38 50 56 62 61 62 65 76 73 68 78 83 86 85
57 53 56 56 54 46 44 31 35 28 26 27 29 30 32 36 39 42 44 40 30 25 25 24 24 22 22 25 31 58 82 66 39 34 36 36 39 46 74 59 64 66 63 71 74 84 75 78 82
53 51 51 52 54 53 46 44 30 25 26 31 34 38 41 43 45 46 41 34 32 30 26 23 24 23 24 25 26 38 83 84 84 88 54 40 38 41 49 54 60 65 66 64 80 89 80 75 82
46 48 49 50 52 70 47 46 25 24 25 29 32 35 43 46 49 52 50 41 39 33 30 27 23 25 28 27 27 27 40 72 85 85 91 69 45 40 56 58 56 60 65 66 64 86 89 79 83
52 58 78 76 85 57 51 50 27 26 28 27 32 40 44 47 52 56 58 57 48 43 40 34 31 28 29 31 29 27 28 56 91 91 95 87 83 42 40 45 60 58 61 65 69 73 90 89 86
58 57 62 56 47 40 54 44 28 30 29 31 35 41 47 51 58 62 64 65 62 55 54 48 44 39 34 36 38 38 38 33 38 35 37 61 98 60 51 64 72 73 63 70 72 71 72 92 92
62 74 45 65 61 55 32 33 28 32 32 31 32 39 49 56 63 65 69 70 68 63 58 59 51 48 46 40 38 36 35 36 83 94 67 40 39 50 88 78 83 87 97 82 75 79 75 79 97
53 47 66 74 68 47 28 29 28 34 31 29 34 41 47 60 64 66 68 73 78 77 71 70 64 58 53 46 42 42 36 34 34 36 32 30 29 37 46 58 65 83 95 100 100 99 99 99 100
59 61 58 50 55 45 27 25 23 27 30 33 33 40 47 66 67 68 72 82 79 73 73 76 73 69 65 62 55 49 51 45 40 37 37 35 34 31 31 35 46 68 77 98 100 99 100 100 100
53 53 44 49 69 62 57 31 27 28 29 33 36 40 51 69 70 71 77 84 90 75 74 79 75 74 70 64 61 59 57 53 48 45 40 36 34 36 39 42 58 80 96 100 100 100 100 99 100

GFSSGP_850_rhum_033.txt.gz
RH
38 47 42 36 30 23 23 18 14 18 16 16 18 16 14 16 22 31 69 74 68 80 88 53 96 98 87 77 83 78 85 85 82 86 86 86 75 73 64 53 41 92 83 98 89 80 57 51 40
50 53 40 30 31 30 21 16 18 16 17 20 20 18 16 16 35 64 72 73 73 79 89 85 83 99 99 85 91 89 90 93 90 81 76 65 57 44 32 34 78 94 94 91 82 79 45 24 22
40 50 37 30 31 30 22 16 13 18 19 19 17 19 20 31 45 53 75 75 75 78 84 89 40 99 100 86 89 90 95 86 85 79 65 48 27 18 20 33 79 91 89 89 87 55 24 24 30
49 42 36 36 32 25 19 15 14 18 19 18 18 18 29 51 50 63 78 74 75 75 80 81 57 83 94 99 99 98 97 93 96 83 53 23 16 17 20 24 48 69 68 52 40 25 36 40 44
55 40 39 37 31 22 18 17 18 18 18 17 18 18 30 63 64 73 74 73 72 72 85 65 55 59 52 100 99 98 96 97 96 77 44 17 16 16 18 26 38 47 46 30 31 41 48 48 46
46 38 42 40 32 22 19 19 19 18 18 16 17 16 36 66 69 76 76 74 74 75 87 82 60 39 41 74 80 98 98 96 94 75 40 19 18 18 19 23 31 31 30 41 50 53 46 42 40
72 42 44 34 28 26 21 21 20 16 17 16 18 16 33 58 83 80 76 77 78 79 82 94 47 34 40 41 47 94 97 95 93 73 47 23 23 24 25 27 31 39 52 85 73 52 46 42 38
70 51 50 35 31 27 21 22 22 19 17 17 19 17 21 62 60 69 77 80 82 84 84 82 89 41 39 32 39 65 83 94 96 87 54 27 31 31 36 39 51 52 66 83 75 52 48 45 44
46 59 59 40 31 26 21 23 22 21 17 19 18 23 49 73 46 53 84 93 84 89 88 80 79 83 84 91 48 59 95 97 97 99 77 32 30 33 41 54 62 60 82 81 72 52 49 50 49
46 50 44 27 24 27 23 24 19 23 20 18 21 34 59 59 40 59 71 84 83 96 95 86 79 79 83 86 80 72 93 94 97 98 72 56 87 63 55 54 56 74 84 73 58 52 51 55 53
39 37 30 24 28 27 24 23 18 22 18 18 18 27 60 76 41 80 90 94 91 91 99 92 91 85 84 86 90 86 86 92 93 98 98 93 86 94 92 88 42 53 62 59 53 52 53 56 54
40 32 24 24 31 33 26 23 23 22 18 18 23 32 36 65 73 83 92 90 94 84 87 78 78 93 89 88 91 87 87 86 83 87 89 92 88 92 98 98 96 88 90 94 56 52 53 53 55
43 28 29 30 40 36 26 24 24 23 24 29 31 34 31 32 50 67 82 82 88 94 63 66 67 78 96 93 94 92 90 89 86 85 87 85 87 92 94 93 94 98 99 92 81 60 50 50 53
42 38 35 34 41 40 36 28 30 27 26 28 27 27 26 29 31 39 60 69 74 84 93 63 71 68 70 87 98 99 92 90 88 84 86 86 85 88 92 95 95 97 99 99 91 72 57 50 50
41 41 39 34 37 36 40 38 34 30 28 27 25 25 25 23 24 31 34 45 54 58 70 84 78 64 68 71 83 100 99 94 91 88 89 91 89 87 88 89 96 100 98 99 97 77 61 54 52
45 44 50 36 40 36 39 37 25 28 28 27 23 22 20 21 24 24 30 34 37 40 43 53 72 95 83 83 96 96 94 98 95 91 92 94 94 92 87 88 89 93 95 94 99 82 72 62 59
45 45 40 34 32 35 40 34 22 24 25 26 23 22 23 23 25 24 22 29 34 35 37 39 44 64 85 94 88 64 82 98 96 97 96 94 98 97 94 91 92 89 99 95 98 82 79 66 63
41 38 28 29 41 36 35 35 22 29 27 27 24 23 23 23 23 25 25 25 28 31 33 34 35 39 53 73 91 58 48 66 84 91 92 96 98 95 98 94 95 96 96 99 91 78 77 70 68
23 32 27 24 38 41 39 32 26 28 29 27 25 24 22 21 22 26 32 33 34 34 35 36 38 38 40 45 61 69 44 33 41 67 87 99 98 100 99 94 94 99 100 100 92 76 72 75 72
36 35 36 32 36 40 28 34 29 28 27 25 24 23 21 21 24 27 26 29 30 30 32 35 37 38 38 37 42 56 69 37 31 38 55 64 75 81 99 86 74 83 88 99 93 83 76 76 78
36 37 35 43 43 37 38 36 32 26 29 28 27 26 25 25 25 25 30 36 39 34 27 28 34 37 37 37 40 45 65 82 86 62 53 51 62 77 100 100 91 92 99 94 87 85 78 68 75
42 33 43 50 48 35 34 20 30 29 26 24 24 22 24 28 32 37 39 42 46 37 26 27 27 26 26 26 28 34 50 72 87 88 89 68 54 49 58 100 93 82 89 84 74 81 76 77 74
46 43 46 50 52 50 42 38 26 24 27 28 29 33 34 36 38 39 45 49 49 46 30 27 26 32 36 25 25 27 38 54 75 84 85 86 87 61 45 85 100 93 85 73 74 92 76 78 77
43 46 47 47 49 71 42 35 28 24 22 27 28 31 35 36 41 44 49 52 53 53 37 32 27 28 30 31 30 30 35 56 68 74 79 86 93 97 99 96 100 100 100 91 71 78 86 86 83
46 51 75 77 85 63 41 46 26 21 20 23 26 32 36 39 43 50 54 58 61 56 47 44 43 40 38 38 41 48 42 44 64 71 78 84 88 99 99 94 92 98 99 100 100 100 87 76 90
57 50 63 63 58 48 42 45 28 21 23 24 32 35 40 44 50 56 60 62 63 67 65 57 53 51 54 52 46 50 51 61 52 54 78 91 82 88 98 92 81 72 97 99 99 100 100 100 98
70 72 42 55 38 43 33 28 27 27 26 25 28 32 41 48 55 57 59 61 65 71 74 76 75 71 71 65 56 57 58 62 65 83 86 91 96 97 96 98 100 96 88 91 100 100 100 100 100
66 47 71 73 75 40 30 22 27 32 30 27 27 34 41 49 57 58 60 65 72 78 81 82 83 80 68 65 62 60 65 66 54 47 72 90 85 79 39 68 91 100 99 99 100 100 100 100 100
59 65 53 51 50 51 25 22 22 26 28 31 32 34 40 51 60 61 63 70 76 82 82 83 88 83 79 68 64 63 67 66 60 56 58 73 87 66 43 37 47 69 93 100 99 99 100 99 100
46 45 42 51 63 46 48 35 20 26 28 30 34 38 41 57 63 64 66 70 79 88 84 83 86 88 85 76 71 72 76 86 80 93 72 62 50 47 45 47 52 52 78 99 97 98 100 100 100

GFSSGP_850_rhum_036.txt.gz
RH
37 38 52 41 49 41 39 26 14 19 16 16 17 15 19 19 48 74 62 62 67 61 44 41 63 55 83 88 71 72 86 83 85 90 88 79 74 67 53 40 78 75 92 90 81 70 45 34 30
40 52 47 40 50 48 36 22 20 16 19 19 19 17 16 43 51 64 70 68 80 82 59 63 98 94 80 76 83 86 93 89 91 91 80 59 47 37 33 65 92 90 92 81 81 64 23 19 20
46 51 48 48 48 46 36 20 18 20 18 18 17 16 18 43 51 64 73 71 77 85 76 62 96 99 97 87 94 94 94 94 91 82 63 36 20 16 20 78 89 89 89 90 84 30 24 27 32
46 50 44 51 44 34 28 17 15 19 18 18 18 21 42 54 58 64 70 73 76 81 86 62 66 61 99 84 93 88 94 94 96 81 49 20 15 16 19 29 81 82 75 58 35 29 36 38 39
61 53 53 50 44 30 23 16 17 19 17 17 18 25 55 63 67 67 72 74 74 78 83 76 44 68 38 61 72 95 92 93 95 73 40 16 16 16 20 34 44 55 42 28 32 40 43 41 39
82 50 60 57 41 29 23 18 18 19 17 17 18 27 59 66 71 72 72 71 70 74 80 66 35 40 35 32 89 96 94 96 97 71 37 19 18 18 20 28 37 36 28 34 46 46 40 38 36
79 77 62 51 40 32 25 19 19 18 18 17 17 24 61 72 76 74 72 71 71 78 81 54 30 28 31 46 80 99 95 97 97 74 36 20 21 21 21 24 26 28 38 55 48 44 40 38 37
65 64 71 56 47 36 23 20 20 18 18 17 18 36 71 83 73 74 74 76 76 80 84 73 42 32 31 30 42 85 97 97 98 80 51 22 22 26 29 32 37 42 54 65 51 42 40 40 40
62 82 84 74 59 37 21 24 22 20 19 17 19 39 68 72 58 75 77 80 80 81 81 82 84 48 38 32 35 43 89 98 98 88 71 29 25 27 36 42 60 55 65 68 56 43 43 44 45
54 75 68 54 49 41 24 23 23 22 21 18 22 47 63 46 50 72 82 79 83 88 83 80 79 78 80 82 46 42 67 95 98 98 64 40 29 36 37 43 46 56 73 66 57 44 44 46 47
50 60 51 63 49 39 26 25 23 23 27 20 19 38 63 56 56 49 56 57 69 76 86 82 79 80 83 86 80 49 72 87 84 75 51 46 62 88 73 56 53 48 58 55 50 46 45 47 44
47 46 39 32 33 33 30 24 23 21 22 19 18 32 55 61 54 44 53 77 74 94 87 83 86 85 82 87 85 75 77 75 74 84 86 70 78 88 81 69 70 42 42 50 43 44 49 45 51
49 38 33 32 36 36 31 27 24 23 24 28 30 30 31 40 58 61 55 77 87 78 82 82 85 88 89 86 85 89 88 85 80 81 86 90 81 85 82 90 90 88 79 78 79 62 55 46 50
41 41 36 30 39 38 34 28 24 24 25 28 29 29 29 29 32 49 64 67 82 87 82 61 61 69 79 93 88 91 91 91 85 78 81 85 90 90 87 84 87 87 90 92 94 82 64 56 48
40 48 40 35 39 38 39 42 36 26 26 26 27 27 26 24 26 30 35 53 67 70 71 69 60 57 69 79 85 95 90 94 92 87 82 81 78 87 89 92 81 86 89 94 97 96 79 66 54
48 45 59 41 38 36 41 49 34 29 30 29 27 25 23 23 23 23 25 32 36 48 56 72 75 74 72 63 78 93 96 92 96 94 91 86 84 84 85 88 80 88 83 98 99 97 91 70 61
54 60 58 45 38 39 43 43 32 28 28 29 28 27 22 21 21 22 22 22 30 34 40 42 46 68 74 64 75 82 87 95 92 86 86 89 90 85 88 88 89 85 92 90 98 91 98 81 70
70 56 48 48 43 43 48 47 32 26 27 25 25 23 22 23 23 23 24 24 23 27 33 34 36 39 47 76 84 87 74 79 81 96 95 81 80 82 79 79 89 89 89 92 93 94 100 90 75
38 44 41 33 39 44 45 42 35 28 29 30 28 25 23 22 21 21 24 26 29 30 32 32 33 34 36 38 56 75 73 51 53 56 62 98 96 95 72 67 65 91 86 87 94 100 98 84 77
33 39 39 30 39 41 39 41 33 29 30 29 28 26 23 22 20 25 28 29 28 28 30 30 31 33 34 36 40 47 56 64 54 44 43 58 70 94 98 88 76 68 94 91 90 99 100 93 78
40 40 37 43 45 39 41 44 38 31 27 27 27 28 28 26 25 25 27 34 37 33 29 29 32 34 37 39 40 42 43 50 78 77 53 33 42 69 81 96 94 95 82 98 91 94 97 95 81
47 33 34 50 55 58 40 38 36 35 34 29 25 25 23 25 25 31 38 43 48 45 32 29 29 28 28 31 36 38 39 38 41 63 73 68 61 49 52 68 83 87 96 97 100 76 69 92 86
40 44 47 51 56 58 48 55 34 36 34 30 29 31 31 32 35 39 45 45 50 48 35 32 30 34 46 39 31 27 27 29 35 57 77 87 88 80 75 76 68 92 90 99 99 100 83 67 80
42 52 52 50 56 89 58 46 44 38 31 34 33 34 36 36 41 44 50 53 54 47 41 38 36 35 36 40 42 38 35 31 31 50 66 75 81 84 85 88 97 96 92 93 94 97 100 99 96
48 63 89 94 95 87 46 50 41 23 28 32 32 33 35 38 44 50 55 58 60 56 51 47 46 44 45 44 41 44 51 56 49 40 61 71 76 86 88 90 98 99 98 94 89 98 98 100 99
59 59 83 73 89 73 43 64 38 26 24 25 32 35 38 42 50 56 59 59 59 60 61 59 54 53 57 57 53 50 50 52 55 65 61 56 75 86 94 97 98 97 98 97 98 94 93 99 97
71 84 46 70 40 76 57 36 29 28 28 32 32 33 40 46 54 56 58 59 59 63 64 66 67 65 65 66 63 58 58 62 62 55 67 89 92 93 92 86 90 98 96 99 98 97 96 92 97
64 48 75 93 78 62 45 39 42 39 35 30 33 29 39 46 56 57 59 63 66 68 69 67 68 68 73 74 69 65 63 65 66 61 50 57 88 87 75 46 44 71 98 97 98 98 100 99 100
82 83 67 62 70 85 52 39 31 34 31 32 31 32 37 43 58 60 62 66 71 76 77 76 76 75 76 74 73 72 74 80 82 80 84 78 72 83 71 54 46 45 49 70 88 98 96 98 100
67 67 63 85 75 64 68 50 27 31 34 33 34 36 39 48 61 64 65 67 72 79 82 86 83 81 78 79 82 79 78 81 80 85 95 85 83 75 60 55 54 55 52 49 51 73 77 72 97

GFSSGP_850_rhum_039.txt.gz
RH
44 38 44 46 54 58 54 39 19 20 20 19 17 18 26 38 57 67 67 63 62 53 39 30 39 45 59 60 67 77 76 80 79 84 81 71 65 55 38 58 73 91 92 81 73 34 26 28 31
44 42 47 45 63 63 54 32 20 25 21 16 15 16 36 64 57 63 64 75 66 52 48 33 41 61 83 61 68 85 85 84 87 84 72 48 37 30 85 90 89 92 86 75 71 21 16 17 18
47 45 55 62 66 65 51 28 23 21 18 19 19 17 42 57 67 62 69 78 76 59 56 48 66 75 72 68 82 90 92 91 88 80 48 22 16 19 88 85 86 88 88 83 46 23 26 28 29
51 52 49 62 66 49 39 32 23 21 18 18 19 56 52 59 62 69 72 78 80 70 56 57 98 93 76 91 93 94 92 97 85 66 28 13 13 15 44 80 80 80 78 57 23 32 35 36 39
55 57 71 64 58 47 33 21 19 22 19 18 19 51 68 67 53 67 76 79 79 76 65 59 70 81 65 89 94 89 89 92 74 57 22 14 14 15 20 36 64 55 36 24 34 39 38 37 39
72 82 82 74 58 42 32 23 18 20 18 18 43 58 68 73 67 74 76 76 77 79 84 82 62 56 72 82 93 93 89 91 80 59 24 16 16 17 23 31 36 32 25 34 43 37 34 33 34
77 91 89 70 59 46 35 22 19 19 19 18 21 66 76 75 72 75 75 74 77 78 78 74 53 32 35 57 92 98 91 93 81 60 27 18 18 20 26 30 28 26 34 44 40 37 34 33 33
60 84 84 66 64 56 38 22 18 18 19 18 26 66 86 76 75 73 73 72 74 76 75 59 35 29 27 32 56 98 98 95 82 63 36 20 19 20 21 24 26 34 50 51 42 39 36 37 36
61 87 87 76 66 54 47 41 21 20 20 30 49 58 65 76 76 75 75 76 78 81 82 71 42 32 31 32 30 37 79 88 76 53 39 22 23 24 26 28 33 37 48 56 45 40 41 41 42
84 87 75 53 53 57 55 48 23 21 21 38 48 69 67 69 77 77 77 79 81 84 84 80 74 61 36 34 28 31 42 51 57 45 46 30 24 26 30 34 38 43 44 55 49 40 40 42 43
76 78 57 51 51 72 66 59 31 24 26 22 50 40 46 52 73 68 80 80 83 82 86 85 81 76 54 51 51 35 36 46 61 49 42 46 29 38 35 31 34 38 46 53 50 41 40 40 43
62 56 54 50 79 76 64 48 27 23 27 21 30 27 37 39 53 74 66 64 84 84 84 82 81 82 76 78 72 68 41 49 58 52 56 61 41 50 67 62 53 47 39 42 45 43 44 42 40
61 47 47 48 58 51 60 51 36 25 28 28 44 55 45 45 53 48 47 50 60 64 79 83 81 83 82 84 82 72 72 65 67 60 64 72 77 65 72 79 68 64 70 48 47 46 47 40 41
49 49 45 40 47 51 61 39 34 26 28 26 29 30 33 36 44 59 65 54 58 67 54 65 70 78 83 86 87 82 82 80 83 80 73 78 85 86 82 81 81 81 84 77 66 77 75 65 53
46 53 47 44 43 41 38 41 40 28 27 28 28 28 26 27 30 34 46 61 65 66 65 60 57 60 68 76 85 89 90 91 92 92 85 77 81 85 91 92 90 77 75 86 88 93 96 91 73
56 52 67 46 44 40 34 53 39 28 28 29 28 27 26 25 23 25 28 33 53 66 66 71 72 73 69 69 71 76 90 93 94 93 93 85 79 74 78 83 81 80 79 82 87 87 96 94 88
74 75 68 52 43 42 45 53 38 29 30 30 30 28 27 26 23 22 22 24 29 36 41 50 59 62 71 76 76 76 82 96 98 97 92 81 77 85 84 78 74 78 84 82 86 85 92 95 92
78 66 59 59 48 44 52 53 42 29 32 31 30 28 27 24 23 22 23 23 22 25 34 36 37 43 45 43 58 72 80 84 85 83 82 85 86 81 83 87 88 84 83 83 88 93 92 95 89
58 56 54 50 42 51 54 51 41 36 29 29 27 26 25 23 22 22 22 24 24 24 25 32 35 36 43 54 55 62 69 64 64 72 70 72 70 81 88 76 73 86 85 78 82 89 95 91 91
51 59 54 43 43 48 53 53 44 39 34 29 28 28 27 25 24 25 26 26 26 28 28 30 32 32 34 36 38 43 50 60 64 61 68 68 72 78 83 93 92 74 86 88 83 78 80 92 98
52 48 51 51 46 41 41 46 42 38 31 30 29 30 28 26 26 26 27 27 27 27 26 26 27 28 29 30 34 37 41 44 46 49 53 52 54 58 66 75 75 85 91 89 80 76 72 73 83
56 39 44 56 57 62 40 56 37 38 36 35 30 27 27 27 28 36 40 37 34 27 26 25 26 27 29 33 37 38 39 41 42 42 42 44 48 61 66 62 69 77 82 85 90 88 82 92 85
49 48 55 54 62 59 50 64 48 39 43 36 29 26 24 28 32 38 40 42 45 42 37 32 30 30 30 30 31 31 30 29 29 32 36 44 62 77 72 71 67 84 81 88 99 100 97 84 95
47 56 58 60 66 87 63 63 52 47 39 37 39 36 36 38 40 43 45 52 52 52 46 44 41 40 39 37 36 34 32 30 32 30 31 40 53 67 78 79 80 81 90 93 90 97 98 99 100
55 68 95 93 94 90 53 64 48 34 34 40 42 36 35 37 44 50 51 53 54 55 52 51 50 50 48 48 47 47 48 50 54 48 42 36 59 74 80 81 87 89 94 97 90 90 91 98 100
73 63 84 87 96 84 49 70 49 31 29 33 32 35 37 43 51 51 55 57 57 56 54 54 55 54 54 52 53 57 57 54 54 54 53 59 52 53 67 77 79 87 93 95 85 92 90 92 95
75 77 50 68 56 83 63 45 33 31 41 38 39 39 42 51 53 56 58 57 58 60 61 61 62 63 59 55 55 59 61 63 64 59 56 59 89 93 92 81 74 79 79 69 93 96 93 91 90
74 55 82 91 89 70 62 49 50 41 42 41 39 38 43 46 55 58 58 59 62 64 65 67 67 66 63 64 69 67 64 64 66 64 60 60 62 86 92 86 69 55 42 43 64 81 89 92 94
86 84 69 71 83 87 57 48 35 36 34 38 36 30 34 52 58 59 60 62 64 66 68 68 68 69 70 70 69 70 70 71 73 77 76 73 77 76 78 74 63 50 49 53 56 58 56 53 50
70 76 65 87 77 74 81 60 31 36 34 29 29 30 41 54 59 62 63 65 67 70 72 74 75 76 77 73 73 75 76 76 77 84 86 90 87 84 80 73 61 55 54 54 64 70 76 78 77

GFSSGP_850_rhum_042.txt.gz
RH
43 39 41 41 54 63 62 47 24 22 22 19 19 38 53 51 53 47 67 64 62 59 37 39 65 59 86 65 72 73 70 70 77 67 70 58 53 39 44 72 87 90 77 62 30 21 28 39 54
44 38 43 46 67 70 60 39 30 24 20 20 18 36 50 69 67 70 75 70 62 57 35 39 55 57 61 66 73 73 78 75 74 67 53 39 32 80 84 78 90 88 71 54 19 15 17 19 28
46 40 45 62 72 68 55 31 28 22 20 17 19 39 53 67 63 69 63 68 68 51 38 43 50 78 64 65 75 79 83 86 76 63 30 20 23 84 90 90 88 88 80 50 22 23 22 22 21
42 44 51 69 71 54 43 41 25 22 20 19 30 64 62 65 60 60 65 69 72 56 49 54 73 94 65 71 78 84 88 94 89 53 18 12 16 85 73 77 77 77 71 28 29 31 32 34 34
43 53 81 70 64 52 44 35 24 22 21 20 28 66 74 68 70 64 72 76 74 61 61 94 96 79 79 86 88 89 92 93 76 47 15 12 13 15 48 55 53 46 31 27 34 35 36 37 40
56 69 92 87 63 46 41 34 29 22 21 34 60 71 75 71 75 74 80 84 79 64 62 58 82 67 91 94 91 88 90 84 55 42 16 14 14 16 22 29 36 28 24 34 36 32 31 32 34
60 89 90 82 71 57 42 42 26 21 20 22 51 82 78 75 78 77 82 81 78 75 72 71 59 42 82 87 83 93 95 81 44 37 18 16 16 17 23 31 31 26 33 39 33 31 30 31 31
52 68 78 73 67 65 51 47 36 20 21 25 51 87 85 76 78 80 79 79 81 83 82 78 70 35 56 68 62 92 93 86 45 27 18 18 18 18 21 24 24 28 41 41 37 35 33 34 34
62 92 83 77 68 64 54 61 44 26 26 34 46 66 69 74 78 78 80 83 84 83 80 65 48 35 34 44 40 74 84 78 56 37 22 16 18 20 21 23 26 31 42 47 41 39 38 39 39
77 80 74 54 54 63 65 70 63 36 35 67 68 71 76 75 78 78 80 80 81 81 81 65 45 31 30 33 34 40 50 61 53 41 35 21 20 22 24 26 32 35 42 52 47 40 41 42 43
85 77 55 52 50 83 78 71 62 49 29 49 60 74 77 69 66 77 78 79 80 82 81 80 76 69 40 32 30 33 35 43 48 48 43 42 26 26 26 31 35 38 41 50 53 45 39 40 42
84 62 54 59 77 65 76 73 65 45 31 24 22 35 61 54 58 60 73 80 84 85 84 80 81 77 70 59 54 46 36 36 47 48 50 47 43 30 32 34 36 38 37 40 44 44 45 41 41
61 60 60 71 77 75 79 76 73 61 34 25 32 43 36 50 53 63 75 81 84 82 76 77 83 78 72 70 64 64 59 44 48 57 56 63 63 49 50 55 63 65 59 56 42 38 42 42 42
59 51 59 75 75 81 84 74 78 43 31 41 53 61 50 48 45 49 47 56 70 84 81 75 72 71 67 68 76 72 66 70 75 76 74 69 69 69 70 74 71 77 79 76 76 66 63 64 62
54 62 55 54 56 55 62 79 69 43 37 35 35 34 35 40 55 46 50 59 58 54 58 76 77 72 67 70 71 75 77 82 81 82 87 84 75 71 73 77 79 84 88 84 82 83 76 74 74
56 56 70 51 50 46 52 62 50 41 37 31 30 29 27 26 26 28 39 45 54 64 69 70 69 77 78 73 74 76 75 76 85 88 89 90 87 80 79 76 74 81 90 90 84 79 83 86 87
76 80 68 58 47 47 42 50 40 34 35 32 31 29 28 26 25 24 24 28 39 41 50 57 71 76 77 78 77 79 80 81 83 88 88 89 87 84 82 79 76 80 85 87 86 85 83 84 85
78 77 58 56 52 48 53 54 40 35 33 32 31 30 29 28 27 26 24 24 24 28 38 51 60 50 56 75 80 78 80 84 87 87 85 91 91 91 92 87 82 81 86 85 86 88 89 90 89
64 57 64 54 46 49 50 55 46 39 34 35 33 32 30 27 24 24 24 24 24 23 24 38 38 38 39 54 66 68 71 70 70 77 76 74 74 80 80 79 82 92 93 86 84 82 86 80 83
61 62 60 47 44 51 55 56 48 44 42 34 28 28 27 26 26 24 25 26 25 25 26 30 34 35 36 39 46 53 58 60 74 71 75 78 82 83 79 76 78 81 85 88 86 87 86 77 77
60 67 56 51 48 43 46 51 50 44 41 37 33 27 25 28 27 26 27 28 28 29 29 29 29 30 32 34 36 39 42 44 50 54 56 61 59 67 76 73 77 83 81 77 79 82 89 81 76
69 45 43 55 59 72 42 68 42 41 43 41 34 32 30 29 27 26 27 28 30 28 27 26 25 25 28 30 32 34 36 39 40 42 43 43 42 43 47 56 67 65 71 82 85 85 89 93 91
54 45 59 56 63 60 53 58 47 41 50 44 42 32 29 28 27 31 33 33 33 30 28 25 25 27 28 30 29 30 31 31 31 33 35 37 37 37 41 55 68 73 70 67 86 85 91 93 97
54 59 64 70 68 82 64 63 62 48 45 41 36 29 26 30 40 43 43 43 39 41 40 33 33 34 32 31 30 28 28 27 28 29 31 30 28 29 36 46 58 66 88 85 86 82 91 93 95
57 65 92 90 92 82 58 71 49 40 36 39 45 38 35 39 45 47 48 51 48 49 46 44 44 44 44 42 41 43 42 41 39 37 36 37 34 31 37 59 75 85 79 89 91 87 91 82 80
64 59 85 83 98 81 54 71 54 36 31 31 35 35 38 42 46 46 50 51 51 52 51 51 51 50 50 51 51 51 51 53 55 52 52 51 48 49 50 55 68 83 78 77 83 88 87 82 84
73 81 56 72 70 86 67 56 38 38 42 42 40 38 38 42 51 51 53 54 53 53 55 57 57 57 57 54 52 55 58 58 61 63 62 58 58 63 84 85 84 79 74 76 73 68 70 87 92
72 59 80 91 85 74 62 63 52 43 49 46 47 45 42 48 54 56 57 57 56 57 59 61 62 60 60 59 60 60 64 66 67 67 64 64 64 63 79 89 85 84 66 48 40 42 46 55 62
86 95 81 79 79 87 72 58 40 41 45 46 45 44 49 53 53 57 59 60 61 62 65 68 69 69 68 66 66 66 69 72 73 74 76 79 78 79 76 81 80 70 59 50 49 51 54 55 58
74 85 66 91 90 84 83 62 36 37 41 41 39 38 35 45 56 59 61 63 64 66 69 72 73 74 75 72 70 69 69 72 75 78 84 89 85 82 85 82 77 70 62 60 61 63 63 69 75

GFSSGP_850_rhum_045.txt.gz
RH
43 38 36 37 55 65 62 49 34 26 22 20 20 31 36 56 49 46 60 48 51 33 38 86 68 74 77 88 81 81 85 85 78 53 51 45 40 43 61 85 84 72 53 24 18 32 47 67 65
44 40 39 44 66 72 59 44 35 26 21 35 40 46 58 65 66 71 70 61 57 38 35 87 76 72 69 73 90 89 91 79 47 41 33 32 46 60 74 89 89 74 47 19 15 17 22 33 48
48 41 42 64 75 68 53 38 42 25 22 21 30 48 60 65 62 65 70 68 69 54 31 77 64 84 63 70 73 81 89 66 46 28 20 21 76 86 80 88 78 74 52 21 21 18 17 20 31
46 46 50 75 74 57 46 44 39 28 21 22 39 68 68 68 58 60 64 67 66 52 33 52 58 68 66 69 80 84 73 66 62 36 14 17 88 92 71 73 75 65 39 26 28 28 27 25 25
45 50 81 75 67 57 46 40 38 34 26 24 41 76 75 71 68 62 70 73 66 47 42 50 70 83 65 76 88 74 60 43 63 34 14 15 52 46 61 60 53 45 25 30 32 32 34 34 35
56 64 88 90 71 56 48 46 40 28 23 46 60 74 78 74 72 72 75 80 72 52 50 60 100 83 69 79 80 80 78 58 39 26 15 14 16 28 48 48 41 29 26 34 32 32 33 35 37
71 80 87 83 76 66 48 50 40 40 23 32 58 86 83 86 85 81 83 85 79 64 55 52 64 79 85 99 92 90 84 68 41 20 14 16 17 17 22 28 30 25 33 38 33 32 32 34 36
72 71 84 78 70 70 58 55 52 56 27 44 59 86 84 83 88 92 88 83 82 75 66 59 50 63 86 95 96 100 99 80 50 29 16 15 16 19 24 26 26 25 34 35 34 34 34 36 37
65 82 72 72 67 65 59 70 61 46 45 57 59 68 68 79 83 94 89 86 86 89 87 84 77 53 66 79 72 91 94 82 70 45 24 18 18 18 20 23 24 27 36 37 35 34 35 36 37
87 84 69 48 56 70 66 70 66 59 55 59 68 75 77 80 82 87 87 85 87 85 83 79 71 48 42 59 58 57 70 72 66 58 40 21 20 22 22 24 26 30 37 46 44 38 38 39 42
86 81 59 54 55 79 77 65 70 63 52 39 59 75 76 80 82 81 79 79 78 81 79 60 48 39 36 38 47 46 46 57 61 62 50 44 24 22 23 25 28 33 35 38 47 47 41 39 41
84 62 54 64 66 63 69 74 78 66 55 46 44 91 65 69 74 78 79 78 80 80 76 76 74 62 40 36 36 38 40 44 49 49 51 44 42 28 24 25 28 30 34 37 39 46 46 44 41
77 62 54 70 76 73 71 81 88 76 50 44 35 61 55 56 59 74 74 79 80 77 72 74 77 73 71 59 62 56 53 50 42 49 51 51 51 46 34 38 50 55 63 54 55 51 42 41 43
68 60 70 77 73 74 75 72 84 63 51 47 54 59 54 59 62 73 78 76 78 81 78 71 70 68 67 68 71 73 74 69 58 60 65 62 64 65 64 65 66 63 68 76 77 75 77 67 69
62 75 86 85 73 84 78 88 92 56 56 57 46 59 54 60 67 66 64 68 75 77 77 70 72 73 74 71 69 71 75 76 75 76 79 80 79 73 72 71 72 74 80 84 87 88 84 80 81
71 74 89 74 75 73 68 77 72 59 62 55 43 44 52 50 52 52 53 57 56 58 71 70 79 77 78 76 73 74 77 76 75 78 82 83 84 87 84 76 71 73 81 86 92 92 92 86 86
74 89 77 67 59 66 60 64 51 48 53 46 42 33 30 29 27 27 33 46 49 55 67 72 74 79 80 79 80 80 80 80 81 82 85 88 88 87 88 83 75 78 83 84 87 89 93 90 88
86 86 71 66 57 70 69 55 57 49 49 43 39 35 32 28 26 27 26 26 45 40 42 54 72 82 84 87 88 87 86 85 86 85 86 83 84 92 92 93 90 90 91 90 90 91 91 93 90
69 65 71 54 51 56 68 54 56 56 56 38 34 35 31 31 29 27 26 25 25 25 31 40 46 60 69 72 75 82 77 79 82 82 87 92 88 84 86 86 87 87 88 90 94 95 92 89 86
67 66 67 51 49 53 54 55 46 44 45 40 35 33 34 31 28 25 25 26 26 26 26 29 35 42 42 42 48 62 67 70 67 63 68 76 84 83 80 82 82 83 84 84 85 82 81 82 83
65 70 61 60 51 47 54 58 54 47 46 42 38 35 32 30 27 26 26 27 28 28 29 30 31 33 35 36 38 42 50 52 52 54 54 68 78 82 86 81 79 84 86 79 83 86 85 86 88
76 49 50 57 62 76 49 84 50 45 46 47 39 36 35 32 30 27 27 27 30 30 30 30 30 29 29 29 30 33 35 37 39 40 40 42 45 47 48 46 47 54 58 61 70 76 77 90 91
62 48 50 58 65 59 54 67 53 38 42 42 43 36 32 33 30 28 28 29 30 31 30 29 28 28 28 30 32 36 37 36 34 34 35 35 36 38 39 40 41 41 56 64 74 81 91 90 92
55 60 64 71 67 88 64 64 64 44 41 35 36 33 33 33 30 32 36 35 34 35 35 33 31 30 29 29 32 34 35 34 32 31 31 31 31 31 31 30 34 38 57 70 85 90 91 90 83
52 66 94 94 93 88 66 65 46 39 39 40 37 31 33 31 32 38 38 42 41 40 43 42 40 39 39 38 39 40 40 40 40 40 39 39 37 35 35 36 38 60 79 80 95 84 86 80 76
66 61 88 86 97 80 59 75 56 40 35 33 31 31 32 35 42 43 44 44 45 47 47 45 44 45 45 44 43 44 45 46 46 47 49 52 52 50 47 48 54 62 75 98 94 90 78 81 88
72 76 54 77 76 88 71 59 39 38 39 41 41 38 38 44 48 47 51 51 51 50 50 51 51 51 51 51 49 49 50 48 50 55 58 61 61 60 59 68 81 74 79 80 82 83 81 74 59
70 62 76 90 80 81 66 66 54 37 40 46 50 49 46 47 52 54 55 55 54 54 54 55 56 58 59 60 58 57 58 60 63 64 67 70 71 68 66 68 91 83 78 78 63 50 45 48 50
78 90 83 78 78 78 79 59 47 39 40 47 47 45 42 45 50 53 56 57 58 59 60 60 61 64 66 68 69 68 66 66 67 71 73 75 77 80 81 80 83 84 75 68 59 53 52 53 55
77 85 78 90 87 87 84 72 35 41 42 42 45 41 41 42 50 56 57 58 61 62 64 66 70 71 71 72 73 74 71 70 71 73 76 82 83 82 82 81 81 77 74 67 63 61 61 62 62

GFSSGP_850_rhum_048.txt.gz
RH
43 38 38 38 50 64 56 44 40 32 23 21 20 25 36 51 47 45 58 38 36 30 44 58 75 51 54 58 71 78 80 77 61 47 37 36 46 58 84 77 62 38 20 16 32 47 62 64 71
44 41 44 42 64 66 55 46 38 33 24 47 44 52 55 66 64 61 58 45 36 27 41 58 54 82 70 78 82 80 88 82 56 39 28 29 49 67 84 80 66 48 20 14 16 24 42 52 55
50 43 42 63 74 65 48 41 46 37 26 30 41 55 64 71 65 56 58 48 57 32 55 63 73 67 76 81 84 88 89 73 53 30 23 59 67 69 84 81 66 54 22 21 18 16 21 28 37
50 48 50 70 72 56 47 46 42 40 24 23 34 64 74 74 70 61 60 57 60 39 65 91 70 71 67 80 76 87 80 72 63 30 20 72 82 87 95 68 67 48 25 28 28 26 23 24 26
54 49 73 76 66 58 48 44 50 40 31 25 53 72 77 74 68 64 57 64 65 47 60 86 84 70 69 80 88 84 73 56 51 32 18 72 94 87 60 61 57 38 27 31 31 31 32 32 36
58 60 78 83 70 59 55 52 48 50 28 42 63 77 77 73 74 69 69 70 64 45 50 79 76 69 69 92 96 78 68 53 39 21 15 46 85 60 52 48 39 26 30 32 31 32 34 36 38
72 78 80 78 75 63 54 51 56 62 39 32 70 85 83 83 79 78 78 78 66 53 50 60 97 85 70 94 93 81 85 74 43 22 14 14 15 27 50 43 31 24 31 31 29 29 32 34 35
74 74 85 77 73 64 60 56 60 62 49 42 68 81 87 80 85 87 86 83 77 65 55 60 85 84 78 95 96 98 87 79 48 29 16 15 16 17 22 30 29 25 34 31 30 31 31 31 32
93 88 86 78 72 64 64 62 56 52 52 46 80 84 75 75 88 90 90 91 88 84 74 64 60 76 79 91 96 100 90 74 73 42 22 17 17 19 22 27 27 28 36 34 34 33 33 34 35
92 89 78 54 60 70 70 67 65 60 54 47 49 95 97 84 89 92 90 89 89 89 88 86 83 77 76 90 87 71 79 80 77 60 39 20 20 20 22 25 25 26 35 42 40 37 36 37 38
98 82 63 53 50 63 73 68 69 68 62 49 63 46 92 84 70 75 85 83 78 85 89 84 82 82 64 79 79 61 48 63 64 61 53 41 24 22 23 25 27 30 34 38 40 45 46 42 39
86 81 65 57 54 62 64 62 75 73 60 56 52 50 73 81 60 68 79 75 81 81 78 70 54 52 52 59 62 55 52 52 53 57 57 49 46 36 25 26 29 31 33 35 37 40 44 45 46
85 70 66 64 62 66 65 67 80 66 52 54 48 51 62 69 60 60 73 78 81 79 76 72 67 55 43 41 45 51 45 43 45 51 56 55 52 52 46 33 37 45 51 61 57 64 69 66 56
74 64 72 78 77 74 65 76 70 45 48 50 49 48 63 68 58 56 72 80 81 77 76 74 68 67 69 59 54 59 59 66 63 48 54 63 62 66 67 60 59 63 66 72 78 80 79 78 76
75 80 86 80 81 80 69 69 76 51 57 60 54 49 53 74 61 57 56 72 74 72 69 71 68 71 72 70 70 70 71 73 68 65 70 76 76 75 72 71 70 71 76 79 82 85 86 85 87
82 89 99 86 77 90 68 80 67 54 62 60 56 47 40 64 62 58 66 74 76 77 74 74 78 78 79 77 74 73 75 73 73 73 76 79 81 83 82 80 75 76 79 83 85 86 89 90 92
82 97 86 98 70 87 76 78 54 60 71 69 59 52 41 35 55 64 62 61 60 58 63 68 80 76 83 83 80 82 83 82 82 84 83 81 84 86 86 82 81 88 89 89 90 91 94 92 92
93 89 78 82 87 84 86 66 56 64 69 72 64 50 40 37 31 30 36 45 56 55 66 72 78 77 80 81 86 85 83 87 86 82 82 86 87 91 92 91 91 94 96 92 91 92 93 95 95
73 68 81 59 63 78 81 67 59 64 76 75 64 48 38 32 33 30 28 27 27 40 44 58 73 77 80 81 82 84 80 80 84 83 80 79 83 87 93 91 89 88 86 84 87 89 86 87 85
66 75 73 55 57 62 76 72 55 59 56 56 57 49 38 32 32 32 27 27 26 25 27 33 41 53 66 78 84 84 78 78 80 82 82 85 81 83 92 93 89 80 85 81 83 86 88 88 84
68 76 69 68 57 48 63 69 62 53 50 45 44 41 41 34 33 32 28 26 26 26 26 28 32 38 50 57 57 53 52 61 70 81 86 82 77 84 90 87 86 88 91 83 80 85 81 83 82
74 58 55 64 68 87 52 91 64 50 51 49 45 42 39 36 32 31 29 28 28 29 30 31 33 34 34 34 35 35 35 36 38 40 43 47 47 47 48 50 53 54 51 50 55 67 74 83 81
63 52 54 59 69 61 57 75 61 40 54 45 41 41 37 34 34 30 29 30 29 30 31 31 31 30 30 30 29 28 28 29 32 35 35 35 35 36 38 40 40 40 40 42 47 74 78 86 93
59 61 64 67 72 90 70 73 68 52 40 33 34 36 33 32 34 34 31 34 33 33 33 32 31 30 29 29 29 29 30 31 30 30 29 30 29 30 31 32 31 31 33 38 45 83 85 84 80
55 71 96 94 94 91 70 72 58 41 37 35 30 26 24 28 37 34 31 34 38 38 39 40 40 39 38 38 38 39 39 39 39 39 38 38 38 39 39 38 37 35 36 46 66 72 87 89 95
62 61 87 87 96 83 64 82 59 42 36 34 34 31 31 29 36 32 33 37 42 43 44 46 46 46 47 47 47 47 47 46 45 45 45 45 46 47 50 52 51 53 64 70 81 81 99 94 82
70 78 56 79 76 88 74 62 41 36 38 36 35 35 34 34 36 42 50 50 48 49 49 49 49 51 52 53 54 54 53 51 50 51 52 55 56 56 56 60 64 86 88 86 85 84 81 82 87
66 61 77 88 81 83 68 68 58 42 36 37 43 44 42 39 49 54 55 52 52 53 52 52 53 54 55 56 59 61 61 59 57 57 59 62 65 66 68 69 72 84 93 84 82 73 62 56 57
78 90 80 74 76 80 74 62 47 42 36 41 41 43 44 46 54 56 57 56 56 56 55 57 59 59 60 62 64 66 67 67 64 64 65 68 74 80 81 83 84 86 89 84 76 70 62 61 62
77 78 75 89 85 89 85 74 40 39 45 41 41 44 44 49 53 53 53 55 56 57 59 61 62 62 66 68 69 69 71 74 72 71 73 76 80 84 85 86 85 83 82 78 73 69 67 67 66

GFSSGP_850_rhum_051.txt.gz
RH
44 39 38 41 40 47 43 37 40 33 24 24 23 27 30 44 36 30 53 32 34 28 46 58 52 55 58 61 76 83 84 70 51 38 36 46 57 84 67 58 35 18 15 26 38 52 58 68 68
46 43 44 41 48 45 41 43 39 37 29 42 46 53 53 54 57 55 49 34 29 29 41 54 56 56 70 69 75 81 82 57 40 29 32 51 62 83 78 67 45 18 14 16 25 41 50 50 53
49 51 43 52 59 44 37 42 44 41 36 31 40 58 66 74 67 57 43 36 29 31 43 77 65 78 66 75 76 80 86 57 35 24 45 52 68 80 79 56 44 22 20 17 16 21 28 35 37
50 49 50 54 60 49 40 45 47 43 27 27 34 61 76 76 71 63 43 38 34 33 53 70 86 83 87 84 78 76 71 57 36 23 66 69 69 85 98 54 43 25 26 25 23 22 24 26 30
51 53 62 66 60 55 48 46 52 43 34 29 54 64 82 82 76 73 47 42 42 45 74 78 89 75 77 84 86 81 64 49 33 25 88 97 98 93 44 42 37 25 28 29 28 28 28 30 32
58 63 68 67 60 55 54 54 47 56 39 44 64 78 83 79 75 73 66 57 42 50 92 80 88 71 76 81 93 85 67 46 27 16 42 92 97 64 40 37 30 25 30 28 28 28 28 30 30
72 75 69 63 60 60 52 52 59 62 47 44 76 74 83 85 82 74 71 67 59 46 87 80 95 74 77 91 99 86 73 58 36 17 16 21 20 25 39 36 28 27 32 30 30 29 30 30 30
75 74 79 70 62 59 60 59 57 54 49 54 86 78 82 93 89 82 79 73 63 54 63 88 86 78 74 95 97 92 92 77 49 26 17 17 18 18 24 30 28 28 37 34 33 32 31 31 31
84 95 86 72 64 65 64 58 61 51 58 69 81 82 99 97 92 91 85 78 69 63 61 72 96 96 80 97 97 99 99 85 67 39 19 18 18 20 25 28 28 27 37 37 36 34 33 34 35
91 89 77 59 61 72 68 66 69 55 45 51 50 47 93 100 100 86 89 84 80 71 69 83 91 96 85 97 99 99 86 74 74 53 36 20 20 21 24 27 27 27 35 43 42 40 38 38 38
96 82 66 56 61 61 68 69 66 60 56 60 65 52 64 99 92 90 79 78 78 78 76 78 83 85 91 94 95 84 57 64 71 64 54 38 23 22 23 24 26 29 35 40 44 48 52 51 47
89 73 64 69 69 65 61 60 67 64 53 51 53 51 55 95 99 91 72 77 80 85 86 88 90 92 88 91 96 86 67 51 57 63 58 49 44 36 25 26 28 32 36 38 41 44 44 47 47
78 75 88 78 72 68 65 64 65 62 49 47 46 44 51 72 96 77 65 68 78 83 85 84 73 73 65 66 81 75 59 51 52 52 54 54 49 48 48 33 31 38 43 58 68 65 71 73 74
76 73 66 73 80 72 69 66 61 48 50 50 45 42 48 57 82 73 63 66 69 76 83 80 71 67 53 49 51 50 49 49 57 55 50 58 59 62 65 64 53 57 66 70 75 79 81 81 81
78 81 79 79 79 82 77 63 69 56 51 50 45 45 46 43 74 67 63 61 57 65 82 78 77 79 75 71 59 59 65 68 67 66 59 67 74 76 77 75 74 74 77 79 80 81 82 82 83
80 77 91 89 80 90 72 77 55 54 55 56 50 45 46 47 47 68 68 62 60 67 82 84 81 78 77 74 71 70 72 74 75 74 76 76 78 83 85 83 80 85 85 84 83 86 88 86 86
90 87 87 98 73 82 69 74 53 54 63 56 52 51 49 50 39 45 70 69 63 68 77 81 84 84 80 81 80 79 79 78 79 81 80 80 80 84 86 85 85 90 91 92 93 91 93 91 91
87 93 82 90 89 84 79 69 54 66 62 54 49 52 54 52 38 35 42 66 66 64 67 72 70 80 78 80 82 83 82 80 78 75 76 80 81 84 86 89 91 91 93 94 93 92 90 88 86
73 79 74 67 80 79 79 71 57 67 69 75 65 62 56 53 41 31 31 32 52 64 64 66 69 73 76 77 76 75 71 76 76 76 80 84 85 87 90 92 94 96 92 83 79 80 83 82 80
72 78 78 58 77 74 81 79 62 66 65 55 58 52 58 55 49 31 32 29 28 31 50 51 57 63 66 66 69 70 71 72 73 73 78 83 83 83 84 80 76 84 91 91 84 87 88 86 84
71 72 76 67 77 60 76 81 73 58 62 60 50 44 54 55 49 37 31 31 28 27 29 35 37 44 51 57 63 68 75 76 70 66 74 80 84 88 89 86 86 88 90 89 88 93 85 80 86
76 61 63 69 79 81 59 81 68 64 55 56 56 56 51 51 46 38 32 31 28 28 28 29 32 35 40 48 58 63 57 49 44 42 43 48 52 55 55 54 53 51 51 51 52 53 57 70 83
66 57 61 65 68 64 62 76 62 52 61 54 50 48 39 41 42 40 36 31 31 32 32 33 34 35 35 34 34 34 34 33 31 31 31 34 36 37 38 37 37 37 37 36 37 39 44 59 93
61 61 63 64 64 89 70 75 66 52 45 41 43 43 41 38 39 36 36 31 30 32 34 34 33 33 32 31 30 29 28 28 28 28 29 29 30 31 32 31 31 30 30 30 32 38 41 75 97
59 67 93 91 92 85 66 73 57 45 37 35 32 31 36 38 35 35 37 32 30 32 35 34 34 34 34 33 33 33 33 34 34 35 34 34 34 36 40 40 41 41 40 38 38 42 68 76 93
62 61 82 93 93 79 66 76 51 43 38 34 34 34 32 32 29 31 38 34 34 37 38 39 40 40 39 38 39 40 42 43 43 42 41 40 40 40 42 46 48 51 57 67 68 67 97 82 97
67 75 56 80 78 79 66 58 40 35 33 32 31 32 29 29 30 32 40 39 43 45 46 45 44 43 43 46 48 49 50 51 51 50 48 47 48 50 52 53 55 62 78 89 87 83 86 91 94
64 60 76 84 83 79 63 59 45 35 35 34 33 33 33 35 34 38 42 56 56 52 49 48 48 48 50 52 53 55 56 59 60 59 58 57 59 60 62 64 67 72 80 90 90 81 79 73 67
72 82 77 71 72 73 67 49 45 42 34 38 38 36 39 40 40 45 56 60 55 52 51 52 52 56 58 58 59 61 63 64 66 67 65 66 68 70 72 75 80 84 89 90 86 78 72 66 61
78 75 69 82 82 84 78 65 39 38 40 41 37 38 41 43 51 56 62 59 56 54 53 54 57 60 61 62 65 65 65 67 70 73 73 73 74 77 78 82 86 88 88 86 83 79 75 73 73

GFSSGP_850_rhum_054.txt.gz
RH
45 38 36 42 29 24 22 22 23 24 18 23 22 22 25 24 20 30 60 33 50 62 87 78 80 83 84 81 84 88 92 70 50 46 44 54 78 57 50 30 16 14 30 45 50 58 62 64 58
46 40 42 42 29 29 22 21 23 24 25 29 37 35 29 29 61 55 68 39 42 59 79 90 78 76 76 78 84 84 75 47 35 34 51 59 82 73 61 35 16 13 19 32 43 43 45 48 44
48 45 39 33 27 26 20 25 27 29 31 31 31 50 45 53 78 79 75 47 76 82 89 91 80 70 80 75 79 82 69 42 29 37 51 63 80 74 53 35 21 18 15 17 23 29 33 32 26
59 50 44 32 29 24 22 31 35 27 24 28 31 42 69 77 83 86 65 76 84 88 88 83 68 78 71 78 76 80 60 44 30 50 52 68 80 77 45 32 23 24 22 20 20 22 25 26 31
53 44 34 35 26 27 33 38 37 27 25 27 38 45 64 94 84 84 89 89 86 86 94 74 88 81 78 82 81 73 60 39 25 77 76 79 85 79 46 34 25 26 26 25 24 25 27 30 33
49 45 34 36 30 36 37 44 37 31 26 40 42 49 71 90 94 91 96 88 89 89 95 94 92 87 84 85 87 78 62 35 18 73 96 96 99 76 48 36 26 28 27 27 27 28 29 30 32
40 42 37 30 33 48 42 48 38 30 29 42 60 47 83 98 99 100 99 89 90 96 96 99 87 78 79 84 96 83 60 38 19 24 41 74 49 46 49 38 27 30 30 27 27 28 29 30 32
48 36 47 38 40 44 51 54 55 33 41 69 85 72 72 99 98 100 100 97 90 98 100 99 100 93 90 87 98 90 78 55 33 17 23 29 30 27 38 34 26 31 33 31 31 31 32 33 33
71 63 54 46 40 45 57 48 60 57 54 57 57 57 73 89 100 99 98 99 93 97 100 99 100 97 99 91 97 98 99 76 48 28 19 21 36 22 29 30 28 30 35 33 33 33 35 36 37
75 82 50 43 50 52 58 51 58 47 44 49 47 53 89 99 99 98 96 91 94 96 98 100 100 100 99 91 97 97 100 86 78 49 28 24 23 25 29 29 29 27 35 40 40 40 40 39 41
72 66 51 49 57 58 58 56 62 42 44 49 48 52 79 100 99 98 100 97 92 90 94 98 97 98 100 96 98 98 98 96 88 74 59 36 22 22 25 28 27 29 36 43 48 50 54 57 54
80 57 50 46 66 58 48 61 52 53 51 59 56 53 59 91 99 98 99 100 96 96 96 96 94 94 96 100 99 100 98 94 95 72 66 55 46 29 26 28 29 31 38 52 44 51 46 49 50
70 71 64 53 73 65 61 55 56 55 55 55 55 52 50 68 93 98 100 99 99 98 98 97 94 93 95 91 99 100 98 85 94 65 61 59 53 50 48 34 30 33 38 44 68 68 72 74 74
55 71 69 62 74 76 67 57 63 38 56 57 55 49 49 51 76 86 88 93 89 96 97 96 89 95 93 83 94 97 96 94 83 57 52 55 58 59 63 65 48 44 57 65 69 79 79 79 80
57 64 65 65 62 64 75 70 57 47 49 50 46 49 44 46 53 77 94 82 78 81 81 85 82 71 65 56 56 85 72 71 63 65 55 52 67 68 72 74 74 73 73 74 77 80 80 80 81
52 57 78 59 67 67 70 64 42 47 49 46 43 46 49 42 44 50 67 67 69 68 73 81 85 83 80 75 68 59 66 67 71 72 71 68 72 76 80 82 81 83 85 85 84 84 84 86 88
57 60 65 85 58 66 61 52 44 52 51 44 40 41 46 43 43 42 53 64 61 62 67 73 79 87 83 84 81 77 74 73 72 74 74 73 75 78 81 84 84 88 88 90 91 92 94 94 98
48 46 58 82 75 68 68 57 43 47 47 41 35 34 38 49 41 44 36 62 64 60 63 70 75 84 85 82 86 82 79 77 75 73 74 77 80 83 87 87 88 92 92 90 91 92 94 89 91
37 45 57 73 70 77 71 62 49 43 52 49 41 38 37 44 41 42 34 34 63 63 65 62 66 70 76 73 77 80 74 75 78 79 81 84 86 87 86 84 84 89 91 93 95 93 88 84 85
50 48 48 50 65 77 70 64 47 41 42 44 42 38 40 42 46 41 37 34 31 51 60 63 66 72 78 81 80 79 77 78 87 85 82 83 83 85 85 82 80 81 81 78 85 93 92 87 89
47 46 48 46 57 58 58 59 53 43 41 42 42 39 38 40 42 43 44 34 31 29 35 51 56 60 64 67 71 70 72 72 77 77 76 69 68 70 73 77 81 87 91 85 89 91 91 89 88
56 44 48 51 49 50 48 38 40 40 43 40 42 43 39 42 48 47 43 36 32 29 29 32 45 53 53 58 65 65 69 75 72 71 57 52 49 48 50 53 58 58 57 53 50 47 51 60 71
53 48 46 44 42 50 54 53 28 38 41 36 37 41 42 46 51 46 43 41 36 31 30 30 33 38 44 51 54 53 51 45 39 36 35 34 32 32 33 37 38 38 37 36 33 34 35 39 45
48 49 50 52 48 67 44 49 34 34 33 30 31 37 40 42 45 42 42 40 38 33 30 32 35 38 37 35 33 32 32 31 31 29 28 28 28 30 30 30 31 31 30 30 31 32 32 37 46
43 46 78 75 80 59 51 55 34 32 30 28 27 28 34 38 41 44 45 39 37 33 31 34 36 35 34 33 31 30 30 30 30 31 32 34 35 37 39 39 40 40 41 42 43 43 41 43 68
52 37 52 62 62 49 52 58 34 29 32 32 32 30 32 32 36 42 41 41 40 34 33 37 38 37 35 34 35 35 35 36 38 39 40 40 40 40 40 41 42 44 47 52 60 64 62 64 98
64 68 42 59 58 57 40 39 29 24 23 24 25 29 30 31 34 30 31 39 41 37 41 42 41 41 40 39 38 39 42 44 46 46 46 47 46 46 46 48 49 51 57 70 90 90 90 95 97
52 43 60 69 74 53 41 39 24 28 26 23 23 27 30 38 34 30 32 40 45 46 50 48 49 46 43 42 44 47 49 49 51 53 54 56 56 55 56 58 61 64 70 77 86 89 84 78 82
60 61 58 50 56 51 38 26 24 26 26 26 27 34 38 40 46 52 54 56 56 55 53 52 50 48 47 50 53 53 54 57 58 59 62 64 64 64 65 66 71 78 84 88 86 86 80 73 68
54 49 46 57 69 58 53 34 25 26 27 31 32 37 40 34 38 58 69 59 61 59 56 55 53 54 55 57 58 59 61 59 58 60 64 69 72 73 74 75 78 81 82 84 83 79 76 74 70

GFSSGP_850_rhum_057.txt.gz
RH
49 41 38 48 30 22 25 21 15 22 18 17 19 23 24 24 20 48 58 59 66 79 76 70 70 78 79 81 85 90 97 83 55 52 72 70 50 43 24 14 15 32 43 43 46 58 58 49 38
82 42 47 35 31 25 23 17 21 20 17 22 25 24 25 36 52 69 66 61 63 75 82 90 76 79 78 82 85 86 84 44 39 48 69 86 68 53 27 15 14 23 33 40 45 44 42 36 25
65 54 35 30 27 22 20 16 17 20 25 24 21 34 32 52 61 62 65 65 65 73 85 87 81 74 70 80 83 82 57 40 37 51 64 78 76 56 35 21 16 15 20 29 33 35 32 26 28
56 49 36 34 28 18 15 17 16 21 20 26 25 29 62 80 68 68 72 65 65 72 79 62 76 72 73 67 77 81 51 35 38 50 63 85 79 63 40 25 23 20 18 20 23 26 26 29 29
56 35 32 32 27 18 16 25 28 18 18 24 30 40 59 94 86 80 73 65 66 69 91 71 75 84 75 71 68 51 46 27 50 57 70 87 86 52 37 26 25 24 23 22 24 26 30 29 29
46 34 35 34 27 19 21 31 28 21 19 30 31 36 78 98 96 79 73 66 68 72 95 71 75 80 79 80 73 56 46 23 64 83 91 92 95 52 42 28 26 26 26 26 26 27 29 30 30
40 41 37 30 27 26 29 38 29 21 20 37 45 32 83 98 98 88 76 70 70 76 85 91 89 90 88 90 85 72 45 24 40 85 91 91 66 47 41 33 27 30 28 28 28 29 29 30 30
46 45 41 31 30 36 35 46 47 28 30 59 62 46 69 96 99 89 79 73 72 78 88 98 98 96 86 90 96 84 66 32 23 47 56 42 32 38 37 30 25 30 29 29 29 29 30 32 32
55 76 68 44 31 36 45 39 48 47 42 49 48 52 65 97 99 90 87 74 74 90 88 96 96 91 99 96 96 98 86 59 30 21 30 31 61 24 42 32 28 30 33 32 32 32 32 34 35
66 81 54 46 37 44 47 36 43 41 41 43 42 55 95 96 99 99 90 84 70 87 93 95 91 80 94 95 93 95 98 89 62 39 21 57 80 78 73 30 30 27 35 37 37 39 38 40 44
63 60 44 44 44 47 51 49 48 38 40 41 44 51 97 100 99 95 95 88 74 81 94 91 94 85 87 99 88 96 97 98 97 94 81 71 65 33 28 38 30 28 31 41 44 44 46 62 52
68 48 50 48 61 47 43 48 44 40 46 48 49 47 68 98 99 96 92 85 76 78 79 81 91 93 93 94 89 94 94 87 94 95 94 79 56 35 73 77 78 61 81 89 95 89 86 80 62
91 50 51 73 57 52 58 46 48 47 48 52 48 46 48 75 95 96 94 94 87 85 86 90 98 98 95 96 96 96 93 88 87 92 97 91 83 56 59 71 71 74 78 82 84 92 88 90 91
72 62 53 52 55 58 56 53 61 42 45 48 50 44 46 51 78 94 96 98 96 92 92 95 96 97 98 98 96 94 94 85 84 88 93 96 93 83 70 85 76 72 77 85 88 91 94 94 92
61 70 60 55 50 47 61 60 53 47 44 42 42 41 44 47 50 79 92 96 99 100 98 98 97 98 99 99 98 94 95 85 85 88 93 93 92 91 87 93 93 91 85 88 91 94 95 96 97
73 83 87 56 51 46 53 56 40 45 48 42 43 37 40 44 45 45 68 88 92 97 99 99 100 94 92 90 92 91 86 88 88 89 93 86 65 75 95 98 98 97 97 96 96 97 96 95 94
50 75 71 54 45 48 55 42 36 38 39 41 41 37 36 40 45 44 41 77 92 95 85 89 90 86 93 97 96 94 89 92 89 90 93 97 82 80 83 97 98 97 98 99 99 100 98 98 98
45 32 40 52 56 54 63 52 40 42 44 40 39 38 35 35 42 43 42 43 85 94 92 66 75 82 82 91 92 97 95 95 93 92 93 97 97 97 97 98 99 97 99 100 99 98 97 100 99
27 27 38 38 51 63 61 55 46 38 39 39 39 37 34 32 35 46 40 37 49 88 95 73 67 74 81 95 89 94 96 97 97 98 96 93 92 98 98 96 99 100 100 100 100 100 100 96 99
26 30 43 50 56 64 62 65 46 38 36 37 34 32 32 30 33 46 40 33 37 57 91 93 68 69 71 94 91 94 95 98 98 98 97 88 95 100 100 100 100 99 100 96 97 100 100 99 99
35 31 33 51 62 58 61 80 58 40 36 34 35 33 31 30 32 42 42 33 33 36 63 92 94 82 95 94 99 95 88 81 77 80 78 78 72 78 78 80 83 85 95 90 88 96 99 98 98
42 29 34 40 53 56 46 42 37 36 37 34 33 34 34 35 34 37 44 34 33 32 30 46 62 59 61 66 72 75 78 82 92 84 66 72 69 62 57 52 47 45 47 47 48 48 48 51 77
40 37 38 39 42 30 44 46 26 27 32 30 31 31 32 35 37 38 43 37 37 32 31 29 32 40 50 64 72 80 83 79 73 71 60 44 38 35 33 31 29 30 33 36 38 37 36 36 39
43 41 40 38 36 56 41 39 28 23 28 24 22 25 29 33 36 42 47 46 42 39 35 31 31 33 35 38 50 62 62 55 44 37 34 32 30 28 28 27 27 28 29 30 29 31 33 38 48
40 44 65 63 74 58 37 36 29 25 25 24 25 25 26 29 32 38 44 46 47 40 38 34 32 36 35 39 40 38 36 34 32 30 30 30 31 31 31 30 32 34 36 36 37 40 43 44 51
47 37 48 53 52 43 42 48 29 24 24 25 26 26 26 28 28 35 43 46 48 40 38 36 38 37 43 33 36 35 33 33 33 33 33 34 36 38 38 39 39 39 39 43 46 67 71 72 77
47 53 38 49 39 44 37 30 25 21 22 21 21 23 24 27 28 33 42 50 54 50 43 38 40 42 40 40 38 36 36 35 35 38 42 44 45 46 47 47 47 47 50 54 61 84 92 94 97
45 38 50 60 66 41 34 29 23 23 23 21 24 27 28 31 34 34 38 40 52 48 46 47 46 43 40 42 42 40 39 41 45 48 49 51 54 54 56 57 57 58 61 66 72 85 92 91 97
56 58 50 43 50 52 30 25 20 24 24 27 28 32 33 35 38 43 46 47 54 55 56 46 48 48 44 43 43 45 48 50 50 53 54 53 56 60 63 65 67 69 72 78 83 88 87 87 79
48 43 42 52 62 43 45 35 20 22 24 28 29 31 32 39 45 52 56 65 72 76 63 56 53 50 47 46 47 51 51 51 54 57 55 54 58 62 68 72 76 80 80 83 89 83 84 81 80

GFSSGP_850_rhum_060.txt.gz
RH
53 44 40 53 61 43 38 27 24 31 21 22 20 25 33 54 50 74 54 59 55 40 51 64 71 71 75 82 81 82 73 49 50 81 53 45 36 20 13 19 30 44 80 74 53 48 35 24 25
67 71 51 52 54 44 32 22 22 27 20 22 25 29 34 59 62 56 58 62 61 37 50 61 75 76 79 78 78 73 47 39 51 86 78 57 45 24 15 18 30 40 43 45 38 33 25 24 25
76 62 48 53 47 45 29 22 22 18 22 24 22 34 57 70 61 60 61 68 77 50 52 70 78 78 78 78 71 50 34 37 52 79 77 70 48 28 19 16 18 28 33 32 30 24 24 25 24
67 56 50 44 40 32 22 17 18 22 24 28 22 57 66 70 70 67 62 67 74 81 70 76 81 79 78 76 67 46 31 36 51 66 80 71 52 30 22 20 18 18 21 24 23 24 25 26 26
72 44 49 47 39 27 18 26 24 22 20 23 28 47 79 70 78 70 63 65 74 84 80 81 75 72 72 70 62 38 28 35 48 65 84 74 56 32 24 23 22 21 21 22 24 26 26 26 27
68 51 47 45 38 27 25 28 26 24 19 24 25 67 93 75 77 71 64 66 69 77 82 66 78 84 74 74 54 42 25 40 55 73 92 88 58 40 28 25 25 24 24 24 25 26 27 27 28
71 59 58 39 33 27 36 33 33 25 20 42 49 29 89 73 76 71 64 66 70 82 81 66 84 76 80 80 66 52 26 46 57 83 92 87 38 39 31 26 27 26 26 26 26 27 27 28 29
63 59 50 43 34 35 44 43 43 37 44 53 52 67 87 76 70 72 67 67 73 83 84 78 82 79 84 85 85 60 34 32 74 87 82 50 32 38 34 25 26 27 26 25 26 27 28 29 31
54 81 66 50 36 41 41 44 43 39 44 47 48 63 84 78 71 75 73 70 75 84 80 88 92 92 86 89 94 85 60 31 38 53 53 42 35 23 35 30 24 29 29 29 29 29 30 32 32
71 96 61 40 42 44 42 39 42 41 43 43 52 82 93 91 65 77 77 72 75 85 87 86 92 87 92 96 92 96 78 57 35 22 23 34 86 58 25 29 28 24 31 34 34 36 37 37 34
78 75 58 47 54 40 44 43 44 40 52 44 46 77 98 98 87 75 78 71 83 73 76 88 86 95 81 84 89 92 81 83 90 68 36 64 71 57 40 30 28 27 27 33 41 44 46 38 45
76 54 57 69 53 60 50 46 42 44 47 47 48 53 85 97 98 95 78 70 81 77 76 90 83 93 90 87 91 88 75 96 88 98 82 74 55 33 36 50 40 31 33 47 68 62 84 76 63
77 63 75 77 68 65 57 46 52 50 49 45 46 46 61 89 92 88 84 80 79 78 81 80 86 84 83 84 86 87 85 88 86 93 85 87 71 51 36 51 58 50 59 70 76 76 81 87 90
77 83 74 82 73 77 60 52 51 48 45 47 45 44 48 65 88 94 90 86 76 78 82 82 83 83 84 85 83 89 88 90 85 88 87 83 90 69 53 64 59 56 57 61 72 78 93 91 91
72 70 80 67 68 57 59 59 60 43 45 44 42 42 44 47 73 87 85 78 84 83 84 83 91 91 90 88 90 89 92 87 85 86 88 88 79 83 81 80 91 81 72 72 83 86 81 80 78
76 80 95 78 84 69 57 69 48 45 44 47 47 41 40 42 45 62 85 84 86 93 94 93 91 90 91 88 91 92 90 87 87 87 89 89 76 72 84 84 87 91 97 91 82 82 90 94 95
81 94 97 83 55 57 57 52 38 34 42 43 46 43 40 39 44 44 49 87 91 94 96 93 94 94 90 94 86 85 90 89 82 88 92 93 79 81 83 88 94 96 92 95 98 98 97 96 92
92 80 80 86 61 51 60 58 43 36 39 42 41 41 40 37 39 43 44 58 89 92 95 96 98 86 93 90 94 90 86 87 88 90 92 93 95 92 92 92 97 97 98 97 98 98 94 95 94
48 56 67 64 62 54 61 59 51 38 41 44 43 38 39 38 35 41 41 43 67 91 92 87 80 80 85 88 89 96 90 91 92 93 94 96 99 99 100 95 99 99 96 97 97 95 99 98 99
34 42 59 53 56 60 62 61 52 46 42 39 39 39 40 38 35 40 41 40 42 70 82 92 74 74 78 82 81 88 92 88 87 90 91 95 96 99 97 98 98 94 96 98 98 99 98 96 94
43 36 68 65 66 58 63 74 65 52 44 39 37 36 35 39 37 39 42 40 39 44 73 86 89 80 81 81 88 94 96 96 94 96 95 99 96 95 89 87 90 91 99 99 96 95 97 97 97
42 28 43 66 73 82 61 64 63 55 51 44 39 35 34 33 33 35 38 41 40 37 46 72 85 96 96 94 89 72 67 81 86 90 90 77 70 77 80 72 59 50 43 37 35 37 42 48 57
45 40 55 64 59 53 68 64 36 51 49 43 36 34 34 33 34 35 42 40 40 33 33 36 59 69 64 66 67 66 70 85 86 94 91 82 78 57 40 36 33 30 28 29 33 37 38 39 42
38 43 43 42 46 77 44 51 44 37 35 29 26 31 31 32 34 35 45 44 37 34 32 31 31 43 64 64 65 70 70 75 79 81 79 55 37 32 30 28 28 28 28 30 30 32 35 38 44
41 54 88 89 88 82 41 49 40 31 28 26 25 25 26 28 32 34 39 48 46 40 37 35 32 32 41 56 35 36 55 56 55 44 36 32 31 31 30 30 30 32 34 36 38 38 38 42 48
50 49 78 67 81 67 41 55 39 30 23 25 27 28 27 27 27 31 38 40 46 46 42 40 37 32 35 46 37 37 45 37 34 32 31 33 32 33 35 37 40 42 42 42 43 46 47 63 87
56 72 42 63 42 75 54 36 27 28 25 23 23 24 26 26 27 29 41 44 46 46 44 40 37 35 34 34 37 38 39 36 35 33 33 37 40 41 43 44 45 48 49 50 50 54 57 95 99
55 40 63 84 69 46 43 36 36 32 30 33 35 33 34 34 33 32 31 40 49 47 48 48 42 41 40 37 36 40 40 36 34 38 42 43 46 46 48 51 53 56 57 60 64 71 80 95 99
59 68 56 56 70 84 55 43 26 33 34 37 35 32 33 36 40 43 44 41 44 54 56 56 59 54 46 46 50 40 37 37 43 46 48 47 49 50 48 49 54 62 67 71 78 81 89 96 92
59 54 48 82 74 62 65 48 25 31 31 28 30 30 32 36 36 41 50 54 52 59 64 68 66 59 56 51 50 48 47 44 42 41 44 52 55 55 51 57 63 69 71 77 90 84 86 93 92

GFSSGP_850_rhum_063.txt.gz
RH
52 47 46 55 57 64 58 34 28 40 33 26 25 30 67 64 67 65 78 69 67 57 51 57 60 67 77 79 77 68 52 54 90 54 34 26 14 14 18 27 56 83 50 35 34 25 24 24 23
52 64 58 56 69 65 44 29 26 42 36 22 29 45 63 69 60 79 76 70 52 48 56 61 66 76 78 75 70 51 45 62 68 52 43 26 15 15 28 30 27 26 33 32 27 24 26 25 24
62 66 56 68 64 64 47 24 23 26 24 22 30 42 66 71 62 66 70 77 50 51 61 70 77 77 79 67 48 35 44 67 75 70 50 32 19 15 19 26 28 29 30 27 24 25 24 25 25
73 68 57 58 49 46 36 30 22 28 24 27 28 71 66 70 73 80 78 73 55 56 66 78 80 80 77 66 41 32 42 57 72 78 50 33 23 20 17 18 21 23 23 22 24 25 25 26 26
74 62 80 66 53 36 26 26 25 24 26 30 26 68 63 77 69 74 75 76 52 59 72 80 83 81 81 66 40 30 40 48 67 79 58 41 26 22 21 19 19 20 21 22 24 25 26 27 27
71 64 67 67 52 37 35 34 28 25 23 30 38 50 70 67 71 68 78 72 66 76 77 84 80 75 76 67 37 28 36 47 67 82 71 56 36 24 23 22 21 22 22 23 25 26 27 28 28
81 84 78 52 45 39 45 27 45 45 40 56 47 68 75 56 66 68 76 71 74 84 78 72 75 72 74 58 44 26 36 46 71 86 74 37 33 28 25 24 24 24 24 24 25 26 28 29 29
68 84 65 61 43 46 42 34 40 42 54 49 51 88 86 70 71 67 76 80 78 85 80 68 81 73 72 65 54 30 42 49 58 79 53 32 30 28 24 25 25 24 24 25 25 26 28 29 31
69 88 83 61 51 48 42 43 40 44 49 52 59 72 57 58 53 83 74 78 81 80 78 75 78 74 75 69 66 39 30 64 76 81 60 33 26 28 28 25 26 28 27 27 27 28 29 30 31
81 84 73 52 52 47 43 36 38 46 51 83 90 74 80 61 46 49 74 76 82 80 82 83 87 86 80 63 51 59 35 28 49 57 38 32 42 31 28 28 25 24 28 30 31 33 34 34 34
72 87 66 65 58 43 46 44 41 50 56 52 81 79 76 69 59 48 64 77 74 82 81 82 89 88 84 82 64 53 59 41 32 24 24 45 44 41 31 30 28 26 25 27 33 36 40 44 42
93 66 58 63 59 52 52 45 53 48 50 49 60 68 78 76 62 66 61 72 86 75 78 79 90 84 88 84 80 70 69 58 58 62 47 55 55 50 28 31 36 32 33 35 39 38 43 56 64
80 88 69 62 69 64 52 54 54 51 46 47 60 66 89 80 79 65 67 65 72 80 78 73 85 86 89 92 88 89 77 78 89 83 83 71 66 43 35 35 42 39 36 39 47 52 67 71 81
86 86 89 69 87 73 66 60 50 52 46 44 48 51 78 83 87 76 74 73 74 79 81 77 78 87 94 84 80 83 84 88 90 90 86 77 65 59 48 46 51 48 44 47 54 67 80 90 87
85 89 87 95 91 89 64 67 60 48 46 46 44 46 45 61 81 82 76 81 81 75 84 80 79 85 83 79 80 83 83 87 86 87 86 79 70 62 56 53 65 72 63 61 66 75 81 85 84
86 92 94 80 84 74 60 71 55 47 46 47 46 45 45 44 55 80 83 79 79 82 78 81 81 81 83 84 83 86 89 86 84 85 87 80 70 64 64 66 77 81 81 81 83 83 84 90 94
84 99 94 81 88 84 61 66 51 43 44 45 46 44 43 45 43 44 64 78 81 80 80 79 81 86 86 85 84 82 89 86 84 87 87 86 85 64 70 74 82 90 93 95 96 96 96 92 89
94 95 87 81 86 74 80 65 50 39 40 40 43 42 42 42 43 41 40 55 73 83 90 90 89 88 87 87 86 88 92 89 89 88 86 93 91 82 74 80 89 97 97 96 95 94 92 94 87
65 72 70 74 72 92 82 65 58 47 41 42 42 42 39 41 41 42 39 40 54 66 72 80 93 89 94 91 89 84 80 90 87 84 90 91 93 96 97 98 97 95 97 96 97 96 94 90 89
62 66 64 57 59 78 70 68 60 54 49 42 41 43 43 40 37 40 42 41 45 48 59 68 74 73 85 86 82 83 80 79 87 92 92 93 95 98 97 98 98 98 97 98 98 98 96 94 90
66 65 62 67 67 68 65 77 72 56 51 47 45 41 39 40 40 39 41 40 38 43 52 58 64 66 72 81 88 94 96 94 92 92 90 92 95 99 97 98 100 99 97 96 97 95 95 95 85
61 51 57 68 86 92 70 86 75 61 63 56 48 44 39 36 35 40 39 41 40 38 38 59 59 65 68 73 85 93 86 75 76 89 89 99 99 92 86 87 88 95 84 61 44 39 36 42 42
72 46 63 77 71 77 80 79 57 66 72 61 50 44 39 35 34 38 40 38 39 39 38 40 64 61 63 66 71 70 68 71 78 79 85 84 90 85 80 74 48 38 34 30 29 30 30 35 39
50 77 80 69 66 78 74 70 58 62 58 49 43 40 36 34 34 34 35 41 42 38 36 37 44 71 67 66 69 66 68 62 63 70 75 73 79 82 47 33 30 29 29 29 29 31 34 36 42
52 63 98 96 86 78 48 54 51 34 31 31 31 28 30 32 34 35 35 42 44 40 35 34 34 35 59 68 70 67 69 62 57 64 76 87 64 36 30 29 30 30 31 32 34 37 38 40 44
52 53 81 85 93 74 47 59 44 31 29 28 26 26 26 26 28 32 44 41 43 44 40 34 33 32 32 38 50 60 68 78 78 58 46 43 36 29 33 31 30 33 37 41 43 43 44 45 52
54 75 46 67 54 81 59 43 34 30 32 31 33 32 32 29 30 30 32 48 46 44 45 46 40 39 36 35 34 35 39 46 49 41 34 36 37 35 35 40 39 42 46 49 51 50 48 50 64
54 43 67 85 63 58 63 44 46 39 46 43 41 36 34 32 31 31 31 44 50 48 48 49 48 42 40 42 40 34 33 37 37 34 34 36 38 40 39 44 44 48 49 53 57 57 57 59 83
66 67 60 64 76 84 58 48 31 40 42 45 38 35 36 35 33 33 32 32 32 43 49 50 51 49 43 46 48 44 42 43 41 40 38 39 39 38 40 43 47 51 51 56 68 68 71 76 84
65 60 54 82 70 73 74 53 32 39 40 36 34 33 37 38 37 36 36 36 32 37 46 52 58 56 52 53 53 52 48 49 48 50 52 50 48 46 50 46 48 49 57 62 73 80 77 85 96

GFSSGP_850_rhum_066.txt.gz
RH
75 62 54 63 60 71 67 44 33 40 38 28 34 41 69 67 64 63 80 64 68 54 67 66 69 77 80 77 67 50 79 89 64 26 16 13 26 49 82 97 78 62 39 25 20 21 21 34 47
79 60 70 62 68 74 52 34 29 38 47 36 38 59 66 74 76 87 95 79 76 53 63 65 73 80 77 74 60 47 91 85 37 28 14 12 15 19 42 60 47 31 24 21 22 24 22 32 44
79 70 64 80 77 64 49 27 25 38 34 41 35 57 68 75 84 90 85 91 72 55 59 69 72 77 76 67 46 45 74 51 43 28 16 13 19 21 23 22 24 24 21 22 23 24 24 25 31
78 75 67 74 70 48 37 28 27 40 54 39 44 69 71 84 79 77 86 86 60 61 64 78 78 77 66 45 36 50 75 66 58 29 20 16 16 20 20 20 21 20 21 23 24 25 26 27 29
69 74 77 85 64 38 33 28 30 43 41 45 36 72 77 95 74 80 86 71 64 71 76 80 80 76 64 44 37 49 71 77 67 36 24 20 17 17 19 20 20 20 22 24 25 26 27 28 28
78 73 81 82 60 38 31 24 34 30 32 36 36 62 82 95 93 92 85 69 69 78 84 86 81 78 61 45 37 46 60 78 83 48 33 24 22 20 20 20 21 22 24 25 27 28 29 29 29
80 89 77 62 55 43 35 24 43 44 44 54 42 49 72 96 92 97 84 76 62 79 84 88 83 78 68 43 31 41 51 72 90 63 46 31 25 24 23 22 22 23 24 25 26 27 28 29 30
80 88 82 62 51 48 35 27 40 49 59 53 56 80 91 56 58 88 88 85 74 78 86 86 78 76 65 44 28 34 45 66 89 70 35 30 29 25 25 24 24 24 24 25 26 27 28 30 32
84 90 84 73 50 47 39 43 41 47 52 54 57 62 60 58 71 82 92 92 94 89 82 71 84 79 68 52 35 34 45 55 72 62 36 31 30 28 25 27 27 27 26 27 27 28 29 30 31
89 86 80 55 52 48 48 40 43 53 75 91 79 60 62 68 70 69 81 95 91 94 87 69 80 80 76 66 45 32 49 48 68 63 41 28 28 30 32 28 25 29 29 30 30 32 34 35 36
85 82 69 62 63 54 48 44 47 55 57 77 91 73 62 55 45 40 44 82 90 85 81 71 82 81 81 70 58 44 32 59 67 58 35 27 40 34 30 32 29 26 28 32 35 36 36 40 44
88 74 76 63 66 61 52 46 60 51 52 52 71 77 58 60 58 46 45 59 87 95 86 81 81 84 88 85 68 59 54 34 30 27 24 24 32 37 33 29 31 28 28 31 36 42 41 56 63
87 73 82 74 78 74 57 58 58 52 54 56 58 77 84 68 67 54 53 64 54 69 83 84 83 78 84 86 88 85 74 64 54 63 46 41 42 44 34 31 36 37 34 36 41 47 53 64 71
82 74 73 82 84 83 69 62 51 51 51 60 51 67 78 68 74 73 71 59 56 61 69 90 83 79 80 85 88 88 88 74 73 78 74 75 65 59 49 36 37 42 41 45 51 60 69 75 78
91 91 86 83 91 90 82 68 67 50 48 50 48 56 69 62 67 71 76 78 74 79 71 75 81 83 77 94 84 79 82 84 86 86 86 87 79 69 58 46 48 54 57 57 61 69 77 80 85
89 84 97 80 84 92 87 80 65 54 48 50 49 48 45 57 60 69 75 74 76 66 73 75 62 85 78 82 80 77 81 86 84 85 87 86 83 68 67 62 62 79 81 80 80 82 84 86 90
94 100 94 93 89 90 84 79 60 51 48 48 48 47 47 49 56 58 74 77 76 71 70 62 67 74 84 81 73 77 85 83 83 83 84 87 84 81 68 70 77 85 89 90 92 94 94 89 89
92 100 97 96 89 82 92 87 60 46 47 45 45 45 46 46 44 41 48 68 79 78 76 81 82 85 82 82 84 83 85 87 84 83 84 88 87 89 82 76 84 90 94 92 92 91 92 92 90
66 77 87 84 87 88 87 82 74 52 49 51 44 41 41 44 43 42 40 40 63 73 78 78 81 79 80 81 85 85 84 85 87 86 86 88 88 94 94 88 91 92 91 92 94 95 93 86 89
59 63 74 79 81 78 87 82 64 58 52 48 44 42 42 39 41 43 43 42 46 56 64 71 72 80 82 83 85 85 87 87 91 88 88 83 86 90 92 93 93 95 96 97 96 96 94 94 96
68 59 70 74 73 76 87 90 78 60 54 49 46 42 43 43 39 37 36 42 42 45 45 54 55 63 67 72 73 86 92 91 91 92 85 87 90 90 94 94 96 96 98 98 99 98 98 94 83
76 57 63 65 79 86 78 88 70 62 62 59 50 46 45 42 42 41 39 38 42 41 39 46 56 58 65 69 74 76 75 77 78 77 86 88 93 94 95 98 97 100 99 99 99 98 71 60 38
61 58 81 79 89 89 90 86 58 67 70 56 52 46 43 42 41 38 35 40 39 40 40 49 54 57 62 68 69 70 73 74 70 71 71 82 85 82 74 72 83 88 87 59 38 33 30 31 33
65 84 87 81 91 98 80 79 57 65 67 63 57 48 42 39 40 38 35 39 42 41 41 40 51 54 55 62 65 69 71 73 73 73 72 69 60 62 64 66 74 45 33 30 30 30 30 32 36
66 73 98 97 98 84 67 71 58 39 37 46 43 38 39 39 40 38 37 36 42 43 42 39 41 47 53 56 63 64 68 70 68 71 69 61 55 59 63 63 34 30 30 32 32 34 35 36 39
60 61 92 88 89 72 53 67 45 34 33 31 30 30 30 29 30 35 39 39 38 43 44 41 37 36 39 47 57 67 67 67 61 61 68 70 74 72 53 34 35 35 31 36 36 41 40 43 44
56 75 50 75 66 78 60 44 35 36 44 42 39 34 34 31 31 30 31 44 44 44 44 40 38 36 36 37 38 52 65 66 60 60 62 69 56 42 35 33 32 31 31 35 41 44 48 50 52
52 46 65 80 71 65 64 50 52 44 47 43 44 40 38 36 34 32 29 33 48 49 50 51 50 47 44 42 43 49 59 62 58 40 39 40 40 38 34 34 37 39 42 45 46 45 47 50 57
67 63 65 67 76 76 63 50 34 45 48 46 42 39 38 37 37 38 38 37 33 33 44 51 53 53 52 48 45 48 51 46 42 41 46 38 36 37 41 45 46 48 50 49 49 47 53 54 75
67 61 60 78 67 78 71 54 40 43 45 44 42 41 41 43 42 42 40 40 40 39 37 35 44 58 59 57 51 48 50 47 48 46 44 42 44 52 53 49 50 55 54 52 53 59 66 67 98

GFSSGP_850_rhum_069.txt.gz
RH
80 78 68 65 69 76 64 58 39 52 44 32 43 53 67 72 58 59 88 72 58 72 68 68 70 72 80 68 46 51 86 77 28 19 41 83 92 92 91 82 67 48 24 18 19 23 31 37 44
82 80 72 74 80 73 58 45 38 68 52 44 40 66 69 79 89 97 99 77 58 66 69 72 73 79 77 63 43 73 89 51 21 13 18 52 79 97 91 73 58 23 18 19 20 23 30 28 30
96 80 73 91 91 63 55 36 31 38 41 47 48 60 69 95 100 96 93 91 64 71 77 78 79 77 72 56 53 88 79 30 20 12 13 18 43 54 55 39 24 18 20 21 22 24 28 27 27
78 77 71 88 87 62 36 29 28 60 59 59 51 57 76 100 94 89 85 90 68 88 82 80 80 76 74 50 50 85 47 34 21 14 17 19 20 20 20 20 20 20 22 23 24 24 26 28 30
82 72 85 90 80 48 39 32 44 53 74 56 54 50 79 93 78 79 88 92 72 90 81 78 80 76 66 42 47 73 50 35 25 17 16 18 18 19 20 20 20 22 24 24 25 26 27 28 31
86 72 95 97 70 49 37 34 48 45 62 61 66 56 67 81 100 97 88 87 77 83 84 83 82 72 54 39 52 78 74 53 33 21 18 17 19 20 21 22 22 25 25 26 26 27 27 28 29
90 86 85 83 68 48 36 31 41 43 57 64 54 49 71 70 100 98 83 78 72 79 85 83 82 74 52 39 48 77 92 74 52 30 23 21 20 21 22 23 24 26 28 28 29 29 30 30 30
89 80 89 83 69 53 35 38 38 40 51 39 40 59 83 72 86 94 88 80 78 85 89 86 88 81 67 42 43 57 83 88 77 46 30 25 24 23 23 23 24 25 27 28 29 30 31 32 33
91 96 91 80 66 49 37 46 47 52 51 55 49 50 53 59 55 92 94 89 86 90 92 90 85 82 65 44 37 49 64 90 85 60 33 28 26 26 26 26 26 27 27 28 29 31 32 33 33
88 92 74 64 49 46 45 39 50 57 68 72 66 49 57 43 55 82 90 94 95 90 88 86 74 75 63 50 33 48 56 82 84 59 44 34 31 27 27 29 30 29 29 29 29 31 33 36 39
74 89 66 59 62 65 49 44 48 64 72 68 65 61 52 53 53 55 81 97 95 96 96 83 75 72 68 57 36 52 53 63 74 72 49 38 35 35 33 30 28 31 32 33 34 37 40 42 48
79 74 64 54 74 74 55 45 59 51 46 51 68 88 54 50 52 45 51 56 50 79 96 91 90 75 76 71 53 33 55 62 74 73 59 31 43 46 39 38 31 29 30 33 39 44 48 59 68
81 75 78 71 80 84 68 58 58 54 51 53 63 86 89 81 76 70 61 63 67 51 91 94 96 86 81 81 70 63 53 37 43 46 34 28 36 49 44 35 38 37 33 41 47 51 58 68 72
70 75 76 82 88 86 79 64 55 54 69 53 64 64 66 79 78 74 72 69 65 46 57 55 74 93 77 77 82 81 80 75 56 51 52 47 51 55 55 39 43 44 44 49 55 59 66 75 78
81 87 90 87 90 88 94 74 73 54 74 73 63 72 65 63 60 62 56 51 43 51 60 47 63 94 91 88 62 67 72 84 77 72 73 73 80 69 64 58 46 52 50 54 57 63 72 78 82
85 92 96 88 83 89 89 85 68 57 65 59 61 73 59 65 64 59 55 53 55 54 66 67 59 51 73 82 79 73 70 80 80 80 83 82 83 85 74 68 50 58 68 71 71 76 80 86 89
88 100 95 92 81 90 90 84 66 56 54 55 52 48 52 66 62 62 62 65 72 68 71 79 65 65 54 66 74 68 88 84 82 84 83 82 87 90 85 72 64 70 81 84 89 90 91 89 84
93 97 90 94 93 90 89 83 67 63 56 52 51 50 46 46 59 66 67 68 70 76 73 71 74 60 64 64 65 70 76 88 86 82 84 85 87 91 92 83 74 79 89 88 89 88 89 88 88
77 96 96 88 88 86 88 89 75 76 58 55 49 49 46 45 43 42 46 64 67 74 74 78 77 76 81 84 78 88 84 84 85 84 84 83 85 90 95 97 82 89 95 90 90 91 91 92 87
78 94 98 88 88 78 87 88 81 84 74 52 47 44 41 42 43 43 41 43 67 73 68 74 75 78 76 76 73 82 82 83 81 81 86 86 87 86 83 87 88 88 88 92 91 87 90 92 91
71 91 96 94 88 84 88 88 87 84 75 55 50 48 42 38 36 38 42 41 41 56 66 69 72 69 78 78 81 84 84 82 83 82 85 86 89 86 88 92 92 93 92 93 95 96 95 97 94
72 60 66 82 78 94 84 94 73 72 68 61 54 51 49 45 44 42 40 39 39 37 43 54 56 64 67 71 69 73 72 65 74 69 79 85 83 82 81 85 84 83 86 94 98 96 98 100 85
79 69 62 68 87 89 92 95 66 66 68 63 55 48 44 44 44 42 41 41 40 38 38 40 46 52 64 63 64 69 71 70 73 76 81 74 76 77 83 86 76 80 64 66 68 91 65 40 33
68 83 90 86 97 99 88 84 61 62 64 58 51 46 42 41 41 40 42 40 36 37 40 40 44 47 52 53 60 58 65 66 75 78 84 76 74 72 82 80 74 64 63 71 50 32 30 30 32
68 71 98 97 98 97 82 84 65 48 44 50 52 46 43 41 39 38 39 38 36 39 43 44 42 42 47 54 56 58 62 67 68 74 88 72 77 84 77 77 68 64 75 39 32 32 32 33 38
72 64 86 88 95 90 68 82 48 38 40 38 37 37 35 34 35 39 39 38 38 39 44 44 43 41 43 48 55 58 61 64 68 71 77 76 91 76 73 64 72 53 34 34 32 34 39 42 41
85 77 54 72 65 77 65 46 37 44 50 47 45 38 37 34 33 32 35 45 47 46 48 47 43 41 39 37 38 41 46 58 69 70 75 74 73 70 67 59 37 35 34 34 40 39 42 44 45
54 50 67 81 74 66 64 54 56 45 51 50 53 47 44 42 40 40 38 36 42 50 52 51 49 48 47 45 44 42 41 47 65 76 75 76 73 52 38 37 42 45 36 42 44 45 47 48 48
62 64 66 69 75 78 70 53 36 43 50 56 50 47 46 45 46 45 43 42 42 41 37 36 44 51 54 54 53 51 49 53 63 69 68 45 49 54 58 45 39 40 46 51 50 49 50 51 53
73 63 61 76 71 80 70 58 51 54 50 50 54 50 50 48 47 45 44 43 41 43 46 47 47 47 50 56 60 60 56 56 57 54 57 52 54 52 44 43 47 54 50 51 52 49 50 59 68

GFSSGP_850_rhum_072.txt.gz
RH
88 85 74 66 86 72 73 67 48 47 52 50 44 61 67 78 60 61 96 88 71 71 75 78 66 68 78 60 43 79 86 62 44 69 82 83 84 87 81 74 61 34 17 18 23 30 32 33 38
80 80 75 74 89 88 66 50 42 54 60 48 43 66 71 87 98 98 98 87 75 71 75 78 72 72 76 52 46 81 84 34 21 53 88 89 88 84 80 62 38 17 18 20 27 30 29 31 33
84 80 81 82 80 79 63 47 42 52 51 57 51 60 71 99 97 92 96 90 75 73 79 80 74 77 71 43 56 85 69 23 15 30 78 92 92 85 72 54 19 18 19 22 27 27 27 28 30
82 81 76 90 80 67 52 43 44 68 63 60 76 60 65 88 98 98 91 83 78 77 84 79 80 80 67 44 83 84 41 21 12 14 47 69 77 60 46 21 18 20 22 23 26 28 29 28 30
87 89 91 96 73 68 48 33 40 58 70 66 60 62 59 63 87 95 100 84 80 81 80 83 82 75 65 48 86 82 33 19 14 17 17 30 40 23 19 19 21 22 24 25 26 29 31 31 33
88 80 99 96 81 62 47 34 35 55 58 60 79 79 63 65 100 99 100 82 80 81 82 83 83 74 66 50 82 63 39 24 16 19 20 19 18 18 19 20 23 24 25 27 28 29 30 31 34
95 95 83 87 82 72 50 40 55 61 66 60 46 67 63 62 85 100 99 86 77 82 84 85 83 71 51 49 78 76 58 35 21 18 20 21 20 21 21 22 26 27 27 28 29 30 31 32 33
93 86 82 79 80 78 47 39 38 52 58 51 52 72 66 70 76 100 100 90 76 84 85 88 82 72 48 44 75 88 75 61 38 25 20 20 22 24 24 24 26 28 29 30 31 32 31 32 34
85 94 81 78 77 65 41 44 44 46 50 46 51 40 48 54 76 92 100 87 82 89 90 88 85 77 53 41 57 88 93 83 63 41 29 26 24 24 26 27 28 28 29 30 31 32 33 34 34
91 87 72 56 62 63 42 45 46 65 58 66 60 54 54 70 68 85 88 97 90 95 94 87 87 80 66 42 44 69 90 93 85 50 35 29 28 28 29 29 30 31 30 31 32 33 35 36 37
82 86 59 67 57 54 46 58 46 69 68 62 57 63 58 57 53 72 67 100 98 95 95 88 83 80 67 46 35 49 70 96 87 58 44 38 35 29 29 31 31 31 32 33 34 36 40 43 44
91 69 65 56 55 68 66 54 58 61 49 53 56 52 50 46 55 66 70 65 98 98 95 96 88 82 74 54 37 44 53 76 90 74 52 40 38 39 38 35 33 32 36 37 39 43 46 55 66
93 75 67 65 60 66 72 74 74 57 42 47 62 58 49 50 50 54 65 65 87 94 92 98 94 93 86 73 55 36 55 59 67 79 75 52 40 51 47 44 39 35 32 35 42 49 52 62 72
80 74 65 68 62 72 81 78 76 63 60 62 70 64 58 49 57 68 72 71 54 63 65 58 68 75 93 84 81 62 50 44 58 76 71 42 35 50 56 49 40 47 41 47 51 54 60 69 74
62 85 84 72 70 73 87 80 84 67 64 55 59 64 62 70 80 72 58 66 66 58 61 60 55 46 60 82 75 78 82 74 69 50 48 54 56 70 72 68 50 54 55 54 59 62 68 74 78
90 81 95 70 82 98 80 84 78 72 79 74 55 62 57 62 65 63 64 55 73 71 72 52 49 58 52 64 74 86 78 71 74 80 79 79 79 85 84 75 70 59 62 63 65 70 76 82 86
88 95 100 91 83 90 85 92 80 69 69 65 67 72 61 61 66 68 66 66 66 59 53 54 56 55 51 78 77 75 78 81 78 70 73 83 85 89 90 86 76 64 68 82 84 90 92 91 88
95 98 95 98 89 86 92 87 72 75 67 65 60 58 74 63 58 51 54 59 55 56 53 56 68 56 68 80 78 74 68 78 77 76 90 87 81 85 89 92 90 83 80 87 92 91 86 89 87
73 79 100 95 87 86 91 85 78 77 77 61 60 55 56 58 70 63 58 61 63 62 69 66 69 59 69 60 67 69 76 70 66 76 90 84 82 86 87 89 95 92 91 92 88 91 91 88 88
74 83 93 87 87 82 84 89 82 83 88 80 66 53 49 49 47 50 51 56 62 64 69 75 85 81 79 71 68 63 54 58 60 71 87 84 82 85 85 93 90 88 92 89 88 87 85 82 90
84 89 96 99 88 85 87 93 92 79 81 71 64 54 48 44 41 43 44 45 45 53 67 69 71 78 82 87 82 77 75 77 77 84 85 85 80 87 86 88 89 84 83 84 86 83 86 85 93
89 74 78 94 83 97 78 98 89 90 80 75 72 56 48 44 40 37 37 38 42 42 42 58 68 73 75 80 86 100 92 87 94 93 90 79 81 80 76 82 81 84 85 86 83 81 95 90 94
92 69 74 78 87 89 94 97 74 77 88 72 68 55 48 45 44 43 42 42 40 40 38 38 44 58 61 63 65 66 73 80 70 64 74 88 88 87 85 78 78 82 87 78 73 70 60 61 77
75 84 86 92 92 95 90 82 61 60 58 61 59 51 47 47 46 44 42 41 39 38 36 38 40 43 55 57 61 62 63 68 69 75 74 67 80 73 77 84 81 85 74 70 77 66 66 50 32
78 86 98 98 98 97 80 83 78 47 47 48 52 50 47 45 43 41 39 40 39 37 37 41 42 44 48 58 57 58 61 64 62 69 68 74 79 72 78 90 92 88 82 73 75 72 34 35 33
75 67 86 90 96 97 90 83 56 44 49 48 48 48 42 38 40 48 45 42 41 41 43 47 48 46 44 43 48 60 60 64 62 64 64 69 74 80 88 98 95 83 74 80 45 35 33 35 38
75 79 58 74 68 93 78 48 38 50 55 54 55 49 52 49 44 41 45 53 52 50 48 49 48 46 44 43 41 40 39 39 40 44 57 66 73 81 84 81 71 75 79 39 38 37 42 44 45
60 52 67 81 76 79 69 56 57 52 60 59 62 59 54 51 49 47 45 43 42 44 48 52 52 51 52 52 51 49 48 47 44 43 50 68 73 77 78 81 78 65 43 40 44 44 47 49 50
62 66 66 70 78 76 74 53 46 45 52 59 65 61 58 53 52 49 46 44 42 41 40 39 37 38 40 46 53 54 53 50 48 53 72 90 92 87 72 48 46 46 47 46 46 51 50 52 54
77 65 58 79 69 78 69 61 64 52 55 62 67 65 64 61 56 52 48 45 42 41 40 38 41 41 41 40 41 47 54 59 56 57 66 74 75 62 57 56 57 52 48 53 52 50 53 52 55

GFSSGP_850_rhum_075.txt.gz
RH
83 88 86 78 78 74 65 59 48 45 48 50 48 65 62 78 55 50 94 94 75 73 76 79 69 64 62 57 40 78 57 57 84 83 73 63 76 83 82 76 61 21 18 22 28 33 35 36 36
85 86 86 81 81 71 59 44 50 44 53 53 48 63 72 74 96 92 94 96 84 72 79 78 74 69 68 53 56 81 64 50 76 84 84 84 90 84 75 61 28 17 21 29 32 32 33 35 38
85 89 94 91 70 63 61 41 40 42 56 56 64 61 73 92 95 91 89 93 86 77 78 78 74 74 70 46 72 85 45 32 66 87 86 88 83 80 62 34 16 18 26 31 31 33 33 35 38
86 79 85 95 72 50 53 40 36 39 62 62 69 77 70 78 93 95 92 86 85 79 78 80 78 78 64 45 76 86 40 19 41 88 92 90 87 75 54 18 18 20 26 29 30 29 33 38 38
94 90 85 92 78 55 48 43 39 42 49 69 68 80 67 74 66 93 88 88 83 82 82 84 81 79 60 66 81 83 30 16 20 78 95 98 81 63 32 17 21 22 25 28 29 31 32 33 34
88 80 88 86 67 58 52 48 43 45 59 63 69 61 73 69 64 98 96 81 84 79 83 85 87 77 54 79 86 76 32 16 14 38 70 72 56 27 19 20 23 24 25 27 29 31 32 33 34
89 87 78 66 67 69 55 50 48 44 56 59 56 64 63 75 71 76 100 82 85 80 84 87 90 80 56 83 83 59 37 20 21 20 30 41 27 20 21 23 26 27 28 29 30 31 32 34 35
90 79 73 65 71 67 54 51 43 48 54 52 54 57 59 43 72 63 100 95 82 83 81 85 88 77 59 62 80 68 50 31 21 26 29 35 24 24 24 27 28 29 31 32 33 33 34 34 36
83 87 79 65 61 62 52 53 46 45 53 54 59 46 39 44 76 78 90 100 92 91 88 85 89 76 49 51 85 78 70 53 30 23 26 29 29 27 26 28 30 30 32 32 33 33 34 36 36
88 88 71 46 47 58 48 50 48 52 56 61 60 56 48 36 61 85 88 92 98 92 91 92 84 74 51 48 85 90 86 75 58 34 26 25 26 27 28 28 30 31 32 31 32 33 34 35 36
83 86 58 55 52 54 53 58 53 62 62 57 58 61 71 65 63 55 71 85 100 99 94 94 87 77 61 43 62 84 93 85 81 50 34 30 30 29 29 29 30 31 32 32 33 34 35 39 42
82 68 67 60 54 60 57 52 56 60 57 48 45 54 74 73 63 53 69 87 91 98 100 89 90 84 75 51 41 60 83 97 82 66 49 44 36 32 32 32 33 33 33 35 36 39 45 48 55
84 69 70 68 62 64 60 66 52 53 44 48 59 55 62 71 65 65 73 68 73 99 100 99 96 85 83 61 46 45 56 74 99 84 54 46 45 43 43 41 40 38 37 39 43 49 54 58 69
71 72 76 75 63 67 60 64 68 53 45 49 68 56 64 62 57 70 69 54 61 73 85 93 99 90 85 79 64 42 57 59 66 81 78 73 50 51 58 53 47 43 39 37 43 57 62 69 75
73 80 74 73 70 67 64 73 88 60 53 55 66 64 63 75 65 66 59 61 51 74 85 77 76 84 75 69 76 69 56 56 66 74 81 83 59 42 55 61 62 49 54 49 54 59 64 71 78
85 77 90 70 72 60 68 78 75 74 67 75 63 65 64 70 65 67 64 59 58 61 70 67 76 83 73 67 76 78 79 77 70 62 59 58 61 62 80 78 72 64 65 60 61 64 69 77 84
87 96 92 90 65 78 84 73 82 76 83 86 72 78 55 66 76 72 70 76 68 65 65 68 64 64 75 66 60 80 74 76 82 89 83 82 91 90 91 89 82 80 65 66 67 70 79 92 90
97 99 98 86 80 79 93 86 80 83 82 81 66 78 71 78 75 67 78 67 81 81 76 73 69 64 70 61 61 71 75 72 70 76 75 81 80 90 88 89 91 85 72 72 87 91 91 85 85
99 93 96 83 73 78 94 89 80 88 84 72 72 63 82 75 93 69 67 76 81 84 77 67 64 70 62 58 68 76 73 61 62 58 75 71 82 80 86 88 92 94 85 80 90 91 85 86 84
95 91 94 83 88 83 82 92 85 79 85 85 79 66 61 68 76 61 59 66 73 91 80 70 71 83 78 71 72 61 66 66 72 72 66 65 71 88 86 85 88 88 91 88 87 87 84 84 84
79 80 94 99 94 86 90 94 92 81 82 80 71 67 58 54 56 58 63 65 58 69 68 74 75 66 57 71 82 84 81 87 87 83 86 73 82 95 96 86 81 87 90 82 83 85 84 82 80
88 72 77 85 97 96 88 99 86 77 75 76 75 70 64 54 45 43 46 46 46 48 58 62 72 75 73 76 79 84 87 99 95 99 97 93 99 97 83 84 85 84 82 84 87 90 85 81 83
92 70 77 77 85 92 99 90 75 85 85 78 76 69 57 55 49 47 45 44 43 42 43 43 45 70 74 81 84 87 94 86 76 74 73 74 73 81 83 88 90 86 86 86 93 88 75 75 73
77 78 84 88 88 91 99 77 80 58 63 80 81 65 59 56 49 47 45 43 41 41 41 39 40 42 63 66 68 72 76 82 89 84 80 77 85 75 73 68 85 91 88 97 93 81 74 77 76
75 84 99 96 94 96 95 77 76 47 50 64 76 63 55 55 50 46 43 43 43 41 39 40 42 43 47 59 68 69 70 71 70 71 73 71 76 79 77 90 92 95 100 98 92 87 82 81 53
85 80 84 91 92 98 89 76 84 53 56 59 63 68 60 60 60 57 56 52 48 46 46 47 48 51 54 50 48 49 57 62 64 67 65 67 72 74 75 82 96 97 87 93 90 89 79 48 39
71 77 57 90 94 93 73 53 46 54 57 61 65 69 68 59 54 52 52 54 55 54 54 53 51 50 48 46 44 42 40 39 39 39 38 41 63 73 83 86 97 84 74 83 80 68 51 44 42
58 53 65 80 90 94 68 59 64 62 64 65 68 72 66 58 52 49 46 45 45 45 45 44 46 51 52 53 52 51 50 49 48 47 45 44 55 80 91 91 79 77 79 86 81 51 45 44 47
66 65 68 69 73 73 73 56 50 51 59 72 75 74 69 61 57 52 48 45 43 40 39 40 42 43 42 39 35 36 43 52 52 51 50 57 72 84 96 86 88 95 92 73 48 47 47 52 50
80 68 57 71 67 69 68 62 63 55 62 73 81 76 64 58 54 52 49 46 42 39 38 37 37 38 41 46 46 44 40 38 46 56 56 62 82 99 99 97 93 77 54 49 50 50 53 50 51

GFSSGP_850_rhum_078.txt.gz
RH
96 96 90 84 51 44 42 35 30 28 34 32 42 39 36 51 36 47 98 100 88 91 99 78 80 70 68 62 48 62 58 72 58 38 55 58 61 69 83 82 63 17 20 32 37 34 35 39 40
99 91 89 70 59 43 38 29 36 29 29 40 45 57 54 52 79 89 93 98 100 94 100 98 79 65 62 58 41 62 57 85 76 43 62 64 75 77 82 71 24 19 26 34 34 35 38 40 41
99 88 76 71 55 45 34 26 29 27 38 45 47 63 70 68 89 94 89 93 100 98 100 99 78 68 64 51 56 61 52 81 88 78 70 78 90 86 73 40 18 24 31 33 32 36 38 39 39
89 88 79 73 50 36 32 23 27 26 40 51 46 54 76 75 91 94 97 98 99 99 100 88 77 73 69 48 76 77 52 60 88 90 91 92 93 74 48 19 20 30 34 36 36 36 35 36 36
90 77 62 62 52 36 27 26 26 28 27 38 56 49 70 74 68 91 99 98 98 97 99 82 78 78 66 57 80 78 28 40 90 92 90 91 81 64 27 18 23 33 34 34 35 38 38 34 34
69 57 55 58 40 33 32 33 31 32 30 28 41 43 62 56 54 66 99 99 97 98 98 98 84 80 58 67 78 85 28 22 93 97 95 96 90 58 18 21 25 33 34 36 36 35 34 35 35
66 55 51 39 37 34 31 34 36 35 31 30 34 43 41 60 50 63 80 100 99 98 100 96 86 85 62 68 86 73 28 16 66 100 100 100 73 44 19 23 24 29 33 32 32 33 34 34 34
73 56 54 41 39 35 28 34 39 40 33 31 36 43 38 59 53 59 67 96 99 99 100 100 99 95 77 91 88 65 30 16 19 88 100 93 52 28 23 26 27 26 28 30 31 31 33 33 33
72 76 61 44 37 33 28 36 39 41 37 34 39 44 42 53 41 51 74 80 96 99 99 99 98 100 95 90 84 64 46 25 27 31 71 51 48 28 27 30 28 30 31 32 32 33 33 34 35
62 63 50 32 28 29 27 38 40 41 40 38 44 47 56 50 44 47 57 85 87 85 99 98 99 100 94 97 83 82 64 48 45 52 68 91 91 84 70 32 33 34 35 35 35 35 35 36 36
49 63 38 37 37 36 31 36 38 42 42 36 38 45 81 80 81 75 77 74 85 85 98 96 96 97 84 68 86 82 82 92 86 68 45 83 66 32 32 36 36 37 37 37 37 36 37 38 41
75 50 40 40 42 46 41 37 39 45 35 36 41 57 71 98 97 70 71 61 67 78 94 99 97 89 63 56 92 90 81 82 83 47 34 30 30 29 31 32 33 33 35 34 36 43 38 40 44
60 52 49 42 49 53 50 44 41 42 43 38 42 56 71 94 86 87 60 57 59 84 88 96 96 87 72 48 59 85 89 87 84 67 47 42 35 32 33 34 35 35 35 37 36 39 48 56 75
48 54 53 52 52 56 49 48 49 45 40 46 43 50 70 87 93 84 62 53 62 60 70 89 100 95 82 53 42 52 74 86 94 93 60 54 49 46 43 44 42 44 40 38 46 72 83 86 83
78 79 61 53 51 57 46 58 57 52 52 44 47 51 66 88 89 69 66 64 64 71 71 71 98 99 93 78 62 41 46 54 77 91 93 85 81 56 60 75 66 56 51 44 45 60 68 88 94
78 79 95 51 49 47 59 58 38 46 57 49 46 54 63 83 88 86 61 61 62 56 60 76 90 93 97 86 87 66 52 59 64 66 76 83 97 84 56 70 66 74 55 57 53 73 85 87 88
93 97 87 57 42 45 58 67 40 52 61 50 45 55 63 90 90 84 62 63 59 68 91 83 75 75 80 72 70 86 84 80 75 70 64 59 56 58 62 84 85 81 70 63 62 69 84 85 90
100 83 68 61 46 49 52 57 65 65 57 54 55 66 60 74 80 82 64 68 68 70 83 78 81 85 74 73 74 75 82 82 81 80 77 76 77 82 87 90 94 91 83 71 68 77 81 89 90
100 98 90 58 69 54 87 68 76 75 69 62 68 74 76 75 99 99 71 69 77 75 75 71 66 68 66 66 78 73 72 70 67 73 70 72 77 81 85 84 94 98 90 80 66 81 92 93 84
100 97 97 91 72 57 90 86 77 73 72 68 70 74 93 81 84 85 98 89 78 80 83 83 82 85 83 77 73 77 77 82 77 79 74 78 78 74 77 82 86 97 98 89 79 93 94 81 83
98 86 82 97 84 76 79 93 89 76 77 83 81 78 86 90 88 78 90 85 87 94 92 88 96 85 82 68 73 70 85 82 70 84 91 94 88 77 75 74 90 95 100 94 86 82 85 88 84
89 68 92 96 99 98 83 92 99 89 84 84 74 76 85 82 78 89 92 87 77 82 83 88 85 83 82 84 81 79 75 82 81 87 83 88 94 96 88 79 80 94 99 99 100 93 92 88 88
78 80 82 87 69 82 96 96 94 86 90 86 78 85 79 74 71 66 64 55 62 59 57 71 77 81 81 90 92 85 85 85 87 77 78 91 99 82 80 73 86 95 100 99 96 94 89 97 91
80 66 73 69 67 91 100 94 93 81 56 70 70 82 80 78 73 66 56 50 48 47 47 48 48 61 77 76 79 78 84 88 82 88 92 81 82 79 80 81 92 89 92 90 92 99 100 93 84
85 66 93 86 91 94 97 79 93 50 48 51 76 75 81 76 80 58 57 53 52 49 47 46 46 48 51 72 73 71 76 75 76 76 72 78 78 77 76 77 90 90 74 76 93 99 96 95 93
70 68 64 69 87 96 58 88 88 51 59 85 86 85 76 77 79 67 65 63 61 57 53 53 53 57 57 58 60 63 70 73 75 75 75 76 78 76 79 82 88 83 91 92 96 97 89 93 84
64 67 49 71 78 62 75 59 50 50 57 72 86 88 82 72 75 69 57 58 59 59 58 55 55 53 52 50 49 48 47 47 48 51 53 57 60 67 72 81 88 96 100 97 86 85 83 86 80
50 43 59 66 73 78 71 56 60 56 60 58 62 73 80 75 59 59 55 52 50 49 48 45 44 45 48 52 55 56 55 54 53 51 49 48 48 51 68 78 98 100 100 94 95 95 87 75 56
55 51 51 48 58 52 59 61 41 51 52 57 62 66 67 68 62 60 57 53 50 48 44 42 40 40 41 43 43 40 39 41 47 54 53 52 52 58 67 99 100 97 80 83 90 88 75 50 47
66 54 43 45 55 54 42 51 46 43 52 57 63 63 64 62 59 49 44 42 41 40 41 42 43 41 40 39 39 42 46 45 43 45 54 58 60 70 94 99 100 99 97 97 96 74 51 52 50

GFSSGP_850_rhum_081.txt.gz
RH
86 87 78 74 53 40 38 33 22 21 18 18 25 28 28 24 37 52 88 80 77 75 91 90 81 76 65 65 59 40 61 63 43 50 61 67 59 73 67 77 58 17 66 97 67 39 47 40 35
96 85 78 58 52 44 34 23 25 20 20 21 33 40 40 36 61 82 91 87 80 74 85 99 81 78 66 64 52 56 59 78 32 56 56 60 56 76 81 77 29 23 69 83 34 40 44 40 38
92 86 61 46 50 46 30 21 20 18 22 29 34 53 48 47 83 93 97 91 77 81 82 95 84 79 65 58 44 66 67 82 37 60 61 62 73 69 82 63 20 43 87 38 41 41 41 40 39
70 75 67 49 38 33 28 20 16 18 22 26 40 37 65 78 84 88 96 95 82 97 92 93 84 69 63 56 44 62 68 88 69 64 65 75 82 86 76 28 22 36 36 40 43 44 43 41 38
66 51 47 43 41 31 21 20 18 19 20 28 32 39 47 82 76 84 94 96 86 95 93 92 81 73 67 52 60 61 55 86 88 72 79 91 98 80 52 19 27 33 38 40 42 40 38 35 35
57 46 44 42 33 26 23 22 20 18 21 21 27 36 38 69 61 73 76 90 92 91 91 96 81 76 75 54 73 74 41 78 91 95 95 96 90 60 27 21 32 36 38 39 40 38 35 34 34
55 43 38 32 27 23 22 21 21 21 20 22 23 24 35 64 52 55 61 89 100 98 97 91 90 87 79 63 78 84 36 48 92 99 99 96 95 55 20 24 37 38 37 37 36 35 35 35 33
52 44 42 32 29 26 18 20 20 20 24 24 23 27 28 54 43 45 60 60 98 100 98 98 95 98 86 76 87 89 40 22 97 97 98 100 96 54 21 24 35 39 38 36 34 35 36 35 35
54 72 58 38 31 25 18 18 20 22 26 27 28 26 30 44 52 44 56 55 81 92 97 99 94 98 98 91 94 86 40 20 81 100 98 100 82 41 24 27 29 36 35 34 34 33 35 35 36
50 55 47 29 23 23 20 19 19 23 26 30 31 28 32 58 58 56 73 67 68 75 73 96 100 96 97 84 98 71 40 26 41 97 100 96 79 87 83 34 32 31 32 33 33 34 34 35 40
45 49 30 27 26 25 25 23 21 24 30 28 31 31 37 65 86 95 85 69 69 74 67 75 83 96 87 83 97 98 68 80 87 91 76 89 90 90 91 44 35 35 36 36 35 36 35 37 58
57 43 40 32 29 30 33 33 26 25 26 27 29 32 47 60 74 92 93 66 53 69 62 57 71 87 96 85 90 93 86 80 80 88 88 84 89 89 90 76 47 48 38 56 39 46 56 63 62
39 38 37 38 40 33 34 36 33 30 30 29 34 38 42 54 77 89 98 66 57 54 69 70 63 88 97 84 86 86 89 86 87 83 82 87 93 72 81 78 74 62 54 65 63 66 62 63 68
36 35 36 38 38 42 36 35 36 35 30 31 35 37 44 44 68 84 91 78 59 55 60 66 80 98 100 80 87 88 87 95 93 94 83 86 80 54 69 76 74 56 54 50 65 65 68 68 76
47 56 52 44 45 45 44 48 41 34 34 35 33 38 39 45 68 79 83 80 63 59 71 70 66 94 99 88 88 93 94 92 86 95 94 95 89 55 46 56 45 49 74 68 70 69 74 79 78
57 58 82 45 44 46 48 66 32 31 35 38 39 37 40 41 58 79 86 85 67 65 62 64 57 78 99 76 66 88 99 96 91 92 85 67 61 59 51 63 83 89 88 81 70 76 81 85 82
64 82 64 54 41 45 52 54 33 28 31 37 40 41 40 46 66 69 84 85 88 62 74 77 79 74 87 92 85 60 54 70 88 84 81 86 80 84 84 67 90 95 95 91 81 83 85 83 81
73 96 76 59 46 47 51 46 39 53 50 34 43 40 44 59 64 69 93 78 92 72 83 81 75 80 82 87 86 90 76 70 72 66 88 71 74 83 64 64 95 97 98 89 91 86 83 80 77
79 99 96 84 44 44 48 44 36 65 63 57 40 39 47 65 72 63 96 76 78 84 98 98 93 84 74 80 84 81 84 84 85 85 85 88 89 94 91 90 90 94 99 98 92 88 82 82 82
78 98 95 77 54 53 41 53 37 58 65 68 62 49 59 94 78 92 94 98 90 93 95 95 94 90 81 78 84 78 84 85 85 88 85 80 78 77 83 88 91 97 97 97 97 87 84 83 88
96 85 85 100 73 59 62 91 75 55 59 65 72 74 90 90 92 90 95 99 98 91 90 99 97 93 82 92 87 83 87 86 85 85 88 90 86 92 90 87 80 80 87 88 97 99 89 87 87
95 70 91 95 70 85 60 84 89 72 69 81 76 84 96 100 89 86 83 96 93 77 85 90 97 94 70 79 84 92 94 93 91 93 92 88 91 91 87 85 92 86 82 76 73 79 100 96 87
98 70 73 86 98 88 79 71 89 90 86 93 89 96 97 94 89 95 97 94 94 100 92 90 80 81 80 83 62 72 79 74 84 80 87 84 72 74 72 78 96 90 79 68 82 77 89 99 97
76 83 86 87 96 95 98 76 97 100 98 81 87 93 84 86 96 88 93 82 78 89 79 81 77 89 92 92 90 92 90 90 90 84 74 71 66 70 77 58 58 95 76 66 66 72 94 91 99
86 79 95 99 98 98 99 67 98 94 67 79 90 94 93 88 86 92 95 79 70 66 64 60 64 79 76 82 79 82 92 88 86 84 76 79 73 65 65 73 82 90 78 65 58 82 91 96 90
88 63 85 94 92 92 69 92 95 89 86 97 90 95 93 90 86 88 88 88 74 67 73 74 70 67 66 72 78 72 66 78 83 87 86 85 81 78 74 76 80 73 78 79 84 92 92 93 91
61 64 45 56 45 61 81 91 74 75 85 85 87 88 89 91 85 85 83 76 73 70 67 67 62 60 58 57 57 59 64 72 77 78 79 91 86 86 82 72 78 78 79 94 99 100 100 99 96
55 41 62 59 74 75 64 64 72 75 84 82 88 91 90 78 77 72 69 71 71 68 58 54 51 50 52 54 55 55 52 51 50 51 52 54 57 70 65 72 84 97 99 99 100 100 100 96 92
54 45 39 41 51 47 58 63 42 50 54 62 67 78 81 79 66 60 59 54 54 53 51 47 42 40 41 42 44 44 42 41 44 50 56 57 56 58 62 66 80 100 99 100 100 100 98 96 98
54 41 36 47 51 43 43 58 38 43 46 52 55 57 59 59 59 59 57 56 52 46 41 38 39 38 38 40 42 42 41 44 48 48 47 48 53 57 60 68 96 100 100 100 100 93 91 93 79

GFSSGP_850_rhum_084.txt.gz
RH
69 71 73 66 78 63 58 49 34 34 27 17 16 22 34 36 60 82 80 75 73 74 81 79 78 66 63 58 60 54 36 37 46 61 68 64 66 68 68 75 45 26 39 58 88 89 88 38 31
79 74 68 67 73 69 50 32 32 28 22 19 21 33 35 60 71 85 85 69 74 83 81 79 80 73 68 63 60 42 49 58 43 53 64 61 68 67 65 74 27 95 98 45 44 49 45 37 36
60 81 72 69 67 68 50 30 24 20 19 19 42 43 47 73 76 87 86 80 74 84 75 76 84 81 69 71 54 43 62 73 44 57 63 63 69 75 80 70 39 97 97 35 37 39 40 38 33
70 68 71 78 53 45 42 33 26 22 17 19 32 41 63 72 74 65 85 80 81 94 88 75 84 84 70 71 52 56 61 79 38 69 63 67 69 71 82 52 35 96 40 35 39 40 39 37 34
66 59 67 59 51 39 28 28 26 24 20 20 22 44 58 67 61 53 75 86 94 94 88 79 85 84 68 61 46 63 64 85 48 65 65 68 80 81 80 29 39 41 37 40 55 40 39 37 36
65 53 65 62 45 31 28 26 25 22 19 18 24 28 47 48 43 59 62 74 81 84 89 84 92 83 69 64 50 66 57 87 56 70 69 84 90 92 68 25 29 35 38 43 40 39 35 35 35
73 62 60 48 42 32 25 21 22 22 22 20 21 33 38 57 47 40 56 62 66 77 84 96 92 83 80 69 69 80 54 72 89 72 83 97 99 86 49 42 33 38 41 44 43 39 34 33 34
55 57 65 51 42 33 21 19 18 20 21 20 20 28 32 35 40 52 50 53 63 66 96 97 99 85 86 75 72 92 44 53 93 93 96 100 93 56 30 39 38 39 41 42 40 36 35 34 33
50 71 72 55 42 34 23 22 19 17 19 19 20 22 24 40 53 50 68 60 64 58 89 94 99 100 100 79 77 94 82 29 97 98 97 98 99 59 24 34 39 38 40 39 37 36 36 35 34
53 68 61 39 33 31 24 22 21 19 19 20 23 25 27 45 52 58 54 54 76 61 56 81 86 74 99 99 79 96 81 31 84 99 97 98 93 61 25 34 37 39 39 35 35 34 34 34 35
49 64 43 35 30 30 29 26 24 28 27 21 25 26 28 32 52 58 55 42 49 68 65 66 82 77 85 89 100 90 77 31 33 100 96 99 86 59 36 36 30 32 33 33 33 34 34 35 36
62 49 46 42 37 35 32 29 31 31 32 26 23 24 28 42 54 70 67 58 54 58 65 65 55 65 66 84 90 100 67 30 35 65 98 96 85 91 72 52 33 31 32 34 36 36 36 38 48
41 40 34 34 35 36 37 38 33 34 32 30 28 26 32 46 56 59 71 75 74 63 58 60 67 58 60 88 81 100 74 60 79 82 66 88 89 86 87 56 36 34 38 39 47 43 52 55 50
42 40 40 38 37 39 39 38 38 31 34 33 31 29 31 36 42 50 74 61 71 63 58 63 79 78 56 67 84 94 89 80 77 86 88 86 89 88 87 75 50 50 51 46 52 50 60 61 62
48 58 52 47 42 45 40 49 50 37 32 33 34 31 32 36 37 55 65 62 63 71 65 68 90 80 64 62 97 97 88 89 82 82 83 84 76 59 59 67 58 46 45 43 46 58 65 70 73
66 67 80 50 47 44 46 66 44 44 39 33 33 34 35 33 39 56 64 78 74 82 73 77 76 75 82 79 94 90 82 82 84 72 70 92 83 54 49 47 44 44 51 58 61 60 69 76 79
74 92 76 61 41 44 49 60 45 39 35 32 32 34 36 38 38 44 69 62 84 86 74 73 80 83 78 59 87 90 88 86 86 91 80 85 70 61 58 68 77 92 91 87 72 68 68 78 78
81 82 87 90 58 60 55 57 42 40 44 47 30 33 39 41 50 59 66 65 91 95 82 79 86 78 84 71 67 76 73 86 86 88 92 96 86 85 88 79 75 93 90 91 90 78 78 84 85
71 76 80 71 57 78 74 61 49 48 55 69 62 53 39 45 60 66 68 76 74 94 94 88 88 78 87 94 80 76 64 64 79 68 80 85 86 85 94 78 70 90 87 96 92 91 84 81 78
88 83 87 72 66 75 83 61 47 47 68 62 70 60 58 68 76 77 70 79 84 92 98 96 86 83 74 95 90 90 83 76 77 81 92 83 86 86 91 91 92 94 90 92 94 95 91 88 83
91 79 91 96 90 76 66 64 57 58 54 57 62 73 61 67 99 90 95 95 81 100 98 100 100 98 96 100 94 93 90 89 92 91 91 81 86 86 78 80 78 77 80 78 89 96 94 89 87
99 72 76 100 95 93 78 98 68 75 71 61 72 78 89 91 100 82 72 70 98 99 96 99 100 100 95 93 94 94 90 90 87 93 89 89 88 86 81 78 80 77 73 73 78 80 79 85 90
96 73 92 90 93 86 86 97 92 84 83 84 91 96 100 100 99 97 92 97 91 91 94 91 100 99 82 78 87 81 82 90 91 80 83 93 86 87 74 69 67 67 63 59 56 73 73 83 84
73 81 90 95 99 87 83 87 99 97 98 90 92 99 99 100 100 94 94 82 98 99 100 99 96 84 79 74 86 94 78 79 68 79 83 75 92 77 72 73 74 72 81 63 68 76 75 73 87
84 96 99 98 98 98 95 76 95 92 91 86 92 100 100 100 100 96 88 88 94 90 86 80 87 96 100 100 99 93 91 88 79 74 83 81 79 70 84 68 74 49 76 91 89 79 85 98 89
85 97 99 97 97 98 77 95 99 95 95 94 100 99 100 98 98 98 98 90 90 90 89 91 97 98 90 92 98 86 73 75 78 82 86 80 78 80 76 69 62 57 78 67 68 85 96 99 85
70 93 73 100 66 92 99 100 97 95 93 93 98 100 100 99 90 85 82 86 82 79 81 77 73 70 68 67 68 72 79 80 75 70 75 83 78 81 81 78 76 76 76 75 79 94 100 97 89
58 46 73 88 97 95 86 92 100 100 98 92 91 96 96 92 87 79 80 77 78 70 65 60 58 57 58 58 58 58 58 56 58 65 73 84 85 82 86 94 81 75 76 82 91 98 88 86 99
59 57 48 49 62 75 81 96 58 90 87 93 92 90 71 78 68 62 62 57 57 58 54 48 44 42 41 41 41 42 42 44 46 50 55 57 58 58 57 59 59 65 78 90 100 100 97 99 100
59 45 41 77 61 64 72 77 50 56 56 57 62 66 59 58 58 58 58 54 49 44 41 40 37 35 33 32 31 32 34 36 37 40 44 44 44 48 50 55 58 62 90 99 99 100 100 100 100

GFSSGP_850_rhum_090.txt.gz
RH
32 60 72 65 89 91 93 82 62 61 43 32 30 29 37 66 68 62 87 84 74 75 64 52 54 50 49 51 55 60 64 63 62 64 58 53 61 53 80 67 20 56 78 86 90 42 25 24 24
59 78 64 69 91 95 89 71 63 52 38 31 26 31 60 82 86 88 81 76 80 78 72 56 49 49 49 52 55 56 58 65 63 65 61 58 70 64 83 65 20 50 86 84 77 33 27 24 27
61 75 64 90 95 96 82 54 55 42 34 32 29 38 63 76 78 82 74 75 93 89 78 64 51 53 56 57 59 60 57 56 62 62 66 62 71 74 84 64 22 33 91 99 62 35 29 26 37
75 74 72 89 94 75 64 55 45 42 34 29 28 40 63 74 70 63 60 69 86 93 85 77 66 61 63 62 63 62 48 41 40 62 62 66 71 86 70 56 66 89 90 93 42 38 35 30 38
70 71 83 97 91 74 57 47 41 39 34 30 27 31 58 60 73 67 56 61 73 86 88 84 87 81 72 70 70 53 50 66 59 55 60 70 70 80 75 80 86 82 77 41 79 39 36 35 39
74 70 94 95 69 54 44 34 33 33 29 29 24 38 49 56 74 87 71 64 62 76 88 96 97 96 85 79 80 55 61 74 78 55 64 72 69 86 87 80 100 55 37 37 43 36 34 34 39
82 87 88 78 74 57 42 33 30 30 29 25 23 27 28 28 68 66 60 65 71 76 83 96 98 100 94 85 85 74 73 72 89 38 66 72 73 88 98 92 98 51 40 44 38 36 35 35 36
65 77 81 78 79 71 45 40 36 31 31 26 24 28 28 29 54 61 55 53 58 63 71 74 93 93 93 86 88 78 78 74 86 58 76 75 81 91 99 91 92 88 98 86 43 36 35 37 38
52 83 93 78 67 61 41 42 36 34 31 31 29 32 60 45 44 60 59 55 54 59 62 76 78 93 92 88 86 80 97 70 72 82 76 78 82 95 99 82 75 85 90 55 39 35 34 36 36
58 86 78 62 54 55 46 45 42 38 37 34 32 30 33 41 57 60 52 49 51 53 56 58 64 74 94 86 84 71 96 99 69 84 79 81 79 97 99 78 74 70 41 44 46 38 35 34 35
62 76 58 50 45 48 52 49 44 42 44 38 38 37 32 33 50 55 62 51 44 52 58 64 68 72 77 81 90 80 72 85 75 84 95 90 83 100 99 76 80 48 45 44 43 39 36 35 35
71 59 56 55 51 52 52 46 45 42 40 37 39 38 37 33 52 56 49 58 56 55 57 56 54 63 68 64 67 67 63 69 61 61 96 100 100 100 100 70 53 42 41 40 38 36 35 35 35
56 54 54 51 48 46 42 45 46 43 37 38 38 33 35 34 34 50 56 49 50 58 58 57 60 59 67 57 46 46 46 48 64 55 76 99 100 100 100 66 34 40 41 39 35 36 34 34 35
58 64 62 57 54 53 53 48 44 40 36 33 33 33 32 36 33 53 54 45 43 41 44 54 59 62 56 56 52 59 84 63 63 54 51 92 85 100 97 67 38 42 41 38 34 34 35 35 36
60 69 67 54 52 58 48 60 55 40 38 37 38 41 38 32 34 32 36 43 42 44 51 58 62 62 56 61 65 75 85 74 66 53 56 67 94 97 92 43 41 40 43 36 35 39 44 46 51
68 73 94 61 55 52 58 70 50 45 44 38 39 40 43 32 33 29 34 41 43 46 43 41 58 62 57 63 71 82 82 90 61 68 69 70 86 95 94 55 47 36 35 35 40 48 50 50 53
85 99 89 75 52 58 69 80 62 53 58 48 41 35 36 41 32 25 34 46 50 50 54 55 56 54 62 74 84 87 82 97 66 98 98 75 69 98 89 83 66 43 40 43 42 48 50 55 61
91 86 88 86 63 59 67 71 57 57 68 61 45 51 51 36 35 27 34 42 51 51 60 63 58 64 68 76 79 90 85 92 71 81 78 64 66 76 90 91 74 56 54 56 53 53 56 59 65
81 94 93 77 63 70 74 74 72 66 68 57 51 51 54 37 38 34 49 54 58 54 63 64 68 70 73 76 83 88 88 88 81 70 79 91 81 86 90 90 78 64 62 50 56 65 64 62 66
91 89 86 75 63 74 81 85 72 68 67 54 58 60 60 71 49 60 59 64 64 65 72 78 76 84 82 74 79 87 90 91 97 80 75 73 66 82 89 87 75 74 69 78 80 81 76 71 69
86 85 83 97 84 76 79 80 80 65 63 74 72 72 63 52 55 56 59 66 72 75 96 100 99 97 95 73 76 90 95 99 100 100 97 96 90 82 76 69 66 82 84 80 80 84 80 80 80
96 72 90 99 98 95 83 94 91 86 83 88 89 93 94 90 75 66 63 80 99 99 98 97 94 99 97 95 83 96 97 98 98 96 90 88 78 83 77 75 78 92 83 77 76 79 70 71 71
84 85 94 89 91 97 95 99 76 82 80 89 82 94 99 90 98 100 92 52 98 100 100 100 99 100 95 84 98 100 100 99 92 93 99 98 99 94 90 91 91 91 92 91 90 86 80 76 74
74 85 96 96 97 98 87 91 96 96 92 82 81 98 100 100 100 100 99 100 100 98 100 100 100 97 97 100 98 100 100 100 100 100 100 96 93 96 97 92 90 98 91 93 86 86 86 82 84
87 100 98 98 98 98 87 89 95 90 83 83 90 100 100 100 100 99 100 100 98 97 99 98 100 92 96 100 100 100 94 99 98 99 95 94 95 89 84 83 86 81 90 89 86 82 77 83 85
96 100 98 97 97 97 92 95 96 91 91 99 99 99 100 100 98 100 100 99 94 96 93 97 90 92 95 94 94 80 82 92 95 99 100 99 99 91 84 85 95 94 89 88 88 82 83 93 93
93 100 92 100 84 94 97 100 98 96 90 92 98 100 96 100 98 100 99 100 94 90 86 88 87 86 83 81 77 77 93 86 77 77 80 100 100 93 92 89 91 85 87 88 88 84 85 92 91
84 65 95 98 98 96 96 98 100 100 100 97 94 99 99 100 100 97 100 92 84 81 70 60 59 60 59 58 58 59 63 66 81 88 88 84 82 82 85 99 100 100 89 87 91 88 94 98 96
74 81 68 63 83 95 86 98 96 99 99 99 93 100 99 98 92 91 84 78 64 54 48 45 41 40 38 40 43 43 44 48 51 54 57 60 62 63 65 63 65 66 69 76 96 99 100 99 100
60 70 58 76 65 85 84 95 87 91 91 91 89 84 88 86 77 72 66 61 55 52 47 42 40 39 38 38 37 35 36 36 33 32 35 39 43 48 51 50 52 54 55 56 60 98 100 98 98

GFSSGP_850_rhum_093.txt.gz
RH
33 52 70 70 87 90 94 78 65 62 48 36 31 29 32 32 46 59 71 80 76 80 66 73 68 71 71 68 65 60 60 61 60 59 60 63 61 63 84 64 30 69 84 91 78 29 27 24 29
68 75 68 68 88 92 71 75 68 59 44 36 29 33 62 72 78 63 74 76 75 78 60 52 55 62 61 67 72 66 66 64 63 61 55 56 60 57 88 60 37 76 81 85 63 26 25 24 27
73 73 57 89 93 93 69 61 61 46 37 33 31 29 64 79 86 70 74 75 78 79 69 55 53 53 51 55 62 63 65 66 65 63 60 60 73 64 69 63 34 76 80 86 52 28 25 26 35
77 67 69 89 88 82 69 55 52 46 35 30 30 32 32 63 81 82 77 74 76 86 76 64 54 49 51 53 55 58 60 59 64 63 67 63 72 86 85 66 27 72 91 84 50 30 26 32 39
69 67 83 95 93 81 66 54 46 41 36 31 28 29 30 41 68 74 72 81 82 78 84 72 58 57 60 65 65 65 60 48 42 52 65 69 68 83 97 67 34 38 99 92 39 34 29 36 39
68 68 80 80 76 60 50 41 35 34 33 28 27 27 36 40 44 55 65 75 76 88 90 87 86 77 73 74 76 67 53 59 59 53 59 62 71 76 87 72 80 96 90 94 39 37 34 34 41
79 81 76 81 80 62 48 38 33 36 34 29 26 30 25 42 59 70 62 65 72 78 91 96 95 94 91 84 83 72 64 76 83 73 62 64 76 75 84 82 93 96 93 71 65 38 35 35 38
69 81 88 82 80 64 46 42 39 34 34 32 29 35 59 38 52 75 62 61 66 73 80 88 90 92 98 85 84 74 70 79 77 89 51 73 81 79 91 83 98 75 53 74 83 38 36 35 37
58 85 93 77 75 63 48 50 42 41 37 37 32 33 32 32 57 92 75 62 60 63 62 70 72 79 82 93 81 71 66 72 77 83 62 79 84 81 94 93 90 43 68 53 50 41 38 37 39
64 88 80 65 58 56 50 53 50 46 44 42 37 33 30 29 33 48 91 68 83 62 62 63 66 69 73 73 82 74 61 69 67 92 81 88 82 84 93 99 98 44 96 89 61 42 39 38 38
64 78 64 55 50 49 58 53 47 47 51 40 40 38 34 31 32 43 55 75 70 80 73 70 66 61 66 67 78 73 71 81 70 66 74 92 93 88 93 98 100 89 99 98 77 42 36 36 36
73 63 61 60 56 54 57 50 46 44 44 40 38 38 35 31 31 33 42 61 71 61 70 72 73 77 75 74 72 81 70 71 64 56 56 56 87 95 95 100 99 90 99 82 57 42 36 36 36
57 58 58 56 54 50 49 51 50 47 40 37 35 38 37 33 31 32 34 57 76 65 54 52 60 58 63 68 63 61 57 54 50 62 53 60 67 93 99 100 99 78 91 65 56 43 37 36 36
61 66 61 57 53 55 59 51 49 43 38 34 32 35 38 35 28 30 32 57 64 52 54 55 52 46 50 56 62 56 48 44 46 60 52 39 50 67 99 100 100 84 52 58 52 44 36 36 36
60 68 67 57 50 59 48 60 64 38 36 39 39 40 41 34 30 28 31 33 43 45 48 51 50 55 56 59 58 56 52 50 50 48 56 60 50 52 71 95 100 67 48 74 47 47 39 37 37
74 72 92 60 57 52 49 62 46 42 44 47 48 49 49 44 39 30 28 31 32 38 45 52 52 53 55 57 55 60 61 60 65 64 74 77 51 54 63 74 99 88 91 81 59 41 39 37 37
81 98 90 78 56 60 69 80 62 50 51 55 58 61 48 42 37 32 29 29 28 42 48 53 54 51 54 63 60 61 63 68 74 82 86 81 57 56 55 78 94 84 60 77 66 40 40 39 42
84 93 83 92 64 61 69 66 56 54 56 66 68 66 54 47 44 33 29 26 34 44 52 64 64 59 63 67 69 70 64 64 76 79 82 89 79 65 81 86 83 79 76 58 65 45 44 49 48
72 88 93 77 64 72 78 78 69 60 68 74 72 58 50 54 46 36 36 31 54 58 60 63 64 61 69 75 75 70 66 67 82 80 91 98 99 100 96 86 89 80 71 62 47 53 60 57 56
93 96 89 76 67 80 84 87 70 64 68 71 62 65 68 75 71 53 42 52 58 60 61 62 68 67 76 87 82 82 79 78 81 87 90 94 99 97 92 82 85 82 58 55 62 68 64 58 62
92 93 83 88 82 85 94 85 79 70 75 85 94 100 99 85 99 72 70 60 60 64 66 67 66 67 82 94 88 85 90 97 80 89 94 88 90 84 89 76 79 84 67 68 71 68 63 61 68
96 65 72 85 98 99 77 97 74 85 84 87 91 100 96 93 99 100 99 87 79 70 78 84 94 98 98 88 94 98 95 92 79 80 98 94 97 93 82 85 84 81 88 76 69 67 82 81 78
82 75 86 91 99 90 92 92 81 82 88 90 93 100 95 100 92 99 100 95 92 98 97 100 100 100 94 80 93 95 97 97 93 93 100 100 96 84 90 80 79 77 79 79 63 63 65 72 81
72 84 85 97 100 99 84 87 86 92 89 87 82 100 100 100 100 100 100 100 100 100 100 99 100 99 100 99 100 100 83 100 98 94 100 100 99 95 98 95 90 83 73 71 75 80 81 84 88
90 98 97 98 98 93 94 88 91 87 84 87 95 100 99 100 100 99 100 100 99 100 100 99 100 96 100 97 90 98 99 100 100 99 99 100 100 100 94 91 86 82 86 93 99 98 95 96 88
88 99 99 97 97 97 96 97 94 88 87 98 99 99 100 99 100 100 98 98 99 100 99 100 97 93 93 90 90 98 79 100 98 96 98 100 100 95 94 90 91 91 99 85 94 91 98 93 93
96 100 94 100 87 95 97 100 97 95 88 92 96 100 100 99 99 100 99 94 97 96 91 90 88 86 79 79 84 87 99 93 92 96 91 99 100 99 100 98 84 92 91 92 89 88 93 91 91
91 89 99 99 97 96 94 98 100 100 100 99 97 99 99 100 99 100 100 95 88 74 69 67 64 61 61 56 57 60 61 67 87 98 99 98 98 96 97 96 100 98 100 100 99 98 96 92 92
88 94 95 80 97 97 90 93 91 100 100 100 97 100 98 98 100 99 91 74 69 63 58 53 49 46 44 40 39 38 37 39 43 46 50 57 62 66 65 72 81 78 75 88 96 95 88 100 100
60 68 70 82 72 84 78 91 86 94 95 93 98 100 100 95 91 79 75 71 61 56 50 48 47 47 49 49 44 40 38 38 37 36 35 35 35 37 40 47 53 57 56 55 58 64 70 83 94

GFSSGP_850_rhum_096.txt.gz
RH
21 57 73 70 72 88 90 66 71 62 51 40 36 33 32 31 34 47 69 77 76 81 82 86 66 76 73 66 67 61 60 59 57 52 56 61 59 59 64 70 34 44 78 94 73 38 27 41 34
42 62 70 62 91 66 47 73 70 60 46 36 32 32 57 65 63 71 72 82 77 84 78 82 65 71 70 66 66 64 65 66 62 59 61 61 60 57 77 64 47 71 85 82 47 26 23 26 33
64 70 57 85 91 76 52 62 61 48 38 36 31 28 54 76 77 79 79 79 76 75 67 67 66 64 65 64 66 66 64 66 68 62 58 62 65 60 80 65 62 72 88 82 39 24 24 26 27
76 59 70 81 89 77 65 55 57 46 35 29 31 32 25 66 88 91 87 82 83 80 72 65 61 62 61 58 61 62 64 64 66 67 68 68 73 75 61 72 53 75 84 87 41 26 25 28 35
71 61 86 90 83 78 72 61 47 37 36 31 28 29 28 60 51 85 84 84 87 87 80 69 65 60 58 58 59 59 59 59 60 66 67 70 67 79 97 71 42 74 89 83 52 27 26 33 38
60 59 59 66 80 68 56 46 39 35 34 30 28 29 35 36 31 42 78 72 76 84 87 80 78 66 58 59 62 65 65 61 54 60 62 64 68 73 87 86 44 78 80 88 54 30 29 35 36
71 61 56 73 74 65 51 40 36 37 36 31 30 32 28 29 37 56 78 73 72 73 84 86 77 74 74 74 75 74 72 60 52 53 61 67 67 76 77 84 63 56 70 93 44 35 32 35 37
67 73 92 81 78 58 51 43 41 37 37 34 32 37 45 31 33 52 76 78 72 73 72 86 85 86 83 83 82 82 70 63 66 75 68 68 76 80 80 87 87 98 98 98 62 41 35 35 36
62 79 84 70 82 60 51 54 46 44 43 39 35 35 33 31 30 34 64 78 82 74 71 70 69 76 76 87 85 83 74 60 64 70 88 67 73 81 84 91 91 93 85 96 98 49 37 35 37
67 78 69 66 62 58 52 55 52 49 45 46 39 31 32 30 28 30 42 60 72 79 72 73 70 70 68 75 74 83 76 59 63 66 74 44 64 85 85 91 93 90 74 71 99 80 39 36 37
66 74 65 56 54 58 61 58 50 50 56 38 41 41 37 31 28 29 33 39 57 87 89 76 77 74 68 67 67 81 77 68 64 65 81 70 75 80 93 94 94 98 91 96 89 90 47 38 38
72 66 64 64 57 56 58 53 51 49 48 42 39 39 39 35 31 30 29 33 41 71 77 79 72 64 68 75 76 81 79 72 67 63 60 57 58 57 79 98 96 98 99 79 90 76 49 40 39
58 62 60 57 53 50 51 58 56 51 44 34 38 38 38 34 29 28 29 30 34 57 71 72 67 63 59 66 72 74 75 76 61 69 68 49 56 55 54 70 94 98 98 85 93 95 56 42 39
63 65 62 52 45 46 55 48 48 41 32 33 30 29 30 33 33 23 24 28 32 56 70 70 71 62 62 58 58 58 68 67 69 60 50 51 64 67 58 56 70 90 96 95 89 93 74 50 42
60 65 67 57 51 55 49 52 67 32 36 39 40 42 43 41 42 42 23 23 28 34 50 62 71 70 65 56 54 58 60 57 53 51 49 47 63 65 74 56 56 69 99 96 84 91 72 63 47
74 70 78 49 60 54 52 67 50 47 52 50 46 47 49 55 54 49 33 18 24 31 33 37 42 54 56 59 60 62 60 58 55 54 57 53 48 55 60 81 77 64 76 99 90 73 82 63 48
78 92 88 76 57 61 62 78 64 54 50 52 54 52 56 58 46 44 39 16 21 29 31 36 44 51 54 58 64 65 65 64 65 64 66 64 59 56 62 74 90 91 70 84 80 74 78 65 52
69 93 80 85 63 62 71 70 56 52 57 60 60 61 61 56 44 42 42 29 17 26 28 38 48 61 64 69 75 74 72 65 69 69 73 78 72 74 85 78 85 98 93 92 76 77 67 62 56
77 86 92 76 64 72 80 79 71 64 66 73 68 67 67 62 54 60 52 34 29 27 33 44 52 63 64 69 71 75 69 69 73 79 80 80 82 78 90 93 93 99 99 89 71 81 86 75 58
89 96 84 75 69 71 84 85 76 70 74 80 97 98 98 89 82 97 53 40 34 43 61 56 59 62 70 74 73 83 82 82 80 78 75 78 82 81 86 99 96 98 96 89 76 80 68 65 58
84 90 88 85 74 77 91 83 69 73 80 82 95 96 94 94 95 94 99 100 58 53 54 59 67 71 72 76 84 89 88 82 79 77 79 76 83 76 85 100 100 100 98 74 70 69 75 63 55
91 66 71 81 97 97 71 95 71 79 81 82 95 99 98 93 97 93 99 99 95 65 72 71 72 67 62 71 80 94 89 94 96 76 74 86 91 86 82 92 98 100 100 86 72 64 51 60 58
75 66 75 81 95 99 93 95 79 83 84 78 85 96 100 100 100 100 98 97 97 97 97 99 100 98 93 83 90 90 98 98 87 72 95 91 92 86 85 97 99 91 93 95 92 72 56 66 76
66 82 85 87 100 98 84 91 86 91 89 86 84 99 99 100 100 100 100 100 100 99 96 99 94 97 100 100 99 100 99 94 94 100 100 99 99 99 100 100 99 100 100 99 99 93 82 66 66
89 100 95 94 99 93 92 95 83 83 86 88 93 100 99 100 99 100 100 100 100 99 99 100 99 100 99 100 99 100 96 89 92 90 95 95 99 100 100 99 98 95 95 91 91 92 86 84 80
97 98 98 96 97 94 98 98 96 88 89 97 100 99 100 99 100 100 100 100 99 99 100 99 100 98 95 94 99 100 100 95 99 99 92 89 97 88 99 99 95 99 99 99 99 91 90 90 94
96 100 94 100 100 97 94 97 97 93 94 90 95 99 100 100 100 99 100 100 99 99 98 96 91 88 77 73 78 76 94 95 94 96 98 90 95 99 99 100 99 94 91 83 79 76 76 84 96
92 88 100 100 97 96 95 96 100 100 100 100 99 99 100 100 99 100 94 86 82 78 75 74 64 55 48 42 40 40 44 53 62 76 86 89 93 97 94 93 96 100 93 98 99 100 100 100 99
96 91 96 95 99 97 95 96 97 98 98 99 98 99 99 99 100 94 86 77 72 64 55 51 50 48 46 46 44 42 40 39 39 38 39 40 44 49 59 68 72 80 89 89 82 92 100 100 99
60 67 75 87 74 85 81 91 90 94 95 98 99 98 98 97 92 87 80 70 63 58 52 50 48 44 43 45 41 39 40 40 39 40 42 42 40 39 37 37 39 46 52 59 60 62 76 96 100

GFSSGP_850_rhum_099.txt.gz
RH
30 65 72 62 48 60 54 46 67 60 52 43 39 36 33 34 33 42 80 90 87 88 86 93 69 68 64 68 69 64 62 59 56 53 54 77 81 64 64 64 35 39 74 82 97 62 85 35 35
35 70 70 60 54 29 24 64 62 57 46 38 35 33 54 54 80 87 84 91 91 93 92 93 74 77 72 76 67 64 58 57 57 56 53 58 82 59 60 67 36 54 81 85 63 29 35 30 31
62 71 56 66 70 36 30 58 58 49 38 31 30 29 50 90 77 98 96 89 89 84 83 90 78 80 78 70 66 62 62 62 61 59 57 69 84 60 75 68 47 72 83 82 45 26 24 30 27
73 63 62 62 59 60 49 53 56 41 34 28 30 29 50 50 41 55 87 89 95 87 86 76 78 75 73 70 66 65 65 64 64 65 62 70 82 63 68 74 74 75 75 83 51 24 25 28 30
66 48 65 63 62 67 67 61 53 36 35 30 28 28 27 60 33 39 66 88 88 96 86 85 80 75 71 72 69 68 67 67 66 69 71 71 74 76 72 76 70 73 84 87 62 26 25 29 36
55 47 48 42 56 62 54 54 45 36 35 31 30 31 28 39 29 40 58 76 77 86 98 84 85 88 70 65 66 67 64 65 68 68 68 65 69 74 82 81 66 74 82 86 81 29 26 32 38
61 42 38 50 57 59 50 45 39 38 38 33 33 31 27 30 29 36 60 78 76 74 84 93 83 78 71 66 66 67 65 66 63 65 65 61 68 76 78 88 73 65 74 83 77 38 28 35 38
57 60 78 72 66 47 52 46 42 40 38 36 33 34 37 30 29 29 37 69 77 77 79 82 94 84 68 64 70 72 71 70 63 51 49 63 67 76 80 82 89 70 70 73 76 42 30 37 39
60 60 57 58 74 54 53 52 46 46 44 40 36 35 33 32 31 28 29 49 72 78 81 79 86 89 86 83 76 75 76 75 66 60 69 70 63 71 78 87 90 80 84 87 91 48 36 37 41
61 49 49 62 64 59 55 58 54 49 46 41 34 23 22 24 26 28 28 33 45 62 82 88 77 83 79 81 78 76 78 81 70 58 68 76 80 62 71 81 91 92 96 99 86 86 54 41 40
67 59 64 59 60 57 60 57 53 52 52 42 41 37 34 31 22 23 27 29 33 44 65 74 84 77 77 76 74 75 73 81 75 68 62 72 55 47 64 81 92 97 97 98 92 90 90 49 40
67 67 65 65 57 56 55 50 52 50 44 36 30 36 38 35 28 25 23 26 30 36 53 74 80 84 81 80 77 70 71 80 74 68 59 61 59 60 62 64 75 91 90 96 95 87 91 74 44
59 63 60 57 50 52 50 57 51 49 34 31 32 35 31 29 25 18 16 18 24 30 40 59 74 79 75 74 75 74 68 78 79 75 65 68 69 63 61 60 69 64 79 91 96 83 84 80 64
62 64 62 49 49 49 55 53 51 33 25 31 36 36 36 40 40 39 33 19 16 24 30 56 72 73 71 74 73 68 76 85 83 75 71 74 71 66 68 68 71 79 71 72 83 94 82 89 70
61 58 60 52 51 57 50 45 61 30 46 47 45 43 40 40 39 40 42 31 17 16 27 36 72 75 72 67 66 66 75 87 87 83 76 62 53 49 50 70 71 74 86 83 81 88 92 89 93
72 63 54 43 59 55 53 57 38 36 51 54 47 46 48 48 47 49 44 39 26 13 21 32 38 45 62 71 70 68 66 68 67 66 60 57 58 57 53 53 70 69 74 94 96 91 94 94 65
66 67 73 63 57 60 62 68 56 52 54 54 54 55 58 55 48 42 41 38 26 21 16 26 32 33 38 46 62 68 71 69 66 64 61 60 63 63 64 61 64 74 75 80 81 97 99 86 74
72 78 75 77 59 65 73 74 59 59 64 64 64 67 75 75 60 53 49 46 40 29 22 21 29 30 42 53 68 71 68 65 65 65 63 64 66 67 70 72 76 82 82 82 90 86 87 96 76
76 87 96 78 62 73 77 76 68 64 74 78 86 93 97 98 88 77 75 61 49 43 33 23 29 35 51 62 66 66 57 59 64 68 70 70 71 72 73 82 82 87 90 90 97 92 96 98 80
88 92 88 73 67 68 74 77 68 70 80 91 87 89 87 89 83 85 98 91 57 49 35 34 41 52 58 65 65 70 69 69 73 75 76 74 73 77 78 86 93 97 97 98 89 96 100 100 77
88 87 85 87 71 74 84 84 65 70 80 75 94 97 99 90 92 89 94 92 79 97 98 57 60 61 64 65 64 66 77 78 83 79 74 74 74 76 77 83 94 90 100 100 87 98 100 98 87
88 66 69 80 91 94 82 91 70 73 78 72 87 89 99 99 96 99 95 96 94 100 72 57 60 61 62 63 67 72 81 99 96 88 86 73 70 71 73 80 92 97 97 100 99 96 100 95 87
79 60 71 76 99 100 96 97 71 76 77 78 84 94 99 99 97 100 100 99 99 99 85 72 74 79 83 76 86 95 99 98 92 84 84 98 91 88 88 86 89 95 100 95 100 100 100 100 91
64 80 85 91 100 97 84 87 75 84 88 80 84 99 99 100 99 100 100 100 97 98 92 96 90 94 94 99 96 100 100 99 95 80 82 83 88 86 86 96 89 96 100 98 99 91 92 93 90
83 99 96 89 92 91 77 90 74 79 73 84 93 99 99 100 100 100 100 100 100 100 100 100 100 100 100 100 100 100 100 100 100 96 90 84 84 100 100 100 100 100 100 100 100 100 100 90 88
98 99 91 99 95 90 94 91 89 85 91 96 99 100 99 99 100 100 100 100 100 100 99 100 99 94 95 93 98 99 100 100 100 100 100 100 98 94 98 100 100 99 96 96 97 98 100 93 91
96 97 88 98 85 96 84 95 96 93 96 98 99 100 99 99 100 99 99 100 99 95 95 98 92 80 75 73 70 62 71 76 78 91 94 99 98 99 96 100 99 100 99 100 100 100 100 97 84
83 82 97 100 98 92 86 93 98 99 100 100 98 99 100 100 100 100 98 95 91 86 88 87 79 64 55 52 50 49 47 42 38 40 40 50 64 84 92 92 98 100 100 100 100 98 100 100 96
94 93 90 95 99 94 92 88 96 100 99 99 97 99 100 100 99 96 87 81 79 75 67 66 58 54 44 41 39 38 38 39 39 37 38 39 41 40 41 49 52 60 70 81 90 93 88 87 100
63 68 74 87 76 83 82 76 88 93 93 99 99 100 98 98 95 86 79 73 59 52 49 42 38 33 27 22 19 17 16 16 15 14 14 15 17 22 30 37 39 39 42 49 60 62 60 67 72

GFSSGP_850_rhum_102.txt.gz
RH
49 59 66 59 30 26 16 21 33 38 36 34 35 30 25 26 27 39 94 93 94 99 99 93 76 68 69 68 58 57 58 59 61 62 83 83 84 74 70 65 33 50 78 83 84 85 90 68 48
50 67 69 45 26 15 13 30 37 38 36 35 32 30 34 40 74 84 94 87 92 95 98 98 76 75 70 68 70 63 61 57 54 52 60 76 75 74 64 61 40 52 79 81 77 76 60 34 41
64 71 48 32 20 15 17 34 36 37 31 28 28 29 43 59 60 73 94 85 94 92 97 98 86 76 77 74 72 66 62 56 56 58 55 62 94 63 61 67 43 55 79 85 74 43 26 31 34
75 60 43 33 19 29 28 35 38 33 30 27 27 25 56 58 55 50 48 81 86 94 97 91 91 80 85 81 76 70 61 58 59 60 58 71 84 68 87 85 52 72 80 85 77 30 27 34 27
66 48 31 26 24 33 36 40 41 30 28 26 26 25 33 56 48 39 48 77 86 92 92 91 88 81 82 81 76 70 68 66 66 66 72 74 74 75 68 82 79 77 81 87 80 25 26 33 31
45 34 23 21 20 30 32 39 38 31 28 26 25 26 30 50 30 32 48 75 75 82 90 90 88 85 82 79 77 75 74 74 75 74 72 71 71 73 76 79 77 76 77 88 86 36 26 29 38
29 22 18 20 25 27 32 37 28 27 27 24 30 24 28 43 30 29 33 58 79 74 82 90 96 89 87 79 73 72 69 67 71 70 70 70 72 74 76 82 80 75 78 84 87 75 28 30 41
38 22 27 28 26 27 40 38 39 34 28 35 32 21 23 39 29 28 29 34 66 79 73 78 87 98 90 73 62 61 61 61 61 64 63 62 66 68 75 78 90 82 79 79 81 77 47 32 43
40 20 21 27 33 32 43 37 41 43 36 31 31 32 31 30 28 28 26 27 40 64 84 79 78 88 96 89 73 69 69 71 73 72 58 60 60 89 72 72 85 88 82 77 76 75 64 34 47
31 23 22 37 40 38 41 44 39 34 27 26 25 24 25 29 30 29 24 24 27 39 57 80 82 85 90 90 89 88 83 80 81 78 63 63 68 95 92 94 75 84 86 79 86 86 70 42 76
48 30 38 47 50 51 42 37 39 34 29 26 25 21 24 31 31 29 23 23 23 28 39 49 80 85 87 88 87 84 78 73 76 81 66 70 68 65 62 93 78 79 88 95 96 90 89 83 77
39 50 49 51 55 49 40 36 32 30 27 24 25 27 30 33 34 34 32 18 17 22 29 38 58 80 81 86 84 83 80 76 73 80 70 60 64 63 66 86 97 96 97 94 98 99 98 95 88
40 49 52 50 51 46 42 38 32 29 26 28 30 32 34 36 34 33 36 25 12 14 21 31 41 67 81 85 84 83 82 86 86 86 73 60 63 65 67 71 94 95 94 100 83 89 93 94 99
47 48 42 43 40 40 40 33 42 22 29 30 37 37 36 38 40 41 39 36 32 17 14 22 33 62 82 84 79 82 85 96 92 85 76 69 70 76 82 75 70 73 98 100 99 95 94 93 91
52 38 34 39 41 41 46 35 41 28 36 42 42 42 42 42 43 45 46 45 45 36 19 13 27 50 74 80 80 82 81 86 88 88 86 85 82 79 72 56 53 62 71 98 100 98 98 93 89
42 39 31 34 44 52 48 31 25 29 43 46 46 45 45 46 51 52 52 50 51 40 32 19 18 36 62 76 76 80 82 84 85 87 88 85 83 72 58 57 56 52 88 73 83 91 89 92 94
37 51 42 39 46 47 49 45 33 41 48 50 50 49 52 56 65 70 73 63 41 37 47 28 22 24 36 50 61 72 74 75 70 67 71 74 68 62 62 65 70 72 61 65 80 84 91 93 95
56 62 53 51 44 48 55 52 39 44 51 58 63 70 73 78 85 89 92 85 69 49 44 33 28 23 29 33 34 42 55 64 65 65 65 64 62 62 65 72 74 91 98 93 86 99 99 99 93
62 63 71 55 48 61 56 55 46 44 58 62 75 79 78 77 80 85 94 95 99 69 56 46 29 31 30 31 38 48 58 61 60 60 64 66 69 68 71 78 72 78 98 99 98 98 90 99 98
65 66 67 53 52 58 54 56 47 49 63 67 70 82 88 88 81 93 89 78 94 100 98 76 60 35 45 46 65 71 69 68 66 65 60 64 67 71 78 76 70 74 92 100 98 92 95 97 99
60 59 63 78 60 54 60 48 51 52 66 61 67 83 90 99 100 100 90 96 96 93 92 84 95 99 96 94 78 73 63 57 57 60 61 60 68 77 76 72 70 70 87 88 94 90 97 99 98
71 53 58 69 74 77 61 76 50 51 54 56 62 75 86 96 100 100 96 98 99 97 96 100 100 99 82 58 66 70 69 91 89 73 85 88 88 98 90 74 73 72 88 90 89 88 96 100 100
61 52 60 67 78 88 66 95 50 52 54 55 60 75 90 98 98 99 99 98 100 100 98 100 100 70 65 67 65 69 85 87 97 96 86 93 84 88 100 99 95 93 93 94 94 92 100 100 100
54 65 74 68 80 93 62 75 53 59 65 64 69 90 99 100 98 100 100 100 100 100 98 100 97 81 94 86 78 90 94 100 100 96 96 96 91 98 100 100 96 94 99 98 90 98 99 99 100
70 85 84 83 90 79 62 75 55 65 83 87 91 97 99 98 99 99 99 99 100 100 100 98 98 98 100 100 98 100 99 99 96 100 100 99 88 84 92 100 100 100 99 98 99 100 99 100 99
84 98 93 88 74 70 67 83 68 90 93 93 100 100 99 98 100 97 100 100 100 98 96 88 85 88 84 82 82 92 90 98 100 100 99 100 99 96 99 100 98 100 99 100 99 94 99 100 96
96 99 84 98 74 89 63 77 88 89 95 98 99 100 100 99 99 99 98 99 100 100 96 93 84 79 73 76 80 82 72 56 54 55 55 68 81 98 100 93 97 100 100 100 100 100 100 100 94
71 68 91 96 90 74 60 74 89 99 100 97 98 99 99 99 99 100 98 96 95 96 94 92 85 64 69 68 52 54 67 72 59 45 45 41 41 42 55 73 80 81 90 98 99 100 100 100 99
82 76 73 74 78 75 65 60 88 98 98 98 98 100 99 99 98 98 96 87 78 81 73 69 61 50 36 32 27 24 27 34 29 23 18 18 19 21 29 38 42 47 51 70 75 83 92 94 94
54 55 52 68 70 61 61 55 71 86 89 98 97 100 99 98 88 86 80 72 53 50 40 37 33 24 20 18 18 17 16 15 15 16 16 16 16 16 15 14 13 14 18 26 39 48 53 60 67

GFSSGP_850_rhum_105.txt.gz
RH
49 67 63 50 32 22 17 14 17 22 24 24 26 24 20 22 23 48 84 95 97 93 99 96 81 70 67 63 68 68 71 71 69 85 87 83 80 73 74 66 43 47 81 83 80 88 87 85 56
65 70 58 34 33 19 14 19 24 25 27 27 26 25 24 34 57 66 84 90 94 88 98 96 87 72 72 70 59 60 61 62 61 70 87 87 73 79 74 67 44 56 80 83 79 84 81 79 40
73 69 38 28 17 17 20 21 28 28 26 25 22 25 36 46 48 58 76 88 81 94 99 99 97 82 73 75 73 67 64 63 58 55 57 67 79 83 59 64 53 50 77 82 80 64 55 36 39
63 52 38 28 17 22 22 25 29 27 27 26 25 22 48 53 50 53 68 90 83 96 99 98 93 91 79 79 75 76 70 64 62 63 64 63 83 88 76 75 68 51 78 86 84 43 32 35 34
62 38 26 22 18 23 25 29 29 23 23 23 24 23 33 42 43 42 50 79 88 85 91 100 91 89 80 85 85 79 73 64 69 68 71 80 73 80 75 80 82 52 78 86 88 55 28 31 29
41 31 24 22 18 21 23 30 28 23 22 21 22 24 30 43 41 29 36 58 98 81 90 98 95 88 84 83 80 78 76 74 72 70 69 70 69 70 76 74 82 77 77 83 87 70 26 31 30
30 23 17 16 17 20 22 26 20 19 20 19 25 21 32 46 38 29 33 36 62 98 83 93 96 96 84 82 77 76 72 70 69 70 71 70 66 66 70 76 82 81 78 75 84 86 42 28 33
30 19 19 16 18 23 30 28 30 25 18 27 24 15 16 33 30 34 39 30 32 61 89 84 93 99 100 97 81 76 70 65 66 64 67 67 72 66 62 69 77 84 76 81 83 85 82 34 33
38 22 18 21 20 27 31 26 32 33 28 22 22 22 22 23 23 29 34 28 34 34 57 79 90 95 99 98 98 72 67 67 67 69 69 68 59 54 67 68 78 77 83 80 83 80 75 67 35
24 22 20 26 27 27 30 30 27 25 20 19 19 19 19 20 22 28 31 33 35 27 29 48 80 95 98 100 100 96 96 78 78 77 80 73 75 94 90 93 86 78 82 84 80 78 78 82 41
29 26 27 35 37 38 29 26 26 26 24 17 17 18 18 21 24 28 28 32 35 28 19 27 46 75 97 100 98 99 100 91 81 80 83 75 92 89 92 97 90 86 84 90 82 82 89 86 57
32 34 32 38 43 37 29 27 24 21 19 19 21 22 23 24 26 29 31 31 30 30 15 18 28 43 76 95 100 99 100 86 76 71 84 74 67 67 81 91 83 88 91 89 96 94 96 89 95
27 34 39 38 40 34 30 27 24 22 21 20 22 24 26 27 27 28 29 31 33 34 33 21 19 30 44 73 77 99 98 99 85 68 64 78 68 65 63 74 82 91 86 94 94 94 98 96 97
35 36 30 32 31 31 30 24 27 19 23 28 31 31 31 32 34 35 35 34 34 34 34 36 37 20 32 51 74 83 100 97 93 91 95 80 65 65 66 70 67 67 90 94 89 90 92 93 92
37 30 29 30 31 31 38 34 32 24 24 32 34 34 35 37 39 38 39 43 42 41 42 44 46 36 33 42 66 83 99 99 97 98 96 96 90 85 80 84 77 77 62 72 89 93 93 92 90
32 32 30 29 35 40 43 26 21 23 32 35 36 38 40 42 43 46 51 53 50 48 47 47 47 48 43 51 65 89 100 100 100 99 97 94 98 96 91 88 86 82 91 95 90 80 88 88 84
30 54 32 32 36 38 43 35 25 30 36 37 39 44 52 57 62 65 71 74 79 76 66 55 50 50 50 51 76 99 100 100 99 96 99 96 94 95 90 83 82 86 92 85 86 86 87 84 87
43 45 40 36 36 39 45 43 32 32 36 41 43 54 59 59 61 68 76 84 84 84 85 84 67 55 48 52 64 86 98 99 98 98 97 95 92 89 89 89 90 91 93 93 84 90 87 86 85
42 41 45 40 38 53 45 44 37 32 35 45 48 52 60 69 76 83 87 98 99 97 97 89 78 65 53 49 61 77 86 92 98 98 84 84 79 86 92 92 93 93 93 94 94 94 96 90 86
48 47 51 43 43 50 47 48 38 35 42 51 54 57 69 82 84 93 99 98 96 97 85 72 94 77 57 51 81 86 88 93 97 100 86 77 68 65 85 95 94 89 91 96 97 91 91 97 95
47 45 46 66 52 45 54 45 47 42 49 53 51 58 66 78 94 98 98 98 99 99 88 97 98 89 88 84 89 90 96 82 89 81 66 72 74 84 85 83 91 92 90 88 86 89 90 99 99
57 42 50 61 66 71 48 70 44 40 43 47 47 58 70 85 96 100 96 98 100 99 100 100 100 97 95 100 94 88 88 99 99 100 100 98 99 87 90 98 98 99 92 93 90 87 88 93 98
55 49 53 57 70 78 58 84 45 41 41 44 53 69 83 96 99 98 98 100 99 100 99 98 99 100 97 100 78 66 70 98 99 99 100 94 89 83 74 82 91 98 97 93 87 88 90 94 97
47 56 62 61 69 83 56 60 48 48 55 64 69 83 95 100 98 98 99 100 100 100 100 100 100 100 100 98 78 69 74 99 97 97 98 98 97 93 87 99 98 99 99 99 100 96 98 98 94
61 79 87 86 88 75 50 61 49 47 82 83 87 94 100 99 98 98 98 98 100 99 97 95 94 94 95 96 97 99 100 96 99 97 98 100 99 98 98 100 96 100 99 100 99 99 99 100 100
78 84 88 80 73 68 56 80 59 71 85 88 98 99 99 98 99 100 99 100 100 99 95 88 81 83 82 77 76 78 74 91 93 86 85 88 93 97 100 99 94 95 100 100 100 100 100 100 100
85 92 71 98 62 84 62 59 67 76 80 80 92 99 99 99 99 99 99 99 98 97 96 93 87 88 70 62 80 84 83 80 72 69 54 48 43 46 56 71 79 78 81 86 98 99 100 100 100
56 63 89 100 90 75 64 61 72 90 98 95 94 99 98 99 98 98 97 97 94 92 87 84 72 69 77 78 51 54 61 64 55 33 20 19 20 21 20 29 36 47 66 69 80 87 89 91 100
69 66 66 59 65 80 58 58 64 79 94 95 94 100 100 98 98 98 91 81 81 73 67 66 48 36 27 25 24 24 26 27 26 23 20 19 19 19 22 21 18 22 25 25 40 54 72 69 73
48 50 43 59 61 54 54 52 59 70 74 92 90 99 98 99 98 91 85 78 58 42 39 40 35 25 23 23 23 25 24 22 22 22 22 24 24 23 23 25 27 23 24 27 24 22 19 20 18

GFSSGP_850_rhum_108.txt.gz
RH
49 50 60 53 53 42 33 19 21 28 23 25 26 26 27 51 65 88 94 87 89 97 92 90 92 75 69 69 75 77 74 75 76 75 85 79 80 72 73 64 49 44 78 84 85 89 83 83 51
59 63 59 45 52 37 26 23 25 30 27 26 24 24 23 54 49 69 70 75 79 98 97 100 92 79 72 67 72 73 71 72 71 72 72 74 75 78 75 67 54 47 81 87 76 80 81 77 45
65 67 52 52 34 32 35 24 35 26 25 24 22 25 45 48 50 53 62 86 86 92 92 94 92 92 76 76 70 65 66 65 66 77 71 67 72 79 77 67 59 44 81 87 77 77 68 52 34
64 57 47 45 33 28 28 33 28 26 25 24 24 45 50 47 47 47 49 79 92 96 98 93 97 96 89 76 74 72 70 68 66 60 60 59 63 80 86 70 66 46 68 83 82 76 42 41 33
61 48 43 30 28 26 31 28 26 24 24 23 24 26 48 41 42 32 38 54 89 88 99 96 95 94 92 80 82 82 79 72 63 62 65 64 63 75 78 73 79 69 58 78 86 85 36 32 35
50 38 41 40 25 27 28 27 25 22 22 21 22 23 46 42 37 32 28 34 58 83 93 94 100 93 92 84 85 86 84 76 68 65 62 63 68 68 70 71 70 77 63 78 81 83 54 27 32
52 38 31 23 28 24 27 25 21 21 19 24 24 23 46 42 31 30 29 27 29 50 74 92 99 100 92 88 80 80 78 75 74 71 69 67 67 66 67 66 72 75 77 79 80 81 81 32 30
38 31 20 16 22 34 30 27 28 25 25 24 23 20 24 25 24 22 26 27 26 27 44 70 87 96 94 100 95 85 77 76 72 73 71 70 72 70 69 64 62 70 77 75 78 78 80 76 31
34 39 30 24 20 36 28 26 30 30 27 22 21 22 20 19 20 22 23 19 19 22 25 38 64 80 92 92 94 94 86 76 69 66 65 66 67 66 62 62 62 66 73 77 77 80 83 75 67
32 36 39 30 32 34 29 28 25 25 22 20 19 18 18 18 19 22 24 26 24 18 16 21 29 56 73 92 93 91 95 77 70 71 75 77 78 67 63 84 84 83 72 76 81 80 82 77 71
28 41 29 34 40 34 28 25 24 26 29 20 18 19 19 21 22 24 26 29 30 27 19 14 16 24 46 66 93 93 98 98 97 99 99 97 92 92 90 89 88 88 84 80 82 86 82 75 79
33 32 30 36 43 36 31 28 25 22 21 19 20 20 20 23 24 25 26 28 28 30 28 23 15 14 24 39 62 96 100 98 99 86 90 88 83 85 90 86 88 79 82 75 77 86 86 83 84
31 32 35 36 37 32 28 28 26 22 21 21 22 26 27 28 30 32 34 35 34 34 35 34 33 25 18 31 41 62 93 99 96 87 81 75 83 72 70 90 95 93 99 90 89 89 85 89 88
34 35 30 30 30 29 32 29 24 20 22 27 30 33 33 34 36 37 38 37 39 42 42 39 38 39 39 27 48 43 71 100 93 97 86 72 72 77 67 72 73 85 96 98 94 88 87 86 86
34 34 35 31 30 32 39 42 38 25 22 26 33 34 36 39 42 43 45 52 59 59 53 47 45 46 45 40 38 62 48 95 99 84 92 94 87 82 71 67 63 63 70 72 74 89 88 85 87
35 31 39 35 33 40 42 36 29 22 28 33 35 38 47 53 59 62 66 71 76 78 79 75 62 53 48 48 40 49 59 100 99 94 87 89 93 93 96 91 77 67 73 74 67 63 74 86 95
33 73 37 43 34 37 46 46 29 30 30 34 37 47 53 56 63 73 78 78 83 86 84 83 86 79 60 50 40 45 68 87 99 100 95 90 90 92 91 91 88 83 82 77 65 63 78 79 74
56 49 40 37 45 44 50 49 38 33 31 33 41 47 53 62 73 81 83 76 81 79 73 71 84 90 80 60 50 39 62 82 94 95 100 93 90 88 93 84 84 85 83 83 82 77 62 67 71
42 38 49 43 39 54 56 52 44 34 33 40 46 50 59 72 79 83 90 96 87 83 73 72 74 72 92 73 57 50 54 78 88 92 91 83 80 75 77 92 92 91 89 88 88 87 92 76 67
44 45 53 48 43 49 56 57 49 42 43 49 51 55 64 70 81 86 88 96 99 93 85 74 80 73 84 88 64 48 65 75 77 82 88 93 80 77 89 96 93 92 89 84 86 85 82 88 88
50 48 52 66 56 51 56 62 50 44 49 52 51 56 67 79 85 94 99 92 100 100 93 84 99 99 81 82 78 72 74 72 76 76 78 90 88 86 92 87 93 82 90 90 88 90 92 94 89
59 44 49 59 74 91 60 94 56 56 52 49 49 63 81 86 89 98 98 96 98 99 98 92 92 99 96 84 79 83 95 79 78 90 93 99 97 89 99 96 91 94 94 96 98 97 95 93 96
62 51 56 61 63 77 64 89 69 47 48 53 67 83 89 82 96 99 91 92 97 98 100 94 91 100 98 97 91 97 92 80 85 97 74 99 97 94 100 92 90 82 83 86 90 94 99 100 100
47 57 62 59 69 83 71 78 71 62 59 68 72 85 93 81 85 92 90 97 100 98 99 99 97 98 100 100 97 99 96 77 78 79 94 95 99 97 100 98 100 100 93 95 98 99 99 99 96
58 72 84 91 92 90 64 69 68 66 79 80 85 89 94 95 96 96 93 97 98 96 94 93 90 90 87 87 94 97 100 97 96 96 94 100 98 99 99 99 100 93 89 90 96 100 100 99 100
77 81 96 81 84 86 61 86 75 78 78 85 89 88 97 98 98 99 99 100 100 99 93 93 91 75 69 85 90 82 76 80 86 81 77 68 64 60 60 76 72 73 74 87 84 93 90 97 100
88 95 70 92 68 89 81 69 79 80 78 78 85 92 96 98 98 98 98 98 95 93 90 82 83 93 88 77 57 55 62 65 61 61 55 65 69 38 30 31 30 32 36 44 63 72 80 92 90
64 60 91 97 95 90 82 75 87 94 86 85 86 89 93 98 98 99 99 97 90 86 75 67 60 51 56 50 48 45 47 40 39 27 31 29 23 23 24 25 25 22 24 29 28 34 52 77 92
66 67 64 60 71 80 84 82 67 85 79 80 78 83 94 98 98 97 91 84 75 60 42 38 33 25 26 23 24 24 23 23 25 27 30 30 31 31 28 26 25 26 26 24 29 30 30 33 40
51 57 54 76 78 73 66 76 63 74 78 81 81 86 96 95 94 90 83 66 59 52 40 32 28 29 25 24 26 25 24 26 27 27 27 26 24 23 21 18 16 14 13 14 16 16 20 23 26

GFSSGP_850_rhum_111.txt.gz
RH
38 60 59 55 52 57 47 24 28 27 30 26 26 39 60 56 80 93 88 84 80 86 86 91 93 82 68 73 76 79 76 77 77 77 76 77 74 72 75 66 49 49 80 77 88 87 80 64 43
46 58 60 55 65 44 35 35 44 36 28 23 23 27 46 55 65 61 72 78 80 93 82 93 95 90 70 70 73 74 70 73 73 73 70 71 75 73 74 66 58 44 88 92 80 82 82 72 44
59 68 60 69 52 44 45 40 35 28 25 25 25 42 50 51 50 53 63 88 84 99 91 88 89 96 81 74 67 66 68 67 64 61 54 62 68 75 77 68 62 46 78 81 77 78 81 75 54
63 59 54 54 44 35 42 37 29 28 24 24 28 57 45 45 47 39 47 55 74 89 95 88 92 98 99 81 78 74 70 68 67 64 57 58 59 70 75 65 62 52 64 81 82 78 48 38 35
62 59 52 36 31 39 37 30 25 28 26 23 24 42 43 42 40 31 29 34 45 80 97 89 94 98 98 94 80 76 76 76 72 66 63 63 63 63 72 68 72 72 49 67 80 81 74 30 31
57 45 53 46 35 35 30 24 24 24 23 23 24 36 45 41 36 32 30 27 28 46 86 88 87 86 91 95 86 89 86 81 72 67 68 67 70 72 69 67 65 68 65 59 76 79 77 38 27
58 47 40 31 37 35 31 25 29 28 26 26 24 30 42 32 26 24 24 26 26 26 40 77 94 90 92 89 89 88 86 83 79 73 71 69 69 70 69 68 68 69 71 69 74 76 76 74 29
38 37 25 20 30 44 30 29 28 30 29 23 22 25 47 21 20 20 20 16 19 24 24 29 63 95 97 92 98 84 82 82 83 84 79 76 73 71 71 69 62 61 70 73 74 74 72 73 70
30 44 39 44 37 39 29 31 28 27 24 22 22 20 20 21 20 20 18 16 16 16 19 21 24 48 80 89 91 93 92 83 79 76 70 71 70 69 68 68 61 61 60 67 73 74 74 79 75
36 53 41 41 40 37 30 28 25 25 26 23 21 20 20 18 18 19 18 18 20 18 16 16 17 20 33 62 90 87 87 90 81 75 69 67 71 73 74 63 70 80 72 67 74 77 78 81 78
31 45 38 49 38 32 30 27 27 27 28 23 20 20 19 18 17 18 22 25 26 25 22 21 18 15 14 23 50 89 89 89 94 90 78 75 79 85 79 76 87 91 89 83 71 66 76 76 79
38 36 37 41 39 35 34 29 27 25 23 22 21 21 20 21 25 30 33 35 36 36 36 36 33 31 23 19 21 40 82 91 91 95 94 92 85 81 87 94 98 98 94 91 85 79 74 75 75
34 38 35 38 33 31 30 30 31 25 21 21 22 31 34 34 34 36 38 39 39 40 40 41 40 37 35 31 25 25 35 78 94 98 99 94 87 80 85 89 98 96 95 98 96 91 88 86 82
40 36 33 31 31 29 32 34 32 21 22 23 30 34 34 38 42 42 45 55 66 71 69 66 58 49 45 44 35 26 28 38 86 96 96 91 84 73 79 74 73 86 93 93 93 90 88 86 92
32 35 34 33 32 35 36 39 44 21 24 28 35 38 45 54 64 71 75 72 74 74 71 67 70 62 57 52 46 38 29 32 42 90 100 94 90 84 75 77 68 80 81 92 91 86 87 87 85
38 36 46 36 34 39 39 24 34 23 27 33 37 48 52 64 71 76 77 76 74 66 61 59 59 63 66 65 56 52 40 32 41 53 92 93 88 87 76 82 76 67 67 69 76 75 73 72 90
40 76 42 43 37 41 45 43 34 25 33 34 40 48 53 64 70 74 76 78 75 69 63 60 59 56 58 68 69 65 54 42 44 59 87 87 92 89 91 90 78 84 84 81 76 74 71 67 64
58 55 42 39 47 44 52 58 46 34 38 35 44 52 59 62 69 76 76 68 63 63 64 64 63 60 54 54 73 68 61 45 50 62 77 88 90 87 92 94 85 69 84 88 84 78 76 70 64
41 43 50 44 48 50 59 62 53 43 39 46 52 59 62 63 70 70 67 68 67 66 64 69 68 65 62 58 79 77 62 54 46 66 76 79 84 93 98 94 93 84 80 85 90 88 88 85 88
49 47 57 55 50 51 61 63 53 51 50 53 53 60 66 69 71 75 68 66 82 87 88 80 78 72 76 71 72 80 77 57 75 70 76 84 97 95 94 84 80 82 79 89 88 90 90 92 88
52 52 66 69 62 59 64 68 52 51 54 52 52 71 76 75 76 78 94 97 98 98 98 96 85 80 82 75 78 75 77 67 79 81 85 95 98 96 96 88 84 83 73 76 74 80 87 90 84
66 53 56 65 78 90 65 82 72 57 61 60 72 79 80 80 80 94 88 88 92 91 96 99 84 82 95 90 94 84 85 96 96 81 89 100 100 100 93 80 73 85 86 87 83 86 85 85 86
69 56 62 65 72 83 75 92 75 61 62 71 89 88 87 83 90 83 86 88 88 84 84 95 95 88 95 93 99 99 94 98 100 100 99 98 97 89 96 92 84 95 100 90 92 94 86 80 89
55 63 67 61 72 96 76 82 80 68 57 76 87 88 89 89 91 88 83 85 92 85 85 92 91 92 89 92 99 100 100 100 100 98 97 90 98 99 98 100 100 100 97 94 92 88 89 90 97
57 79 94 88 98 91 69 82 75 64 80 81 85 89 87 97 90 81 87 87 90 92 89 87 81 78 81 85 81 83 92 94 86 80 81 85 82 81 79 80 74 69 68 63 70 83 89 86 84
78 77 95 92 98 91 67 83 70 80 83 82 83 81 82 94 90 82 89 96 95 92 88 87 93 89 83 65 60 68 66 63 64 70 72 68 58 43 42 47 46 37 33 31 32 33 42 67 88
85 90 73 93 83 95 86 71 72 84 86 85 81 81 84 87 96 90 92 96 95 93 83 69 59 69 72 72 63 49 42 43 35 34 36 33 35 34 38 46 46 39 25 25 29 28 27 27 37
68 67 86 96 96 80 85 79 84 91 88 86 87 85 84 90 91 97 97 98 85 84 62 45 33 28 29 25 24 23 23 23 26 28 29 28 28 30 31 30 27 24 23 24 24 24 28 30 36
70 76 72 68 74 83 91 81 73 76 86 87 83 79 83 91 88 89 90 84 78 57 41 31 26 23 22 22 23 24 24 26 28 28 28 26 25 23 20 16 13 9 8 8 8 10 11 11 15
63 68 68 85 83 74 82 78 64 75 82 79 79 79 86 95 87 89 86 74 62 63 50 35 30 28 27 26 27 28 29 30 29 28 25 24 19 13 11 10 10 9 9 9 9 10 11 8 9

GFSSGP_850_rhum_114.txt.gz
RH
56 58 56 45 43 56 47 27 35 34 32 28 48 58 66 68 85 90 83 81 80 78 80 83 94 88 78 77 78 79 78 78 77 76 76 75 74 72 73 63 49 55 74 82 91 83 77 55 39
61 55 49 52 58 39 37 42 40 35 29 28 36 51 54 58 63 69 82 71 74 80 79 81 89 94 79 74 76 78 75 75 75 73 72 70 74 72 73 66 59 47 82 86 81 82 78 70 48
60 54 55 58 62 48 53 39 33 29 26 26 40 50 51 52 53 54 65 68 72 92 86 78 86 96 88 76 69 73 70 70 70 67 70 77 72 81 78 68 61 48 73 84 79 82 73 65 47
59 55 54 57 38 43 46 37 30 28 25 25 40 60 45 48 43 36 41 44 54 87 96 87 87 85 95 90 80 72 65 65 65 65 62 63 62 63 78 71 62 56 60 82 78 76 62 34 33
55 52 55 45 41 41 33 30 28 31 25 26 30 54 45 43 37 33 30 28 33 79 98 88 83 84 90 98 92 80 80 77 71 67 63 59 60 62 70 75 72 70 53 64 81 82 80 38 31
57 45 53 45 47 38 31 27 26 28 26 25 30 50 44 34 27 27 26 26 27 30 80 84 87 85 89 84 88 85 82 82 82 78 72 67 67 70 69 68 72 72 76 56 66 81 83 80 32
51 50 50 45 42 38 32 28 32 30 29 26 24 52 40 24 23 23 22 21 18 25 26 57 92 95 86 89 89 86 85 88 87 82 79 77 74 72 72 72 69 70 71 71 61 73 79 77 66
37 39 27 36 41 41 32 30 29 28 28 23 22 44 47 25 24 24 21 19 16 16 20 24 32 75 95 94 99 95 88 81 79 80 78 74 73 73 72 74 71 68 68 73 74 72 73 71 75
30 47 47 44 40 41 31 33 29 26 24 21 22 22 22 22 21 21 19 18 15 16 15 15 19 23 46 83 89 88 92 94 89 78 78 76 70 67 68 70 69 70 64 64 73 77 77 76 77
38 57 46 44 39 37 30 28 27 24 26 23 21 20 20 20 19 18 17 17 20 22 21 20 16 14 16 22 50 91 90 88 92 92 79 74 70 67 68 70 72 65 72 67 66 76 78 80 79
37 49 47 48 36 31 30 28 27 27 26 23 22 20 19 18 17 16 23 33 37 36 34 33 31 27 22 17 16 30 80 96 88 95 95 80 72 69 72 76 76 70 89 90 84 72 81 81 79
43 40 40 44 33 30 34 29 25 26 23 23 22 21 21 23 32 35 37 39 39 39 39 37 34 33 33 29 23 18 21 55 96 92 94 97 97 93 89 84 82 78 88 90 92 92 88 87 86
42 40 40 38 31 29 30 28 29 24 20 21 22 34 34 35 37 41 44 44 44 45 51 52 49 40 32 26 26 27 22 19 37 85 90 95 95 97 95 92 89 92 88 92 90 90 84 78 82
40 39 38 31 31 30 31 33 34 21 20 22 32 35 38 46 49 50 52 64 68 67 60 54 49 48 43 37 32 29 28 29 22 28 85 85 96 96 93 92 87 86 87 85 86 88 88 86 86
35 38 35 34 33 36 37 32 45 22 24 25 36 42 52 57 65 68 75 75 73 72 65 53 47 44 42 40 39 35 33 31 38 31 27 85 91 94 92 92 83 82 75 82 80 86 88 85 75
37 40 38 36 35 40 35 18 31 23 25 28 41 54 60 65 68 75 76 75 73 68 59 55 57 54 51 45 41 42 42 42 34 38 36 32 79 99 89 98 90 83 75 83 86 88 84 76 73
52 60 42 41 39 44 44 32 36 26 33 35 42 56 64 66 70 67 65 59 54 52 54 56 54 54 55 51 46 42 55 60 48 39 39 39 50 89 100 90 99 90 85 82 80 77 80 79 74
52 61 43 41 44 44 50 58 49 32 35 40 42 57 62 69 69 70 64 61 58 58 61 62 62 63 58 59 58 55 53 71 65 54 43 49 63 81 93 97 90 97 96 90 94 86 88 86 84
47 54 48 47 47 51 58 62 56 43 44 48 54 62 65 70 75 71 64 61 61 64 66 71 68 69 66 66 63 61 65 70 65 58 49 60 74 84 93 92 94 86 100 99 95 90 87 86 90
47 57 63 58 53 55 63 66 57 55 55 48 58 67 69 70 71 68 69 67 71 84 91 81 76 77 73 76 70 73 81 82 83 75 86 85 85 83 85 98 96 99 100 97 84 76 80 79 79
60 63 67 68 63 60 66 57 56 56 57 58 61 69 74 72 72 72 71 77 84 84 87 90 80 78 76 77 83 75 85 85 76 69 77 81 86 99 100 98 99 100 99 100 90 79 67 74 66
69 56 60 70 76 68 62 63 63 59 66 65 80 81 81 81 78 78 81 82 82 78 78 80 91 83 74 73 92 99 99 100 98 100 99 100 94 95 98 100 99 96 88 85 97 81 86 82 81
69 56 63 64 74 79 72 89 69 63 67 71 89 87 86 84 84 84 82 77 80 80 78 84 90 90 81 75 92 98 98 100 100 100 100 98 98 92 80 90 100 100 97 98 88 94 91 88 88
55 65 70 75 80 86 71 81 77 71 61 70 89 88 87 86 91 88 83 82 82 78 79 83 81 81 82 81 77 86 94 88 85 89 95 98 99 99 90 98 96 95 89 83 78 79 85 90 90
62 79 91 80 96 79 75 85 75 55 71 72 84 82 83 86 95 82 81 81 79 85 86 86 81 73 67 71 72 69 62 68 70 70 68 54 53 61 65 63 66 50 39 36 34 31 31 34 49
80 78 89 81 97 91 73 89 71 66 77 78 77 78 82 86 90 86 79 87 86 87 80 70 71 77 78 70 54 49 49 47 43 39 37 37 40 43 42 52 56 56 54 35 26 27 29 29 29
78 89 71 89 85 96 88 70 63 86 88 90 87 84 84 84 88 84 83 86 90 92 79 63 44 36 46 32 23 22 23 24 27 30 31 31 31 32 34 33 33 34 33 30 27 24 21 21 24
65 68 88 90 91 92 85 80 81 83 80 87 88 85 80 82 86 88 83 85 87 83 71 37 32 24 24 22 23 23 24 26 29 30 29 28 27 25 21 17 13 10 9 9 9 8 9 10 10
76 84 74 75 88 92 90 73 66 67 66 73 80 75 76 74 79 79 82 86 84 75 47 38 30 27 25 25 26 28 30 31 31 29 26 23 18 11 8 7 7 7 7 7 7 9 11 11 10
68 78 74 86 78 82 83 79 52 68 70 73 68 68 68 69 74 79 86 83 73 54 57 52 38 32 30 30 31 33 33 32 30 27 24 18 11 10 9 9 10 11 13 14 14 15 15 14 12

GFSSGP_850_rhum_117.txt.gz
RH
57 61 54 41 37 48 37 32 41 36 33 52 58 66 80 75 80 71 85 81 78 75 76 85 85 91 81 75 77 78 79 78 80 78 74 72 75 70 73 66 50 58 69 81 91 87 57 46 61
61 57 47 47 39 34 40 42 40 35 37 39 50 56 59 64 66 79 86 73 76 76 80 79 86 94 87 76 78 77 76 76 76 78 73 73 76 72 69 71 64 50 75 75 84 84 79 66 44
59 51 47 58 60 40 52 40 34 30 29 29 50 51 50 54 52 60 58 49 62 83 84 80 88 85 85 78 75 78 79 74 74 72 72 70 71 72 79 75 63 56 56 79 88 82 80 79 67
58 48 48 49 44 45 46 37 32 30 26 33 45 59 48 49 40 39 36 36 61 93 96 87 86 91 86 87 80 78 69 71 71 70 71 67 64 62 62 77 62 59 51 81 82 80 77 50 45
56 44 50 53 48 41 32 31 30 30 27 39 39 53 47 39 34 32 30 29 29 82 97 87 81 89 90 96 94 84 78 77 73 73 73 70 66 68 66 72 73 65 58 56 80 82 81 80 36
53 42 49 53 52 37 32 29 27 30 28 27 43 50 44 31 27 25 24 22 20 26 62 83 80 80 85 83 87 89 86 81 80 79 77 73 67 67 71 73 72 72 74 72 55 71 82 80 68
54 54 50 54 49 38 32 30 32 31 29 26 27 54 39 27 26 25 22 21 18 15 20 32 74 91 84 88 90 92 90 87 87 87 84 77 70 69 68 69 69 71 71 73 74 61 75 82 78
34 42 32 42 46 40 33 31 30 28 26 23 23 54 46 28 28 24 22 20 18 15 14 15 23 39 83 86 92 97 98 93 89 86 84 80 77 73 70 69 70 71 70 67 72 75 72 81 81
28 50 49 43 42 40 32 32 29 26 23 23 23 28 25 24 22 20 19 19 17 16 18 17 15 17 21 47 78 89 90 93 96 96 93 86 83 80 78 76 75 74 73 70 66 68 76 80 84
40 57 47 44 39 38 31 28 27 24 24 24 22 21 21 20 20 19 19 21 23 24 24 22 21 18 16 17 20 37 78 90 92 92 94 95 87 82 76 73 71 70 72 70 63 67 71 83 85
40 51 49 46 36 31 30 29 27 26 25 23 21 21 21 25 27 26 30 33 35 36 35 32 30 28 24 20 16 17 20 43 94 91 93 91 95 93 82 74 71 75 78 70 74 75 70 73 86
45 43 43 41 33 29 31 28 25 27 24 23 22 22 31 33 32 32 34 37 38 40 41 43 44 40 36 30 25 20 17 16 25 64 85 88 91 93 95 97 92 86 85 78 84 86 87 90 87
46 46 42 36 29 30 28 28 28 22 21 23 22 34 34 35 36 38 40 46 47 50 53 52 46 41 37 34 33 30 26 22 19 18 38 78 80 89 91 93 97 100 93 90 87 84 88 87 83
42 42 38 32 31 32 28 33 32 20 19 20 31 35 36 39 43 48 54 57 59 57 55 50 43 43 40 36 32 30 31 31 29 26 19 22 68 81 84 87 94 95 96 91 87 88 87 84 86
35 42 36 36 34 40 39 28 37 22 24 28 34 42 44 47 56 58 60 65 66 63 54 48 43 41 40 38 35 33 33 35 37 37 33 26 24 67 77 83 95 94 92 92 88 85 89 86 83
37 41 35 37 35 43 28 15 25 24 25 27 40 54 60 61 63 62 67 67 58 49 44 43 45 46 45 44 42 38 34 32 37 46 54 46 36 33 57 80 98 93 96 95 91 82 83 85 81
50 54 40 42 39 46 40 25 33 28 26 36 38 60 68 66 67 68 66 59 54 50 49 48 51 53 53 52 50 52 53 50 53 56 56 56 41 36 49 67 86 100 97 100 94 92 99 94 89
45 67 44 45 45 45 49 56 47 34 33 34 38 56 73 74 73 72 70 64 59 56 58 59 64 65 65 62 58 56 57 57 71 73 61 59 50 48 57 70 85 80 99 98 100 96 100 95 88
50 50 50 52 48 53 59 62 57 41 41 44 43 51 74 78 75 74 69 67 65 64 67 69 72 74 74 73 69 70 82 78 91 92 78 82 86 77 70 72 83 90 92 90 100 95 100 99 96
50 55 64 61 53 59 67 70 62 57 56 50 49 58 71 77 76 74 70 69 70 73 75 78 79 76 75 71 78 84 90 100 100 99 83 90 89 84 95 91 92 100 100 98 100 98 100 100 100
66 65 66 63 63 62 70 50 54 57 60 64 59 62 70 74 76 76 74 72 74 76 74 77 79 74 72 72 78 80 88 98 95 95 99 98 97 94 93 92 96 90 100 97 98 98 93 91 97
64 58 65 68 71 58 66 57 50 59 65 68 78 75 74 75 76 76 76 73 75 78 75 78 78 72 70 71 78 91 93 88 97 99 97 92 98 92 92 95 98 98 94 90 78 93 92 79 83
67 58 65 66 79 77 68 86 66 65 69 74 80 80 79 79 81 80 78 75 77 78 76 77 80 79 79 73 71 86 86 80 86 91 96 99 99 100 100 100 100 99 100 99 100 97 97 92 87
59 69 72 82 80 79 66 82 72 69 61 56 78 76 81 84 82 80 79 77 79 78 83 80 72 67 70 70 69 64 64 71 72 72 70 68 64 60 56 55 52 41 41 42 46 50 50 53 59
67 78 82 63 86 70 74 87 75 52 58 62 72 79 82 81 79 84 79 80 81 83 87 87 85 80 71 58 51 50 54 53 57 55 51 53 52 51 47 46 48 52 47 41 35 29 29 28 29
79 73 78 43 94 92 77 92 67 58 72 74 72 73 76 78 80 79 80 79 86 84 77 61 56 64 53 42 26 24 24 26 30 30 31 34 36 30 30 30 30 31 31 30 26 22 20 20 21
71 88 72 89 87 95 89 71 61 79 81 84 81 80 76 76 79 79 79 78 82 84 77 52 34 26 26 23 24 24 24 25 25 26 27 26 24 21 18 15 12 9 7 7 6 6 7 9 9
65 72 84 88 90 93 86 80 77 73 70 77 88 84 75 77 78 77 74 77 82 85 78 45 30 26 24 24 25 26 27 29 30 29 28 24 21 15 9 7 7 6 6 6 6 7 9 12 12
81 83 77 79 84 91 88 64 63 64 63 60 70 66 67 68 67 72 71 76 81 81 73 40 33 28 28 28 30 32 33 33 31 29 26 22 15 9 8 8 8 8 9 10 12 13 14 15 14
70 78 77 86 76 86 84 77 49 69 60 64 57 51 53 57 60 67 68 72 73 71 51 50 46 37 33 32 33 36 37 38 35 31 26 21 11 9 8 8 9 11 14 16 16 17 18 19 20

GFSSGP_850_rhum_120.txt.gz
RH
48 56 47 38 26 38 36 32 42 37 57 70 57 64 82 79 72 63 89 85 83 77 77 86 86 90 83 76 79 80 79 78 78 80 77 76 75 70 69 67 55 50 68 83 98 93 49 43 54
60 56 45 40 35 29 38 38 41 37 55 53 53 57 62 68 71 82 83 68 77 79 80 78 83 89 92 74 75 80 81 78 77 77 75 74 72 73 70 68 59 52 58 73 89 91 84 68 54
61 51 41 59 44 27 50 42 36 32 45 34 53 52 53 55 55 62 50 52 69 86 86 84 88 92 91 86 73 73 78 78 76 75 74 74 69 71 75 81 70 61 50 63 79 85 86 80 76
59 47 43 44 44 46 46 39 34 32 29 42 48 57 49 49 42 41 33 33 72 97 90 86 82 85 87 89 91 84 75 71 74 74 72 70 66 67 69 67 78 62 58 53 83 89 82 77 46
55 44 53 56 52 42 33 32 32 30 35 43 43 53 45 40 36 32 27 26 28 68 91 80 80 76 79 84 92 93 89 84 78 74 74 73 70 64 64 64 67 70 65 57 66 81 80 80 74
49 39 54 63 53 37 32 31 28 31 30 33 47 47 45 33 30 26 23 21 19 18 31 80 78 77 78 80 86 93 91 89 86 85 81 80 75 69 67 67 68 65 64 66 69 64 75 81 83
51 54 50 62 52 39 32 31 31 31 29 28 41 53 39 30 28 25 22 20 19 17 14 17 46 78 77 79 89 93 96 95 92 92 92 93 86 80 75 72 70 70 69 66 68 71 63 66 84
34 44 48 48 51 42 33 32 30 27 27 24 33 49 40 28 28 23 21 20 19 18 14 13 13 23 44 82 82 82 91 99 96 92 88 91 92 88 83 79 75 75 75 74 69 68 73 70 72
28 47 53 49 46 39 34 32 29 27 24 24 28 34 30 25 22 21 20 20 20 19 20 19 17 15 15 20 39 74 82 83 88 92 95 94 92 88 88 87 83 79 77 75 74 72 66 74 81
41 50 45 42 39 41 33 28 27 25 25 24 22 22 22 22 21 22 22 22 23 24 26 28 28 24 20 18 16 18 25 60 82 82 87 88 91 93 90 87 85 82 78 74 72 75 69 70 76
43 46 48 43 36 30 30 29 27 26 26 24 22 22 23 27 28 28 28 30 33 35 37 34 36 39 34 27 21 18 15 16 22 55 80 90 86 87 91 94 88 83 80 79 79 78 71 74 73
50 47 44 42 34 29 29 27 26 26 23 22 22 25 30 32 31 32 36 42 43 45 50 50 43 34 32 32 30 27 23 19 16 16 20 56 80 81 90 89 91 95 95 90 90 87 80 87 86
48 48 42 32 27 30 26 29 26 22 24 23 22 32 34 34 35 39 44 48 50 53 48 46 41 33 32 31 31 31 30 27 24 24 22 21 23 64 76 79 84 87 90 93 96 94 93 89 87
46 43 37 31 32 33 26 31 31 21 19 22 23 33 36 38 43 48 54 55 55 52 45 36 35 34 35 35 34 32 31 30 31 32 32 28 28 26 30 68 74 76 85 86 96 98 91 92 94
36 40 38 40 34 42 39 26 30 23 23 27 33 38 41 47 54 59 58 59 56 50 41 42 40 38 38 37 35 34 35 33 31 29 32 42 45 37 30 26 57 77 76 92 94 94 95 90 88
37 38 33 38 36 44 26 13 27 23 26 31 38 44 50 56 62 63 63 60 56 50 49 47 45 44 45 43 41 41 40 39 39 39 40 45 56 56 43 37 34 45 77 78 94 99 94 95 88
50 52 40 40 40 45 39 20 30 30 27 31 39 51 59 64 65 63 61 58 54 54 54 52 50 53 55 52 48 50 49 45 43 51 67 61 59 60 52 50 48 58 65 77 89 93 99 97 93
43 60 43 43 44 47 49 53 45 34 31 29 38 44 67 69 67 64 62 60 58 56 55 56 59 63 62 63 64 62 64 59 66 72 72 69 72 76 76 72 60 62 69 89 91 73 94 100 97
54 49 50 55 50 56 57 63 57 41 45 43 34 37 55 70 71 68 66 65 63 60 62 64 70 72 71 69 66 66 71 94 98 81 81 75 86 86 82 86 98 100 99 98 99 91 92 99 95
51 54 67 62 55 62 67 71 60 57 54 47 41 38 44 74 74 72 72 70 65 65 70 71 77 77 75 75 78 79 87 99 98 94 98 97 97 91 91 87 88 97 96 98 94 96 89 96 93
70 62 63 60 62 62 71 47 42 59 62 62 58 54 50 64 72 75 74 72 70 74 72 74 80 77 73 73 78 82 83 84 82 85 89 89 89 87 81 82 84 75 84 93 92 86 83 86 86
58 62 68 68 65 53 64 55 39 53 65 70 70 65 65 73 77 76 76 75 74 77 75 77 80 78 74 72 71 75 74 76 82 87 92 96 94 94 96 92 96 98 97 100 99 91 97 99 97
68 62 70 70 80 75 66 79 53 65 64 67 75 69 69 73 76 78 78 76 76 78 79 77 74 73 73 70 68 72 75 72 72 68 70 71 68 67 64 62 61 64 70 63 68 68 80 78 82
63 70 67 79 78 73 64 80 63 60 58 52 65 64 67 73 76 78 78 79 80 79 81 76 71 70 65 61 59 61 62 62 61 61 60 57 56 54 51 51 50 54 55 58 55 39 35 34 32
67 76 74 58 80 68 74 89 71 51 54 54 56 58 65 72 76 77 77 78 81 78 83 81 80 77 69 54 36 30 29 36 40 42 43 41 38 34 27 26 26 26 26 27 28 31 31 27 23
78 69 72 32 75 88 83 95 68 56 69 65 66 63 66 74 75 73 73 73 78 79 74 57 49 55 47 31 23 22 23 23 24 24 25 25 24 23 20 16 12 10 8 8 8 8 7 7 8
79 84 69 88 90 92 87 71 59 62 74 79 76 76 70 70 70 72 74 72 79 81 76 61 36 27 25 23 24 25 25 27 28 27 26 24 20 17 12 8 8 8 10 10 11 11 12 12 10
65 71 82 91 77 84 81 77 74 66 66 75 82 75 66 68 70 68 69 69 77 81 82 64 32 27 25 26 27 29 31 32 32 30 27 24 20 14 8 7 6 7 7 9 11 13 14 15 15
85 83 82 81 83 88 84 54 62 60 58 54 58 54 55 56 54 55 59 62 73 79 73 64 40 31 29 30 31 33 35 37 37 34 31 26 21 12 7 6 6 6 8 10 12 13 14 15 16
71 75 77 83 74 88 87 75 46 63 60 58 52 46 44 43 48 51 56 62 67 68 67 58 42 37 35 34 35 37 38 39 40 39 35 29 22 12 8 7 8 12 15 16 16 17 18 20 22